     2.11           OBSERVATION DATA    G (GPS)             RINEX VERSION / TYPE
teqc 2010Oct21 OPUS Account 20111028 19:48:15UTC            PGM / RUN BY / DATE
G 1385                                                      MARKER NAME
2070                                                        MARKER NUMBER
CSMIDDLETON NGS                                             OBSERVER / AGENCY
0220316069 TRIMBLE 5700 1.30                                REC # / TYPE / VERS
60183425 TRM41249.00 NONE                                   ANT # / TYPE
  -739530.9338 -5582345.9757  2985140.1442                  APPROX POSITION XYZ
        2.0010        0.0000        0.0000                  ANTENNA: DELTA H/E/N
     1     1                                                WAVELENGTH FACT L1/2
     5    L1    L2    C1    P1    P2                        # / TYPES OF OBSERV
    15                                                      LEAP SECONDS
  2011     8    26     0     0   30.0000000     GPS         TIME OF FIRST OBS
                                                            END OF HEADER
 11  8 26  0  0 30.0000000  0  9G17G10G04G12G09G05G02G25G30
 -86748549.42657 -67559909.30555  23143535.0554                   23143536.5554
 -48674756.25058 -37898418.93556  20754350.6414                   20754350.5824
 -67387004.57458 -52472034.48955  21711080.0554                   21711080.5704
 -35999681.73057 -28024519.76355  21235185.3204                   21235185.1484
 -37159747.98857 -28889229.81454  23649663.1174                   23649668.9104
 -29133533.41457 -22669220.31756  21670724.1884                   21670724.4144
 -56091099.50457 -43674481.72855  20504896.0554                   20504895.3244
  -6802978.23856  -5268800.54953  23861979.5004                   23861982.1844
  -2955968.85215                  23942435.328
 11  8 26  0  1  0.0000000  0  9G17G10G04G12G09G05G02G25G30
 -85212561.51247 -66363035.64945  23435824.1884                   23435826.0204
 -47184865.03148 -36737464.70746  21037867.2424                   21037867.0664
 -65826550.82048 -51256096.52845  22008024.1094                   22008024.8134
 -34574039.65647 -26913629.79745  21506476.3984                   21506476.6334
 -35598278.15647 -27672500.26744  23946801.3984                   23946806.5234
 -27737439.57048 -21581354.89346  21936392.1564                   21936392.8364
 -54606096.61747 -42517336.60245  20787483.1884                   20787482.2074
  -5418367.89846  -4189883.40243  24125462.1564                   24125466.7424
  -1573908.656 5                  24205433.617
 11  8 26  0  1 30.0000000  0  9G17G10G04G12G09G05G02G25G30
 -85251842.24247 -66393644.03345  23428349.2114                   23428350.7154
 -47269774.67648 -36803628.04246  21021709.7344                   21021709.6884
 -65841412.07848 -51267676.73845  22005196.3914                   22005196.5944
 -34723385.88347 -27030003.43746  21478056.8834                   21478057.0474
 -35612101.71947 -27683271.98444  23944170.3984                   23944175.6844
 -27916447.48048 -21720841.48546  21902327.8674                   21902328.6804
 -54696251.14547 -42587586.85545  20770327.4924                   20770326.3404
  -5608998.44546  -4338426.65543  24089186.1334                   24089189.9344
  -1767044.262 6                  24168679.563
 11  8 26  0  2  0.0000000  0  9G17G10G04G12G09G05G02G25G30
 -85290969.58647 -66424132.92245  23420903.7424                   23420905.7584
 -47354062.52048 -36869306.84246  21005670.4144                   21005669.8014
 -65856169.35248 -51279175.92245  22002387.9454                   22002388.5434
 -34872292.67647 -27146034.67146  21449721.0944                   21449720.8834
 -35625801.16847 -27693947.04444  23941564.1804                   23941569.5634
 -28095127.89548 -21860072.87346  21868326.0234                   21868326.8874
 -54786140.89846 -42657630.81945  20753222.0084                   20753220.9574
  -5799440.41446  -4486822.84643  24052946.6564                   24052950.1604
  -1959946.359 5                  24131970.625
 11  8 26  0  2 30.0000000  0  9G17G10G04G12G09G05G02G25G30
 -85329941.75447 -66454500.90144  23413486.5634                   23413488.9454
 -47437727.85548 -36934500.56746  20989749.2424                   20989748.9924
 -65870823.68448 -51290594.90445  21999599.9384                   21999599.9614
 -35020756.84047 -27261720.99046  21421469.4774                   21421468.7774
 -35639379.03147 -27704527.34644  23938980.8284                   23938985.1214
 -28273477.06248 -21999046.16446  21834387.2664                   21834388.6684
 -54875765.91447 -42727468.47645  20736166.4774                   20736165.7114
  -5989690.16846  -4635069.40943  24016743.0004                   24016745.8674
  -2152610.836 6                  24095308.766
 11  8 26  0  3  0.0000000  0  9G17G10G04G12G09G05G02G25G30
 -85368759.05947 -66484748.18344  23406100.7274                   23406103.0084
 -47520771.23048 -36999209.65646  20973946.6804                   20973945.8794
 -65885377.53547 -51301935.59045  21996829.9924                   21996830.4614
 -35168776.66847 -27377061.09246  21393301.9304                   21393301.2774
 -35652839.41447 -27715016.14844  23936419.5704                   23936424.3674
 -28451492.91848 -22137759.72246  21800511.9924                   21800512.5784
 -54965128.39147 -42797101.56745  20719161.6884                   20719160.7974
  -6179745.84446  -4783164.63943  23980577.3834                   23980580.1414
  -2345035.59046  -1763849.50052  24058692.7584                   24058693.3914
 11  8 26  0  3 30.0000000  0  9G17G10G04G12G09G05G02G25G30
 -85407421.27346 -66514874.64044  23398742.8594                   23398745.4224
 -47603193.46948 -37063434.75446  20958262.1334                   20958261.6954
 -65899833.41447 -51313199.92545  21994079.1024                   21994079.5594
 -35316350.85947 -27492053.92046  21365219.4384                   21365218.5124
 -35666185.94547 -27725416.11744  23933879.6334                   23933883.7544
 -28629172.96948 -22276211.64146  21766700.2664                   21766701.2624
 -55054229.68447 -42866531.14845  20702206.5004                   20702204.7194
  -6369605.32846  -4931107.01843  23944448.6024                   23944451.8204
  -2537218.29746  -1913602.23543  24022121.1644                   24022121.9654
 11  8 26  0  4  0.0000000  0  9G17G10G04G12G09G05G02G25G30
 -85445925.32846 -66544877.83944  23391416.0944                   23391418.2624
 -47684991.98448 -37127173.81446  20942696.2584                   20942695.9534
 -65914190.68447 -51324387.42245  21991346.8054                   21991347.3054
 -35463474.64147 -27606695.78645  21337222.4614                   21337221.4654
 -35679419.55547 -27735728.20344  23931361.4454                   23931366.2194
 -28806512.09048 -22414397.87246  21732953.8984                   21732954.6844
 -55143068.99647 -42935756.57545  20685301.1724                   20685298.6564
  -6559263.39546  -5078892.42443  23908357.1804                   23908360.2274
  -2729153.79346  -2063162.23443  23985596.8914                   23985597.9454
 11  8 26  0  4 30.0000000  0  9G17G10G04G12G09G05G02G25G30
 -85484273.28547 -66574759.40544  23384118.8054                   23384121.0664
 -47766169.84048 -37190429.26446  20927248.5784                   20927248.4104
 -65928453.47347 -51335501.29645  21988632.3134                   21988633.2194
 -35610148.17247 -27720986.81346  21309310.9774                   21309310.4694
 -35692545.86746 -27745956.67944  23928863.5944                   23928869.0514
 -28983510.02348 -22552318.25446  21699271.7974                   21699272.3554
 -55231649.37947 -43004780.22745  20668444.8984                   20668442.5984
  -6748719.82446  -5226520.67843  23872303.9454                   23872307.3524
  -2920841.51646  -2212529.32042  23949119.7894                   23949120.6884
 11  8 26  0  5  0.0000000  0  9G17G10G04G12G09G05G02G25G30
 -85522459.95347 -66604515.30344  23376851.7504                   23376853.9384
 -47846722.44148 -37253197.49446  20911919.9304                   20911920.0314
 -65942619.17247 -51346539.52145  21985937.1564                   21985938.0984
 -35756364.15648 -27834921.30046  21281487.6414                   21281486.8554
 -35705563.78946 -27756100.66944  23926386.6094                   23926391.8524
 -29160159.21548 -22689966.90146  21665656.8754                   21665657.3324
 -55319967.31247 -43073599.40745  20651638.3914                   20651636.1564
  -6937967.34446  -5373986.11143  23836291.6334                   23836293.9534
  -3112273.96546  -2361697.38742  23912691.0234                   23912691.3054
 11  8 26  0  5 30.0000000  0  9G17G10G04G12G09G05G02G25G30
 -85560484.19147 -66634144.63144  23369616.5704                   23369618.1334
 -47926649.53948 -37315478.32446  20896710.2344                   20896709.9614
 -65956688.64847 -51357502.78245  21983259.7664                   21983260.8794
 -35902120.32848 -27948497.49846  21253750.7814                   21253750.7704
 -35718476.02747 -27766162.31443  23923928.8754                   23923934.3244
 -29336456.21947 -22827341.10946  21632108.4694                   21632109.3054
 -55408023.46947 -43142214.57645  20634881.8754                   20634878.8834
  -7127002.56646  -5521286.25843  23800319.1564                   23800321.5044
  -3303447.52745  -2510663.82042  23876311.4924                   23876311.1914
 11  8 26  0  6  0.0000000  0  9G17G10G04G12G09G05G02G25G30
 -85598346.44147 -66663647.70044  23362411.4304                   23362413.6684
 -48005952.54348 -37377272.84346  20881619.6254                   20881619.4224
 -65970665.18047 -51368393.60445  21980600.1564                   21980601.2424
 -36047416.05947 -28061714.93646  21226102.3364                   21226101.9024
 -35731287.29347 -27776145.23943  23921490.6564                   23921497.2464
 -29512399.85547 -22964439.96146  21598627.6804                   21598628.0554
 -55495820.48847 -43210627.82545  20618174.5784                   20618170.9414
  -7315824.10946  -5668419.83242  23764388.3364                   23764389.3954
  -3494360.91445  -2659427.41842  23839982.6884                   23839981.3444
 11  8 26  0  6 30.0000000  0  9G17G10G04G12G09G05G02G25G30
 -85636046.75047 -66693024.59544  23355237.6644                   23355239.2974
 -48084632.45748 -37438581.83846  20866647.1884                   20866647.3754
 -65984551.25847 -51379213.95145  21977957.8284                   21977959.0084
 -36192249.60248 -28174572.20446  21198541.5164                   21198541.0124
 -35744001.30946 -27786052.45043  23919071.6414                   23919078.0234
 -29687987.66048 -23101261.54746  21565214.4924                   21565214.5354
 -55583360.15647 -43278840.53845  20601516.6254                   20601512.9104
  -7504429.95346  -5815385.40743  23728498.3984                   23728499.3674
  -3685011.660 5                  23803702.609
 11  8 26  0  7  0.0000000  0  9G17G10G04G12G09G05G02G25G30
 -85673585.27347 -66722275.49244  23348094.6884                   23348096.1724
 -48162690.48048 -37499406.25146  20851793.5084                   20851793.4144
 -65998348.85247 -51389965.36845  21975332.4304                   21975332.7194
 -36336619.14147 -28287067.93046  21171068.7664                   21171068.1684
 -35756621.66446 -27795886.65144  23916670.4774                   23916676.8054
 -29863217.43047 -23237804.14446  21531869.2664                   21531869.4064
 -55670643.99647 -43346853.89045  20584906.9454                   20584903.3014
  -7692817.89146  -5962181.13742  23692648.7584                   23692650.0044
  -3875397.500 5                  23767473.977
 11  8 26  0  7 30.0000000  0  9G17G10G04G12G09G05G02G25G30
 -85710965.67247 -66751403.10544  23340981.7034                   23340983.0664
 -48240130.62148 -37559749.20046  20837057.1724                   20837056.7464
 -66012063.57448 -51400652.18745  21972722.9844                   21972722.8324
 -36480526.21547 -28399203.28746  21143684.0004                   21143683.2934
 -35769155.67247 -27805653.61544  23914285.9534                   23914292.0314
 -30038090.45347 -23374068.76546  21498592.2814                   21498592.4144
 -55757676.78147 -43414671.62845  20568344.9614                   20568341.3484
  -7880988.86346  -6108807.84043  23656840.5554                   23656843.2814
  -4065519.242 5                  23731294.180
 11  8 26  0  8  0.0000000  0  9G17G10G04G12G09G05G02G25G30
 -85748182.47347 -66780403.27644  23333899.1094                   23333900.7464
 -48316949.07048 -37619607.69846  20822438.9924                   20822438.2704
 -66025692.94947 -51411272.52345  21970129.2114                   21970129.1414
 -36623964.28547 -28510973.19946  21116388.4534                   21116387.4104
 -35781602.37546 -27815352.48244  23911917.8134                   23911923.2544
 -30212599.55148 -23510049.80746  21465384.1954                   21465384.4454
 -55844455.77047 -43482291.60245  20551831.6564                   20551827.4774
  -8068936.02046  -6255260.10743  23621075.7274                   23621078.2934
  -4255369.832 5                  23695166.734
 11  8 26  0  8 30.0000000  0  9G17G10G04G12G09G05G02G25G30
 -85785238.02747 -66809277.78544  23326847.3984                   23326849.1254
 -48393148.81248 -37678984.11046  20807938.5634                   20807938.0234
 -66039241.66848 -51421830.00645  21967551.2734                   21967550.9454
 -36766934.35247 -28622378.43346  21089182.4454                   21089181.0394
 -35793967.86747 -27824988.14743  23909565.2584                   23909569.8874
 -30386744.44548 -23645747.05546  21432245.2894                   21432246.0044
 -55930984.49247 -43549716.58845  20535365.8204                   20535362.1334
  -8256659.44146  -6401538.02643  23585352.8834                   23585355.3014
  -4444949.273 5                  23659090.508
 11  8 26  0  9  0.0000000  0  9G17G10G04G12G09G05G02G25G30
 -85822129.88747 -66838024.75144  23319827.3524                   23319828.9304
 -48468728.51648 -37737877.35746  20793556.1094                   20793556.1484
 -66052709.21948 -51432324.22345  21964988.4144                   21964988.9384
 -36909432.27747 -28733415.76146  21062065.5784                   21062064.4574
 -35806253.15247 -27834561.29944  23907227.3444                   23907231.9614
 -30560520.82048 -23781157.12946  21399176.4924                   21399177.0314
 -56017262.43747 -43616946.14945  20518948.0554                   20518943.9964
  -8444154.22746  -6547637.87942  23549673.9844                   23549676.2854
  -4634252.371 6                  23623067.578
 11  8 26  0  9 30.0000000  0  9G17G10G04G12G09G05G02G25G30
 -84283436.44947 -65639042.91044  23612630.8834                   23612632.5664
 -46968266.09048 -36568685.83646  21079084.5554                   21079084.4654
 -64490677.07048 -50215156.35945  22262233.0394                   22262233.3714
 -35476031.30548 -27616479.92446  21334832.8984                   21334831.7814
 -34243041.31247 -26616474.34543  24204697.0474                   24204701.7424
 -29158500.18047 -22688673.44846  21665972.2814                   21665972.8054
 -54527867.91047 -42456378.97745  20802369.8594                   20802366.3164
  -7055991.60446  -5465952.73842  23813831.9064                   23813834.9224
  -3247850.336 6                  23886891.898
 11  8 26  0 10  0.0000000  0  9G17G10G04G12G09G05G02G25G30
 -84320000.53147 -65667534.45044  23605673.2974                   23605674.3714
 -47042608.05548 -36626614.62546  21064937.8134                   21064937.2704
 -64503988.71147 -50225529.09245  22259700.1804                   22259700.7774
 -35617579.61748 -27726777.30046  21307897.2734                   21307896.1254
 -34255177.16846 -26625931.07244  24202387.2424                   24202393.1254
 -29331532.41047 -22823503.67146  21633045.2194                   21633045.8014
 -54613648.62547 -42523221.06745  20786046.4064                   20786042.9184
  -7243022.29346  -5611690.81543  23778241.3834                   23778244.4884
  -3436593.629 6                  23850975.156
 11  8 26  0 10 30.0000000  0  9G17G10G04G12G09G05G02G25G30
 -84356401.37547 -65695898.78144  23598746.6564                   23598748.0474
 -47116333.64148 -36684063.11546  21050908.3054                   21050908.3014
 -64517226.43048 -50235844.24945  22257181.0784                   22257181.6254
 -35758651.91848 -27836703.76046  21281052.1484                   21281051.4804
 -34267244.94146 -26635334.78243  24200090.7734                   24200096.0434
 -29504190.02048 -22958041.99146  21600189.7504                   21600189.9144
 -54699184.16047 -42589872.11545  20769769.0474                   20769766.3794
  -7429818.44545  -5757246.27342  23742695.0394                   23742698.1684
  -3625054.305 6                  23815112.039
 11  8 26  0 11  0.0000000  0  9G17G10G04G12G09G05G02G25G30
 -84392637.95347 -65724135.11544  23591851.1644                   23591852.8164
 -47189442.95348 -36741031.38446  21036996.0704                   21036995.7894
 -64530391.41847 -50246102.71145  22254675.6024                   22254676.1844
 -35899244.84448 -27946256.67146  21254298.0234                   21254298.0354
 -34279247.15646 -26644687.33243  24197806.9064                   24197812.8244
 -29676469.41048 -23092285.59946  21567405.9144                   21567406.2544
 -54784474.92647 -42656332.45245  20753539.1884                   20753536.2774
  -7616376.68746  -5902616.26242  23707194.0394                   23707195.4494
  -3813228.88746  -2907895.16052  23779303.9384                   23779303.2814
 11  8 26  0 11 30.0000000  0  9G17G10G04G12G09G05G02G25G30
 -84428711.37547 -65752244.30444  23584986.4384                   23584988.1484
 -47261938.27348 -36797521.22946  21023200.6024                   21023200.3484
 -64543486.93047 -50256307.03645  22252183.6334                   22252184.8404
 -36039358.85548 -28055436.39846  21227635.2114                   21227635.5984
 -34291188.72346 -26653992.64443  24195534.6414                   24195540.4264
 -29848370.10948 -23226234.13246  21534694.1414                   21534694.5354
 -54869523.83247 -42722604.31745  20737354.6174                   20737351.9804
  -7802696.09846  -6047800.13543  23671739.4304                   23671740.4614
  -4001116.21946  -3054300.86742  23743548.9144                   23743548.7704
 11  8 26  0 12  0.0000000  0  9G17G10G04G12G09G05G02G25G30
 -84464618.96547 -65780224.26444  23578153.7584                   23578155.3324
 -47333817.57847 -36853531.05546  21009522.1724                   21009522.0204
 -64556512.20747 -50266456.65245  22249705.0474                   22249705.8874
 -36178989.07848 -28164239.14046  21201064.5634                   21201064.7234
 -34303070.25046 -26663251.24043  24193274.4844                   24193280.5984
 -30019887.12148 -23359883.67946  21502055.4064                   21502055.9184
 -54954329.65247 -42788686.76245  20721216.6884                   20721214.3554
  -7988771.36346  -6192793.74343  23636330.1024                   23636332.8634
  -4188710.91846  -3200478.46942  23707850.8054                   23707851.0514
 11  8 26  0 12 30.0000000  0  9G17G10G04G12G09G05G02G25G30
 -84500362.09047 -65808076.09444  23571352.3834                   23571354.0164
 -47405084.34448 -36909063.58346  20995960.6094                   20995960.4694
 -64569471.39547 -50276554.76245  22247239.1024                   22247240.0084
 -36318136.28948 -28272665.48846  21174585.4144                   21174585.6954
 -34314897.82046 -26672467.71044  24191023.1954                   24191030.2234
 -30191019.87948 -23493233.81146  21469489.5864                   21469490.3204
 -55038896.07847 -42854582.65845  20705124.3204                   20705121.8874
  -8174602.36746  -6337597.10643  23600968.3134                   23600969.9064
  -4376012.76246  -3346427.93742  23672208.7584                   23672208.5394
 11  8 26  0 13  0.0000000  0  9G17G10G04G12G09G05G02G25G30
 -84535939.85547 -65835799.04944  23564581.8914                   23564583.7504
 -47475738.19148 -36964118.51946  20982515.5234                   20982515.6914
 -64582365.01647 -50286601.78745  22244785.5314                   22244786.6054
 -36456797.39148 -28380713.06846  21148199.2114                   21148198.4454
 -34326673.44146 -26681643.74544  24188783.0234                   24188789.2734
 -30361765.01248 -23626281.89246  21436997.8134                   21436998.7584
 -55123223.07447 -42920292.00645  20689077.1094                   20689075.1334
  -8360185.39146  -6482207.10343  23565651.9064                   23565656.3204
  -4563017.76646  -3492145.99743  23636622.4304                   23636623.2624
 11  8 26  0 13 30.0000000  0  9G17G10G04G12G09G05G02G25G30
 -84571351.48047 -65863392.57444  23557843.4144                   23557845.0084
 -47545779.93748 -37018696.48846  20969186.8134                   20969187.3284
 -64595195.03147 -50296599.23645  22242344.0944                   22242344.8484
 -36594970.23448 -28488380.19446  21121905.5164                   21121904.2774
 -34338400.57046 -26690781.99644  24186551.6414                   24186558.5044
 -30532119.65248 -23759025.70646  21404580.7274                   21404581.1414
 -55207311.94547 -42985815.76845  20673075.4614                   20673073.3134
  -8545517.68446  -6626621.71843  23530384.0784                   23530387.5634
  -4749723.12545  -3637630.71643  23601093.8914                   23601094.2584
 11  8 26  0 14  0.0000000  0  9G17G10G04G12G09G05G02G25G30
 -84606594.94947 -65890855.03244  23551136.1724                   23551138.1684
 -47615208.78148 -37072796.87146  20955975.3594                   20955975.4144
 -64607961.18748 -50306546.94145  22239914.9384                   22239915.9614
 -36732650.87148 -28595663.78646  21095706.3054                   21095704.1884
 -34350080.44947 -26699883.40144  24184328.8364                   24184335.9844
 -30702079.46548 -23891461.85246  21372238.2814                   21372238.7304
 -55291162.08647 -43051153.52445  20657119.4844                   20657117.1174
  -8730594.83246  -6770837.57543  23495164.6024                   23495168.7114
  -4936124.24645  -3782878.36743  23565622.6484                   23565623.4414
 11  8 26  0 14 30.0000000  0  9G17G10G04G12G09G05G02G25G30
 -84641668.61746 -65918185.19844  23544461.3444                   23544465.0124
 -47684023.86748 -37126419.01246  20942880.2034                   20942880.1994
 -64620663.75847 -50316445.10445  22237497.3674                   22237498.4104
 -36869836.73048 -28702561.86146  21069600.3594                   21069598.7154
 -34361715.12147 -26708949.55444  24182115.3054                   24182122.5634
 -30871641.15248 -24023587.76246  21339971.6254                   21339971.8874
 -55374773.63347 -43116305.36645  20641208.8364                   20641206.3404
  -8915413.03146  -6914851.63843  23459995.8444                   23459998.0634
  -5122217.04346  -3927885.60542  23530211.3674                   23530209.6954
 11  8 26  0 15  0.0000000  0  9G17G10G04G12G09G05G02G25G30
 -84676572.31246 -65945382.93944  23537820.2584                   23537823.0044
 -47752226.28548 -37179563.74446  20929901.8204                   20929901.8984
 -64633304.93747 -50326295.41045  22235092.3134                   22235093.1524
 -37006526.35548 -28809073.23446  21043589.5084                   21043587.4454
 -34373308.16447 -26717983.26644  24179909.2344                   24179916.0824
 -31040802.19548 -24155401.50546  21307781.5704                   21307781.9064
 -55458148.22347 -43181272.56545  20625342.8914                   20625340.7384
  -9099969.83646  -7058662.05043  23424875.6414                   23424878.2154
  -5307999.16046  -4072650.84842  23494857.8054                   23494856.4144
 11  8 26  0 15 30.0000000  0  9G17G10G04G12G09G05G02G25G30
 -84711305.11746 -65972447.52744  23531209.9144                   23531213.4104
 -47819816.66048 -37232231.56346  20917039.6484                   20917039.8714
 -64645885.90247 -50336098.78245  22232698.3444                   22232699.0784
 -37142717.27048 -28915196.00146  21017672.8134                   21017671.7464
 -34384862.36347 -26726986.75944  24177710.6254                   24177717.0044
 -31209559.49248 -24286900.61446  21275668.0314                   21275668.2704
 -55541286.43747 -43246055.57045  20609522.3674                   20609519.9804
  -9284262.09446  -7202266.31443  23389805.9144                   23389808.3914
  -5493467.32046  -4217171.41042  23459564.5634                   23459563.1524
 11  8 26  0 16  0.0000000  0  9G17G10G04G12G09G05G02G25G30
 -84745865.32846 -65999377.61144  23524633.6024                   23524636.2274
 -47886794.93048 -37284422.41246  20904294.2814                   20904294.4494
 -64658406.75847 -50345855.33545  22230315.6564                   22230316.5664
 -37278406.35248 -29020927.74746  20991852.4224                   20991851.5664
 -34396379.42246 -26735961.31243  24175518.9844                   24175525.2974
 -31377909.40248 -24418082.29646  21243632.2664                   21243632.1254
 -55624188.10547 -43310654.25445  20593746.7424                   20593744.7464
  -9468285.82046  -7345661.35643  23354787.2664                   23354788.1724
  -5678617.18746  -4361443.99242  23424331.6254                   23424330.2234
 11  8 26  0 16 30.0000000  0  9G17G10G04G12G09G05G02G25G30
 -84780252.64546 -66026172.97244  23518090.2344                   23518093.2854
 -47953162.07848 -37336137.07346  20891664.7194                   20891665.2034
 -64670869.37547 -50355566.50945  22227944.2274                   22227944.9104
 -37413591.82848 -29126267.04646  20966127.3364                   20966127.0274
 -34407863.02746 -26744909.77943  24173333.5394                   24173340.0514
 -31545849.28148 -24548944.46846  21211673.9384                   21211674.0314
 -55706854.66047 -43375069.72845  20578015.7274                   20578013.5204
  -9652038.43746  -7488845.11342  23319819.4774                   23319821.3164
  -5863446.19546  -4505466.50842  23389159.8984                   23389158.5394
 11  8 26  0 17  0.0000000  0  9G17G10G04G12G09G05G02G25G30
 -84814469.67246 -66052835.63444  23511579.3834                   23511581.3364
 -48018921.90248 -37387378.47546  20879151.1954                   20879151.4574
 -64683278.24647 -50365235.80545  22225582.7114                   22225583.2934
 -37548274.70748 -29231214.72346  20940497.6094                   20940497.5434
 -34419319.36746 -26753837.08343  24171153.6254                   24171160.2504
 -31713379.87948 -24679487.72946  21179793.7424                   21179794.2974
 -55789290.35547 -43439305.30345  20562328.6334                   20562326.9104
  -9835520.41046  -7631818.00042  23284903.8914                   23284905.5434
  -6047954.57846  -4649239.10542  23354049.3444                   23354048.3444
 11  8 26  0 17 30.0000000  0  9G17G10G04G12G09G05G02G25G30
 -84848515.98446 -66079365.27144  23505099.9844                   23505102.5164
 -48084075.51648 -37438147.51846  20866752.8984                   20866753.1024
 -64695635.14147 -50374864.55745  22223231.2664                   22223232.1214
 -37682453.40648 -29335769.53746  20914964.2504                   20914964.5634
 -34430751.45746 -26762745.39343  24168978.9384                   24168985.7504
 -31880498.60548 -24809710.04346  21147992.3054                   21147992.2894
 -55871496.65647 -43503362.15145  20546685.3134                   20546683.6414
 -10018728.99246  -7774577.90642  23250040.1724                   23250042.1804
  -6232139.61346  -4792759.88742  23318999.8284                   23318998.2384
 11  8 26  0 18  0.0000000  0  9G17G10G04G12G09G05G02G25G30
 -83306969.90246 -64878160.56844  23798446.8524                   23798449.2974
 -46573201.55947 -36260843.13546  21154262.6724                   21154262.7814
 -63132520.89147 -49156853.47045  22520681.8834                   22520682.7464
 -36240701.50048 -28212326.47746  21189320.7114                   21189320.5394
 -32866741.87546 -25544036.83343  24466599.2274                   24466606.6884
 -30471777.35948 -23712005.11446  21416063.1414                   21416063.3244
 -54378051.44147 -42339638.59645  20830878.7034                   20830876.1484
  -8626235.05146  -6689517.56843  23515024.2504                   23515026.5594
  -4840572.00446  -3708421.37942  23583806.0234                   23583803.5904
 11  8 26  0 18 30.0000000  0  9G17G10G04G12G09G05G02G25G30
 -83340671.93446 -64904421.95944  23792033.0784                   23792036.1724
 -46637143.94947 -36310668.36346  21142094.9064                   21142094.8914
 -63144776.34847 -49166403.20545  22518350.2894                   22518351.0474
 -36373864.73048 -28316090.00847  21163980.7974                   21163980.2734
 -32878133.16446 -25552913.42443  24464431.8524                   24464438.9264
 -30638063.11348 -23841578.36646  21384420.1174                   21384419.8244
 -54459799.91847 -42403338.67245  20815322.4304                   20815319.8794
  -8808886.82046  -6831843.58343  23480266.6334                   23480268.9654
  -5024099.82446  -3851430.01642  23548881.8364                   23548880.3834
 11  8 26  0 19  0.0000000  0  9G17G10G04G12G09G05G02G25G30
 -83374199.30546 -64930547.24344  23785653.6094                   23785656.0744
 -46700480.32447 -36360021.37046  21130041.9224                   21130042.1994
 -63156981.69947 -49175913.88145  22516027.3594                   22516028.0204
 -36506515.68448 -28419454.38647  21138737.9774                   21138737.4964
 -32889507.16046 -25561776.47843  24462268.2974                   24462275.0354
 -30803926.73448 -23970822.68446  21352857.0084                   21352857.1454
 -54541319.57847 -42466860.46245  20799809.6954                   20799807.5004
  -8991254.39846  -6973948.13243  23445563.7034                   23445565.0634
  -5207293.18046  -3994177.99242  23514021.7894                   23514020.1724
 11  8 26  0 19 30.0000000  0  9G17G10G04G12G09G05G02G25G30
 -83407551.54746 -64956536.05344  23779307.2974                   23779309.6644
 -46763211.91047 -36408903.12546  21118105.1724                   21118104.7624
 -63169138.53147 -49185386.74745  22513714.1644                   22513714.7704
 -36638652.43448 -28522418.09847  21113593.2194                   21113592.3954
 -32900867.01646 -25570628.53543  24460106.7814                   24460113.5744
 -30969366.28948 -24099736.55146  21321374.5164                   21321374.5704
 -54622611.69547 -42530204.95045  20784340.2194                   20784338.1094
  -9173335.23046  -7115829.26143  23410913.6644                   23410915.9024
  -5390149.33246  -4136663.19942  23479224.3674                   23479223.7974
 11  8 26  0 20  0.0000000  0  9G17G10G04G12G09G05G02G25G30
 -83440726.84046 -64982386.96444  23772994.2974                   23772996.2304
 -46825338.10247 -36457313.12846  21106282.4144                   21106282.0824
 -63181246.76247 -49194821.74045  22511410.0704                   22511410.4884
 -36770271.78948 -28624978.62247  21088547.0554                   21088546.1994
 -32912214.30146 -25579470.79643  24457947.5944                   24457954.6764
 -31134377.25048 -24228316.45546  21289973.8674                   21289974.1644
 -54703675.86347 -42593371.80845  20768914.2274                   20768911.4494
  -9355124.92646  -7257483.46043  23376320.7114                   23376323.0204
  -5572663.85546  -4278882.26242  23444492.8834                   23444492.9144
 11  8 26  0 20 30.0000000  0  9G17G10G04G12G09G05G02G25G30
 -83473723.89146 -65008099.00444  23766714.9304                   23766717.1914
 -46886859.45347 -36505251.83246  21094575.4844                   21094574.8164
 -63193307.22347 -49204219.50345  22509114.6094                   22509115.7154
 -36901371.80948 -28727134.49647  21063599.3524                   21063598.2384
 -32923551.52345 -25588305.28043  24455790.5314                   24455797.6174
 -31298956.77048 -24356560.17246  21258655.6334                   21258655.6724
 -54784512.60247 -42656361.44045  20753531.7344                   20753528.5944
  -9536620.15646  -7398908.29743  23341782.2664                   23341785.7194
  -5754833.20345  -4420832.34042  23409827.0704                   23409827.5164
 11  8 26  0 21  0.0000000  0  9G17G10G04G12G09G05G02G25G30
 -83506544.80546 -65033673.80444  23760469.1724                   23760471.2424
 -46947779.44148 -36552721.93846  21082982.6804                   21082982.7274
 -63205323.46947 -49213582.83544  22506828.1024                   22506828.7734
 -37031952.88348 -28828885.97547  21038750.2424                   21038749.9734
 -32934883.68446 -25597135.77744  24453634.0704                   24453641.7074
 -31463104.60548 -24484467.53346  21227419.5394                   21227419.1524
 -54865125.26647 -42719176.48045  20738191.7504                   20738188.3914
  -9717820.32846  -7540103.16443  23307301.9694                   23307304.6564
  -5936656.72745  -4562512.88742  23375227.4844                   23375228.2424
 11  8 26  0 21 30.0000000  0  9G17G10G04G12G09G05G02G25G30
 -83539189.46146 -65059111.26244  23754257.6644                   23754258.9844
 -47008099.63748 -36599724.68246  21071504.7274                   21071503.9344
 -63217297.43447 -49222913.23145  22504549.5314                   22504550.7274
 -37162013.67648 -28930232.04347  21014000.8674                   21014000.0824
 -32946214.62146 -25605965.32344  24451478.1804                   24451485.3594
 -31626818.69948 -24612036.89346  21196265.0864                   21196265.6524
 -54945515.60947 -42781818.30545  20722893.4384                   20722890.2934
  -9898723.23446  -7681066.43843  23272877.1174                   23272879.6954
  -6118132.19545  -4703922.24642  23340692.8524                   23340694.2344
 11  8 26  0 22  0.0000000  0  9G17G10G04G12G09G05G02G25G30
 -83571658.15246 -65084411.57844  23748079.1484                   23748080.8054
 -47067821.85948 -36646261.44946  21060139.6484                   21060139.1054
 -63229231.31647 -49232212.37645  22502279.0704                   22502279.9494
 -37291553.20748 -29031171.93547  20989350.2114                   20989349.8524
 -32957548.28946 -25614797.01344  24449321.7504                   24449329.0984
 -31790097.41048 -24739266.98546  21165194.3054                   21165194.8134
 -55025685.74647 -42844288.52345  20707637.8754                   20707634.6764
 -10079326.94147  -7821796.53844  23238509.4924                   23238512.3984
  -6299257.47345  -4845058.79743  23306225.8134                   23306226.3204
 11  8 26  0 22 30.0000000  0  9G17G10G04G12G09G05G02G25G30
 -83603951.36347 -65109575.14744  23741933.3914                   23741935.7974
 -47126947.76248 -36692333.56746  21048888.1884                   21048888.1954
 -63241127.43747 -49241482.12645  22500014.7114                   22500016.1374
 -37420569.84848 -29131704.37847  20964799.2974                   20964798.5354
 -32968888.21146 -25623633.53943  24447163.6724                   24447170.7854
 -31952938.77048 -24866156.30946  21134206.6024                   21134206.7814
 -55105636.77347 -42906588.01545  20692423.3284                   20692420.1884
 -10259629.30146  -7962291.87243  23204199.3914                   23204201.8554
  -6480030.45746  -4985920.75442  23271826.9844                   23271826.0204
 11  8 26  0 23  0.0000000  0  9G17G10G04G12G09G05G02G25G30
 -83636070.70747 -65134603.29444  23735822.0164                   23735824.8594
 -47185481.03948 -36737943.90246  21037749.6334                   21037749.1724
 -63252988.99247 -49250724.89644  22497757.8134                   22497758.6884
 -37549064.62148 -29231830.16647  20940347.5864                   20940346.8364
 -32980239.37146 -25632478.84943  24445003.9694                   24445011.1524
 -32115342.90248 -24992704.91746  21103302.3674                   21103302.4654
 -55185372.39547 -42968719.65345  20677250.0784                   20677246.9614
 -10439629.71546  -8102551.89343  23169945.6254                   23169948.3284
  -6660450.25846  -5126507.55443  23237494.5864                   23237493.0864
 11  8 26  0 23 30.0000000  0  9G17G10G04G12G09G05G02G25G30
 -83668015.86347 -65159495.68244  23729743.3054                   23729745.6914
 -47243423.29748 -36783093.71546  21026723.4454                   21026723.3874
 -63264817.71547 -49259942.09944  22495506.7584                   22495507.6884
 -37677036.32048 -29331548.36947  20915995.4924                   20915994.8164
 -32991605.06646 -25641335.54143  24442841.5084                   24442848.9734
 -32277307.45348 -25118911.01046  21072481.6804                   21072481.7504
 -55264893.53947 -43030684.15545  20662117.9534                   20662114.2854
 -10619325.73446  -8242574.67743  23135750.3284                   23135753.2464
  -6840514.52046  -5266817.34043  23203228.2814                   23203228.4414
 11  8 26  0 24  0.0000000  0  9G17G10G04G12G09G05G02G25G30
 -83699784.82846 -65184250.75644  23723697.6484                   23723700.0474
 -47300774.14848 -36827782.66646  21015810.2194                   21015809.8794
 -63276613.41847 -49269133.58244  22493262.0164                   22493263.3324
 -37804482.08648 -29430856.73947  20891743.0784                   20891742.4924
 -33002987.23046 -25650205.03444  24440675.5084                   24440682.8244
 -32438828.45348 -25244771.48146  21041745.0314                   21041745.1484
 -55344200.40247 -43092481.70845  20647026.0084                   20647022.5314
 -10798713.03946  -8382356.96543  23101614.9304                   23101615.1174
  -7020218.81646  -5406846.58143  23169032.0234                   23169032.2034
 11  8 26  0 24 30.0000000  0  9G17G10G04G12G09G05G02G25G30
 -83731377.65246 -65208868.60844  23717685.5634                   23717688.5554
 -47357535.16848 -36872012.03646  21005008.8364                   21005008.8834
 -63288377.95347 -49278300.77144  22491023.5394                   22491024.4024
 -37931400.05948 -29529753.84847  20867591.4924                   20867590.6914
 -33014389.09846 -25659089.85343  24438505.6804                   24438514.5594
 -32599904.10948 -25370284.92246  21011093.2274                   21011093.5664
 -55423294.42647 -43154113.40845  20631974.7584                   20631971.9614
 -10977789.44546  -8521897.01143  23067537.7664                   23067538.5274
  -7199560.78946  -5546593.52043  23134904.4144                   23134903.8754
 11  8 26  0 25  0.0000000  0  9G17G10G04G12G09G05G02G25G30
 -83762793.21147 -65233348.30344  23711707.3914                   23711709.8014
 -47413706.57048 -36915781.94446  20994319.6564                   20994319.4494
 -63300112.00847 -49287444.20045  22488790.6414                   22488791.4414
 -38057787.96948 -29628237.91647  20843540.5474                   20843540.0474
 -33025812.66046 -25667991.64143  24436332.6564                   24436340.5044
 -32760531.23048 -25495448.85446  20980527.0864                   20980527.3134
 -55502175.68747 -43215579.32445  20616964.4454                   20616961.1214
 -11156551.34046  -8661191.97043  23033520.2734                   23033522.2074
  -7378536.82046  -5686055.25442  23100846.1644                   23100846.7424
 11  8 26  0 25 30.0000000  0  9G17G10G04G12G09G05G02G25G30
 -83794030.18747 -65257688.85644  23705763.6414                   23705765.6644
 -47469289.55548 -36959093.35746  20983742.8834                   20983742.1804
 -63311816.12547 -49296564.34245  22486563.1884                   22486564.5274
 -38183643.65648 -29726307.27247  20819590.8754                   20819590.2034
 -33037260.37146 -25676912.23244  24434154.1644                   24434163.4304
 -32920707.02348 -25620261.10246  20950046.3204                   20950046.4574
 -55580845.13347 -43276880.18045  20601994.1884                   20601990.8754
 -11334995.44947  -8800239.27843  22999563.6804                   22999565.8954
  -7557143.59046  -5825229.30043  23066859.0314                   23066858.1804
 11  8 26  0 26  0.0000000  0  9G17G10G04G12G09G05G02G25G30
 -83825087.61746 -65281889.49144  23699853.1884                   23699855.7274
 -47524284.01648 -37001946.17346  20973277.4064                   20973276.9774
 -63323490.20347 -49305661.06845  22484342.3444                   22484343.2384
 -38308964.19148 -29823959.61547  20795743.3134                   20795742.0234
 -33048734.14847 -25685853.10744  24431971.2194                   24431979.5554
 -33080427.66848 -25744718.68946  20919652.4454                   20919652.4804
 -55659302.08648 -43338015.46645  20587064.5474                   20587060.9924
 -11513117.72347  -8939035.82343  22965668.3364                   22965670.0664
  -7735376.82846  -5964112.29143  23032941.7664                   23032940.9264
 11  8 26  0 26 30.0000000  0  9G17G10G04G12G09G05G02G25G30
 -82280542.28146 -64078347.72244  23993770.5554                   23993772.4024
 -46003268.23448 -35816739.06546  21262717.2894                   21262716.6174
 -61759714.09047 -48087134.26144  22781919.0314                   22781920.0594
 -36858322.69148 -28693589.59847  21071791.2584                   21071790.0434
 -31484815.19147 -24467215.20944  24729575.5234                   24729584.0434
 -31664264.14148 -24641214.59646  21189139.4694                   21189139.5434
 -54162123.66448 -42171382.92345  20871967.9064                   20871964.4964
 -10115488.17246  -7849973.82343  23231627.9924                   23231629.2934
  -6337806.57046  -4875096.59143  23298890.4844                   23298887.5984
 11  8 26  0 27  0.0000000  0  9G17G10G04G12G09G05G02G25G30
 -82311235.29346 -64102264.38744  23987929.5004                   23987931.5514
 -46057086.39148 -35858675.27546  21252475.8754                   21252475.3634
 -61771328.96947 -48096184.85644  22779708.8054                   22779709.3674
 -36982565.33648 -28790402.02847  21048148.6724                   21048147.1604
 -31496346.39147 -24476200.76543  24727381.7974                   24727389.4574
 -31823064.11348 -24764954.78146  21158920.6564                   21158920.6994
 -54240155.70348 -42232187.09246  20857119.1484                   20857116.0274
 -10292955.12547  -7988259.72543  23197856.5234                   23197859.1054
  -6515281.14146  -5013388.38443  23265118.1334                   23265115.7194
 11  8 26  0 27 30.0000000  0  9G17G10G04G12G09G05G02G25G30
 -82341746.98446 -64126039.76443  23982123.8284                   23982125.5634
 -46110320.24248 -35900156.19646  21242346.0234                   21242345.4104
 -61782917.80947 -48105215.13244  22777503.5634                   22777504.0984
 -37106268.47348 -28886794.06347  21024608.6414                   21024607.5004
 -31507912.27046 -24485213.47543  24725179.7974                   24725188.8674
 -31981402.00048 -24888334.89246  21128789.9614                   21128790.2384
 -54317978.79748 -42292828.46346  20842309.7734                   20842306.8834
 -10470092.07047  -8126288.44343  23164148.9694                   23164151.4454
  -6692373.82446  -5151382.56242  23231417.5474                   23231416.9924
 11  8 26  0 28  0.0000000  0  9G17G10G04G12G09G05G02G25G30
 -82372077.51646 -64149673.95244  23976352.3594                   23976354.3284
 -46162971.68748 -35941183.28146  21232326.5944                   21232326.0004
 -61794482.52047 -48114226.62244  22775302.5784                   22775303.2464
 -37229431.08248 -28982764.92347  21001171.5314                   21001170.4804
 -31519516.29746 -24494255.92243  24722973.0394                   24722980.2274
 -32139276.19948 -25011353.69346  21098747.5314                   21098747.9414
 -54395594.54748 -42353308.26146  20827540.1884                   20827537.3094
 -10646896.84447  -8264058.44943  23130504.5474                   23130506.1954
  -6869082.50846  -5289077.59743  23197792.0084                   23197791.0004
 11  8 26  0 28 30.0000000  0  9G17G10G04G12G09G05G02G25G30
 -82402227.75046 -64173167.69944  23970614.6254                   23970617.0234
 -46215042.63748 -35981758.04746  21222417.9774                   21222417.5204
 -61806024.83247 -48123220.66544  22773106.2814                   22773106.8914
 -37352052.14148 -29078313.78547  20977837.6024                   20977836.8634
 -31531161.91446 -24503330.67943  24720756.8444                   24720763.8054
 -32296685.09048 -25134009.90646  21068793.5394                   21068793.5084
 -54473004.78148 -42413627.91246  20812809.3914                   20812806.5904
 -10823367.24247  -8401567.77644  23096923.2034                   23096925.4024
  -7045405.00446  -5426471.70343  23164238.2114                   23164239.1804
 11  8 26  0 29  0.0000000  0  9G17G10G04G12G09G05G02G25G30
 -82432195.32846 -64196519.06344  23964912.2344                   23964914.0944
 -46266532.96548 -36021880.35546  21212619.7034                   21212619.4224
 -61817544.35947 -48132196.93444  22770914.1414                   22770914.4384
 -37474128.73048 -29173438.38247  20954607.3754                   20954606.7384
 -31542850.78546 -24512439.16442  24718532.0554                   24718540.6884
 -32453624.59848 -25256300.36046  21038928.7424                   21038928.6644
 -54550208.84048 -42473786.91346  20798118.0554                   20798115.5274
 -10999499.01247  -8538813.31944  23063406.4774                   23063407.9454
  -7221336.83246  -5563561.41143  23130759.6644                   23130760.6844
 11  8 26  0 29 30.0000000  0  9G17G10G04G12G09G05G02G25G30
 -82461979.55546 -64219727.52744  23959244.3284                   23959246.8634
 -46317444.03948 -36061551.31946  21202931.5634                   21202931.3014
 -61829042.40647 -48141156.50044  22768726.0784                   22768726.7504
 -37595659.08648 -29268137.35247  20931480.7734                   20931480.1024
 -31554585.62546 -24521583.52743  24716299.3524                   24716308.3984
 -32610092.60548 -25378223.44146  21009154.0474                   21009154.2544
 -54627207.57048 -42533785.90946  20783465.7504                   20783463.4614
 -11175289.19147  -8675792.68743  23029953.9534                   23029955.9144
  -7396875.21546  -5700344.55443  23097356.6954                   23097356.4414
 11  8 26  0 30  0.0000000  0  9G17G10G04G12G09G05G02G25G30
 -82491579.85246 -64242792.70944  23953611.9844                   23953613.8284
 -46367777.09848 -36100771.86146  21193353.5784                   21193353.4064
 -61840519.53947 -48150099.73944  22766542.1724                   22766542.6054
 -37716641.71148 -29362409.51647  20908458.5314                   20908458.0944
 -31566368.93046 -24530765.64343  24714057.5234                   24714065.9414
 -32766086.17248 -25499776.81446  20979469.3134                   20979469.1454
 -54704001.36348 -42593625.22246  20768852.3284                   20768849.9414
 -11350734.69147  -8812503.39744  22996568.3754                   22996570.0274
  -7572016.74246  -5836818.40243  23064028.0864                   23064028.4804
 11  8 26  0 30 30.0000000  0  9G17G10G04G12G09G05G02G25G30
 -82520995.30646 -64265713.90544  23948014.5704                   23948016.3204
 -46417533.30948 -36139542.92946  21183885.0554                   21183885.0864
 -61851976.50047 -48159027.25044  22764362.4144                   22764362.1884
 -37837074.61748 -29456253.32947  20885540.7424                   20885540.3834
 -31578203.05146 -24539987.30043  24711804.9454                   24711813.9224
 -32921602.68048 -25620958.44746  20949875.4224                   20949875.3054
 -54780591.26248 -42653305.65846  20754277.8984                   20754275.6644
 -11525832.34047  -8948943.11343  22963248.5314                   22963250.5394
  -7746758.38346  -5972980.71143  23030775.3834                   23030775.8134
 11  8 26  0 31  0.0000000  0  9G17G10G04G12G09G05G02G25G30
 -82550224.53146 -64288489.91644  23942452.3984                   23942454.5354
 -46466713.10548 -36177864.83046  21174526.3524                   21174526.5394
 -61863413.34047 -48167939.13244  22762185.7194                   22762186.5044
 -37956955.32048 -29549666.85747  20862728.4454                   20862727.7974
 -31590089.65246 -24549250.02643  24709544.1094                   24709552.7584
 -33076638.88348 -25741765.83046  20920373.0864                   20920373.2344
 -54856977.07048 -42712827.05246  20739741.9454                   20739739.9184
 -11700578.26647  -9085108.71444  22929994.8594                   22929997.6374
  -7921096.20746  -6108828.38243  22997599.9924                   22997600.0084
 11  8 26  0 31 30.0000000  0  9G17G10G04G12G09G05G02G25G30
 -82579269.67246 -64311122.47444  23936925.1254                   23936927.4024
 -46515320.24648 -36215740.51946  21165276.4144                   21165276.4844
 -61874833.77347 -48176838.21544  22760012.2664                   22760013.6684
 -38076285.05948 -29642651.04947  20840020.3674                   20840019.8524
 -31602033.96546 -24558557.56243  24707271.9774                   24707280.1134
 -33231195.27748 -25862199.32146  20890961.6954                   20890962.2074
 -54933162.21548 -42772192.09946  20725244.1884                   20725242.1524
 -11874972.19147  -9221000.04744  22896808.8364                   22896811.2074
  -8095029.85247  -6244361.06943  22964502.3594                   22964501.3954
 11  8 26  0 32  0.0000000  0  9G17G10G04G12G09G05G02G25G30
 -82608125.50446 -64333607.56044  23931433.9614                   23931435.7274
 -46563351.66848 -36253167.59146  21156136.7424                   21156136.8094
 -61886234.10947 -48185721.63344  22757843.1094                   22757843.6374
 -38195057.47348 -29735200.98947  20817418.7584                   20817417.9734
 -31614034.16446 -24567908.70543  24704988.5944                   24704996.8094
 -33385264.83248 -25982253.46147  20861643.5784                   20861643.8014
 -55009142.98848 -42831397.88746  20710785.3594                   20710783.0234
 -12049006.73847  -9356611.34444  22863691.0314                   22863693.7974
  -8268551.94147  -6379573.05843  22931481.3444                   22931481.7234
 11  8 26  0 32 30.0000000  0  9G17G10G04G12G09G05G02G25G30
 -82636795.41446 -64355947.76844  23925977.5784                   23925980.4494
 -46610813.04748 -36290150.48446  21147105.2664                   21147105.0984
 -61897619.52747 -48194593.43644  22755676.1484                   22755678.2544
 -38313274.85948 -29827318.41847  20794922.7344                   20794921.9804
 -31626097.03546 -24577308.70043  24702693.7504                   24702701.3874
 -33538849.28548 -26101929.59547  20832417.2344                   20832416.8834
 -55084924.51248 -42890448.41446  20696364.8674                   20696362.6484
 -12222683.05947  -9491943.44944  22830641.9924                   22830644.4884
  -8441663.64847  -6514465.27443  22898539.3914                   22898540.3524
 11  8 26  0 33  0.0000000  0  9G17G10G04G12G09G05G02G25G30
 -82665281.50446 -64378144.78244  23920557.8134                   23920560.1414
 -46657707.81248 -36326691.84746  21138181.3754                   21138181.2194
 -61908993.07447 -48203455.99844  22753512.2344                   22753513.3134
 -38430938.44548 -29919004.32147  20772532.4454                   20772531.5044
 -31638227.02546 -24586760.84743  24700386.0864                   24700394.3244
 -33691948.37548 -26221227.53147  20803283.6094                   20803283.1094
 -55160509.60948 -42949345.88646  20681981.1024                   20681979.0634
 -12396000.36347  -9626995.81044  22797660.3594                   22797662.1294
  -8614364.00847  -6649036.95543  22865675.8674                   22865676.2734
 11  8 26  0 33 30.0000000  0  9G17G10G04G12G09G05G02G25G30
 -82693585.26246 -64400199.70144  23915171.5634                   23915174.6134
 -46704039.99247 -36362794.83046  21129364.8284                   21129363.6844
 -61920357.91447 -48212311.75444  22751349.7814                   22751350.6954
 -38548049.09848 -30010259.36247  20750246.8524                   20750245.5904
 -31650429.41046 -24596269.49943  24698063.1724                   24698072.4804
 -33844561.96948 -26340147.15747  20774242.2894                   20774241.6484
 -55235901.65648 -43008092.92046  20667634.5634                   20667632.2424
 -12568958.26247  -9761768.12344  22764747.5864                   22764749.1374
  -8786652.69947  -6783287.85643  22832890.5704                   22832891.0314
 11  8 26  0 34  0.0000000  0  9G17G10G04G12G09G05G02G25G30
 -82721702.43746 -64422109.26844  23909820.8204                   23909823.7854
 -46749806.98448 -36398457.42046  21120655.5784                   21120654.7274
 -61931711.24647 -48221158.55945  22749189.3364                   22749190.0514
 -38664601.26248 -30101079.22247  20728067.9844                   20728066.4804
 -31662702.83246 -24605833.49843  24695727.8054                   24695737.5124
 -33996684.43048 -26458684.07746  20745293.9384                   20745293.6914
 -55311097.60548 -43066687.16346  20653325.2974                   20653323.0004
 -12741549.89547  -9896255.03644  22731904.1414                   22731906.0704
  -8958522.80547  -6917212.60543  22800184.1094                   22800184.9654
 11  8 26  0 34 30.0000000  0  9G17G10G04G12G09G05G02G25G30
 -82749632.85546 -64443873.27544  23904505.5394                   23904508.3094
 -46795010.78948 -36433681.15246  21112053.7974                   21112052.7974
 -61943054.46547 -48229997.49644  22747030.5394                   22747031.7854
 -38780594.15648 -30191463.29447  20705995.1804                   20705993.8984
 -31675050.64846 -24615455.44843  24693378.5704                   24693387.6884
 -34148313.64148 -26576836.65747  20716439.7894                   20716439.6294
 -55386098.66448 -43125129.55446  20639053.3054                   20639050.5164
 -12913773.00847 -10030454.79744  22699131.4534                   22699132.5234
  -9129971.98447  -7050809.32143  22767558.9844                   22767559.5634
 11  8 26  0 35  0.0000000  0  9G17G10G04G12G09G05G02G25G30
 -81201956.68047 -63237891.86444  24199019.0784                   24199020.7974
 -45264232.81648 -35240867.14446  21403351.0704                   21403350.4774
 -60378969.41047 -47011229.95845  23044666.6094                   23044667.4064
 -37320603.47348 -29053808.21147  20983822.2584                   20983820.7384
 -30112056.14846 -23397538.01343  24990806.4064                   24990816.3014
 -32724023.77048 -25467000.33946  20987472.9844                   20987473.0554
 -53885484.52748 -41955819.81046  20924610.4534                   20924607.6644
 -11510200.17247  -8936761.60344  22966222.1174                   22966224.3984
  -7725572.94947  -5956472.38143  23034806.6094                   23034807.3134
 11  8 26  0 35 30.0000000  0  9G17G10G04G12G09G05G02G25G30
 -81229514.29347 -63259365.32044  24193775.3754                   24193775.9264
 -45308316.61347 -35275218.15346  21394962.4144                   21394961.7384
 -60390296.70747 -47020056.48345  23042510.8524                   23042512.1454
 -37435475.21948 -29143318.65547  20961962.7584                   20961961.7384
 -30124561.66846 -23407282.83243  24988426.6254                   24988436.1094
 -32874661.84448 -25584380.59846  20958807.6094                   20958807.7074
 -53960100.47348 -42013962.10547  20910411.4614                   20910408.4774
 -11681679.09447  -9070381.42644  22933590.9224                   22933593.7544
  -7896173.32046  -6089407.66743  23002342.3674                   23002342.5234
 11  8 26  0 36  0.0000000  0  8G17G10G04G12G05G02G25G30
 -81256885.71947 -63280693.76843  24188567.0314                   24188566.4694
 -45351843.83647 -35309135.48246  21386679.1644                   21386679.1564
 -60401618.33647 -47028878.55545  23040356.9454                   23040357.5204
 -37549785.59048 -29232391.66547  20940210.1174                   20940209.3364
 -33024802.02048 -25701372.88046  20930236.9694                   20930236.6914
 -54034525.72348 -42071955.79447  20896248.9534                   20896245.7814
 -11852782.85547  -9203708.95644  22901031.0554                   22901033.6024
  -8066346.14546  -6222009.83043  22969959.0784                   22969958.6334
 11  8 26  0 36 30.0000000  0  8G17G10G04G12G05G02G25G30
 -81284068.16847 -63301874.91443  24183393.9454                   24183393.7974
 -45394814.08247 -35342618.79446  21378502.3054                   21378501.9224
 -60412933.30947 -47037695.44545  23038203.3054                   23038204.2384
 -37663530.85248 -29321024.31947  20918565.3524                   20918564.2664
 -33174439.70348 -25817973.61747  20901761.7894                   20901761.5634
 -54108759.00848 -42129799.90947  20882122.8754                   20882119.6604
 -12023506.30547  -9336740.12244  22868542.5084                   22868545.7664
  -8236086.25847  -6354274.76943  22937659.2424                   22937658.3284
 11  8 26  0 37  0.0000000  0  8G17G10G04G12G05G02G25G30
 -81311054.12946 -63322902.90043  24178257.7814                   24178260.1484
 -45437221.82848 -35375663.80645  21370432.4224                   21370432.1644
 -60424234.93447 -47046501.94344  23036053.0864                   23036053.8364
 -37776702.59448 -29409210.09047  20897029.3524                   20897028.1954
 -33323565.96948 -25934175.85746  20873383.8284                   20873383.7814
 -54182794.47348 -42187489.87147  20868034.3054                   20868031.0124
 -12193839.60947  -9469467.34644  22836129.6334                   22836132.1254
  -8405383.86346  -6486194.98043  22905442.9454                   22905441.8204
 11  8 26  0 37 30.0000000  0  8G17G10G04G12G05G02G25G30
 -81337842.55946 -63343777.03243  24173160.4924                   24173162.9454
 -45479067.60248 -35408270.91146  21362469.5004                   21362468.7344
 -60435523.55947 -47055298.31044  23033904.1414                   23033905.7774
 -37889298.64148 -29496947.26147  20875602.8914                   20875601.8874
 -33472177.64548 -26049977.09946  20845103.9064                   20845103.7274
 -54256632.01248 -42245025.62347  20853983.8054                   20853980.3404
 -12363779.02047  -9601887.59444  22803791.9304                   22803793.1334
  -8574235.14146  -6617767.32043  22873311.6644                   22873311.6644
 11  8 26  0 38  0.0000000  0  8G17G10G04G12G05G02G25G30
 -81364431.99646 -63364496.06943  24168101.8444                   24168102.7424
 -45520352.13348 -35440440.69346  21354613.0474                   21354612.7424
 -60446798.85546 -47064084.32444  23031758.4844                   23031760.0984
 -38001316.84448 -29584234.18047  20854286.7194                   20854285.9224
 -33620271.72348 -26165375.04047  20816922.5784                   20816922.5864
 -54330271.29748 -42302406.86947  20839970.4924                   20839967.2704
 -12533320.72747  -9733997.95344  22771528.7814                   22771529.5554
  -8742636.37146  -6748988.98643  22841266.2344                   22841266.2154
 11  8 26  0 38 30.0000000  0  8G17G10G04G12G05G02G25G30
 -81390826.23846 -63385063.10443  24163079.0004                   24163080.8674
 -45561082.12948 -35472178.36045  21346862.9384                   21346861.8404
 -60458066.62147 -47072864.46644  23029614.4144                   23029616.0824
 -38112761.35948 -29671074.06747  20833079.0314                   20833078.4614
 -33767851.04348 -26280371.85346  20788838.9384                   20788839.2504
 -54403718.27748 -42359638.27647  20825994.3524                   20825990.8954
 -12702466.96947  -9865800.18344  22739340.9924                   22739342.5474
  -8910589.81647  -6879861.69244  22809305.9844                   22809306.2544
 11  8 26  0 39  0.0000000  0  8G17G10G04G12G05G02G25G30
 -81417025.47746 -63405478.15643  24158093.2424                   24158095.4264
 -45601258.80548 -35503484.87145  21339217.1564                   21339215.9774
 -60469327.27146 -47081639.07844  23027471.8134                   23027473.5204
 -38223629.70748 -29757464.97947  20811981.6024                   20811981.1094
 -33914912.95748 -26394965.50847  20760853.9224                   20760854.1524
 -54476973.10548 -42416719.96447  20812054.3284                   20812051.2934
 -12871214.37147  -9997291.64644  22707229.4694                   22707231.2194
  -9078092.06647  -7010382.82044  22777430.7894                   22777431.1024
 11  8 26  0 39 30.0000000  0  8G17G10G04G12G05G02G25G30
 -81443032.80146 -63425743.65943  24153143.2974                   24153146.6024
 -45640888.23448 -35534364.94145  21331676.1094                   21331674.3054
 -60480585.82847 -47090411.99544  23025329.9694                   23025330.7344
 -38333925.42648 -29843409.69647  20790993.1644                   20790992.3954
 -34061459.75848 -26509157.76247  20732967.2114                   20732967.2234
 -54550040.79748 -42473655.83047  20798150.0784                   20798146.8364
 -13039564.30147 -10128473.37544  22675193.7424                   22675195.6564
  -9245144.55547  -7140553.50744  22745641.2734                   22745641.3594
 11  8 26  0 40  0.0000000  0  8G17G10G04G12G05G02G25G30
 -81468849.89146 -63445860.90643  24148230.1724                   24148233.7974
 -45679973.50048 -35564821.00345  21324238.2584                   21324236.8484
 -60491844.52346 -47099185.04844  23023187.2034                   23023188.4804
 -38443648.69948 -29928908.34647  20770113.4144                   20770112.8524
 -34207490.99648 -26622948.29247  20705178.4844                   20705178.3874
 -54622923.86748 -42530447.84047  20784280.6644                   20784277.7504
 -13207515.68047 -10259344.55644  22643233.6804                   22643235.6214
  -9411746.21947  -7270372.93144  22713938.8524                   22713938.4844
 11  8 26  0 40 30.0000000  0  8G17G10G04G12G05G02G25G30
 -81494474.57846 -63465828.26543  24143354.4454                   24143358.0124
 -45718515.14848 -35594853.46745  21316903.8204                   21316903.0634
 -60503103.04747 -47107957.95144  23021045.0704                   23021045.9804
 -38552797.30548 -30013959.21746  20749343.1024                   20749342.8134
 -34353003.29748 -26736334.45346  20677488.1094                   20677488.2154
 -54695621.77348 -42587095.54247  20770446.7504                   20770443.7934
 -13375064.44147 -10389902.00644  22611350.6094                   22611352.1094
  -9577893.02347  -7399837.94044  22682321.8204                   22682321.4224
 11  8 26  0 41  0.0000000  0  8G17G10G04G12G05G02G25G30
 -81519907.56246 -63485646.23544  24138515.9064                   24138518.3554
 -45756515.92648 -35624464.47645  21309672.6884                   21309672.0124
 -60514362.90246 -47116731.91844  23018902.1414                   23018903.2154
 -38661371.03548 -30098562.11946  20728682.5164                   20728681.7774
 -34497995.32048 -26849315.20446  20649896.8524                   20649896.5554
 -54768136.30148 -42643600.36947  20756647.7974                   20756645.1884
 -13542208.75047 -10520144.31245  22579543.8594                   22579546.1954
  -9743583.16847  -7528947.09644  22650792.0234                   22650791.2234
 11  8 26  0 41 30.0000000  0  8G17G10G04G12G05G02G25G30
 -81545148.17246 -63505314.29344  24133712.4924                   24133715.4534
 -45793977.11348 -35653655.02345  21302544.2114                   21302543.6294
 -60525624.88346 -47125507.50444  23016758.8984                   23016760.0044
 -38769368.31248 -30182715.86346  20708131.5864                   20708130.2624
 -34642465.16848 -26961889.06547  20622405.2814                   20622405.1644
 -54840467.98448 -42699962.71047  20742883.3914                   20742880.8014
 -13708945.56247 -10650069.09244  22547814.4924                   22547817.0634
  -9908813.69947  -7657698.11544  22619349.2584                   22619348.7704
 11  8 26  0 42  0.0000000  0  8G17G10G04G12G05G02G25G30
 -81570196.88747 -63524832.77544  24128945.3984                   24128948.5204
 -45830901.75048 -35682427.47045  21295517.4064                   21295517.3874
 -60536890.45346 -47134285.87144  23014614.8524                   23014616.1844
 -38876789.06648 -30266420.34046  20687689.8364                   20687688.8674
 -34786411.71948 -27074055.14946  20595013.1174                   20595012.6684
 -54912618.39148 -42756183.78647  20729153.4774                   20729151.2894
 -13875272.99647 -10779674.86445  22516163.7344                   22516165.2774
 -10073582.53546  -7786089.35744  22587994.7974                   22587994.8204
 11  8 26  0 42 30.0000000  0  8G17G10G04G12G05G02G25G30
 -81595057.27347 -63544204.52544  24124215.2814                   24124217.5554
 -45867295.28148 -35710786.08045  21288591.9224                   21288592.4614
 -60548164.13346 -47143070.59044  23012470.0944                   23012471.5004
 -38983636.57048 -30349678.13546  20667357.5704                   20667356.2384
 -34929836.93748 -27185814.99746  20567720.1334                   20567719.8134
 -54984592.24648 -42812267.30047  20715457.3594                   20715455.2464
 -14041192.02347 -10908962.39944  22484589.7814                   22484592.4454
 -10237890.94547  -7914121.84844  22556728.0394                   22556728.2504
 11  8 26  0 43  0.0000000  0  8G17G10G04G12G05G02G25G30
 -81619727.12947 -63563427.79744  24119520.7734                   24119523.1804
 -45903158.24647 -35738731.24245  21281767.6094                   21281767.5164
 -60559445.19147 -47151861.03644  23010323.3364                   23010324.6334
 -39089907.84448 -30432486.91046  20647134.9694                   20647133.6214
 -35072737.30548 -27297165.87546  20540527.0704                   20540526.3054
 -55056388.60548 -42868212.51347  20701794.6564                   20701792.8134
 -14206698.46547 -11037928.44344  22453094.7424                   22453097.4654
 -10401734.75847  -8041792.28744  22525549.1804                   22525550.1954
 11  8 26  0 43 30.0000000  0  8G17G10G04G12G05G02G25G30
 -80068786.73847 -62354902.83944  24414654.8524                   24414657.2034
 -44363072.45748 -34538664.39645  21574836.0474                   21574836.4804
 -58995315.12947 -45933058.37644  23307967.7974                   23307968.5744
 -37620179.43448 -29287243.98246  20926814.5704                   20926813.2034
 -33639687.16448 -26180503.39646  20813227.4614                   20813226.8134
 -53552587.35548 -41696419.32747  20987958.7034                   20987956.1724
 -12796365.38747  -9938967.56844  22721472.5554                   22721473.8284
  -8989687.03147  -6941495.32944  22794253.6174                   22794254.0234
 11  8 26  0 44  0.0000000  0  8G17G10G04G12G05G02G25G30
 -80093074.08647 -62373828.04144  24410032.9924                   24410035.1804
 -44397878.91447 -34565786.32445  21568212.6024                   21568212.5084
 -59006612.35547 -45941861.43244  23305817.6414                   23305819.0084
 -37725294.47748 -29369151.78746  20906811.8284                   20906810.7854
 -33781531.43048 -26291031.33046  20786235.3984                   20786234.6054
 -53624030.80548 -41752089.53547  20974363.3524                   20974361.0314
 -12961037.98447 -10067283.87245  22690136.6024                   22690137.6884
  -9152593.04346  -7068435.02344  22763252.8364                   22763253.7894
 11  8 26  0 44 30.0000000  0  8G17G10G04G12G05G02G25G30
 -80117172.70747 -62392606.20244  24405447.8204                   24405448.8634
 -44432162.80947 -34592501.06145  21561688.6884                   21561688.2504
 -59017921.65646 -45950673.89444  23303665.3444                   23303666.7544
 -37829832.86748 -29450610.25846  20886918.8284                   20886917.7114
 -33922847.54348 -26401147.72746  20759343.8754                   20759343.0474
 -53695301.73048 -41807625.30347  20960801.0474                   20960798.7664
 -13125292.41847 -10195274.35945  22658880.4614                   22658881.8134
  -9315029.02346  -7195008.45844  22732342.6334                   22732343.2234
 11  8 26  0 45  0.0000000  0  8G17G10G04G12G05G02G25G30
 -80141082.40647 -62411237.14344  24400897.9844                   24400899.0864
 -44465926.36347 -34618810.33745  21555263.3204                   21555262.8794
 -59029243.89546 -45959496.44544  23301510.8524                   23301512.5234
 -37933794.17648 -29531619.03146  20867135.1564                   20867134.5354
 -34063634.10948 -26510851.50147  20732552.9384                   20732552.5744
 -53766401.44948 -41863027.66547  20947271.2664                   20947268.6054
 -13289126.36347 -10322937.15745  22627703.7814                   22627705.6914
  -9476992.67247  -7321213.85244  22701521.8914                   22701521.6804
 11  8 26  0 45 30.0000000  0  8G17G10G04G12G05G02G25G30
 -80164801.29347 -62429719.36243  24396383.8054                   24396385.6174
 -44499169.60948 -34644714.17145  21548937.6724                   21548937.0204
 -59040578.33646 -45968328.50044  23299354.2814                   23299356.0824
 -38037175.89148 -29612176.19646  20847462.8204                   20847462.0004
 -34203887.80548 -26620140.04546  20705863.5234                   20705863.3404
 -53837328.75048 -41918295.66147  20933774.3134                   20933771.7664
 -13452535.38347 -10450268.87245  22596607.7194                   22596609.5984
  -9638479.49646  -7447047.74344  22670791.5944                   22670791.7704
 11  8 26  0 46  0.0000000  0  8G17G10G04G12G05G02G25G30
 -80188332.49246 -62448055.41943  24391906.0554                   24391908.0904
 -44531898.60248 -34670217.26945  21542709.7974                   21542709.1054
 -59051928.84846 -45977173.09344  23297194.3754                   23297195.0004
 -38139980.57847 -29692283.70746  20827899.4454                   20827898.9144
 -34343610.15248 -26729014.55247  20679275.1484                   20679274.9614
 -53908088.28948 -41973432.94647  20920309.2894                   20920306.6644
 -13615520.33247 -10577270.12245  22565592.8134                   22565595.1604
  -9799490.54747  -7572510.84144  22640152.5234                   22640152.5784
 11  8 26  0 46 30.0000000  0  8G17G10G04G12G05G02G25G30
 -80211676.18046 -62466245.22443  24387463.5474                   24387465.6764
 -44564115.46147 -34695321.33445  21536578.9694                   21536578.6174
 -59063296.85246 -45986031.30544  23295031.4694                   23295031.6414
 -38242207.81247 -29771941.26446  20808446.6644                   20808445.5944
 -34482800.15648 -26837474.26647  20652788.0394                   20652787.7664
 -53978680.88348 -42028440.14447  20906875.9774                   20906873.1024
 -13778079.15247 -10703939.34445  22534658.7194                   22534660.7624
  -9960023.89847  -7697601.74044  22609603.8914                   22609603.4224
 11  8 26  0 47  0.0000000  0  8G17G10G04G12G05G02G25G30
 -80234830.53146 -62484287.63243  24383056.8674                   24383059.7974
 -44595820.83647 -34720026.83045  21530545.6954                   21530545.9654
 -59074681.60247 -45994902.51844  23292865.1804                   23292865.4184
 -38343855.27347 -29851147.05846  20789103.1644                   20789102.8404
 -34621454.46948 -26945516.53047  20626403.0004                   20626402.7974
 -54049106.05948 -42083316.87247  20893474.4844                   20893471.4804
 -13940207.87147 -10830273.37345  22503806.6804                   22503808.8754
 -10120075.50446  -7822317.25544  22579147.6564                   22579146.8484
 11  8 26  0 47 30.0000000  0  9G17G10G04G12G29G05G02G25G30
 -80257795.36746 -62502182.33243  24378686.3284                   24378690.2154
 -44627016.30547 -34744335.00346  21524609.4454                   21524609.4454
 -59086083.43046 -46003787.07744  23290695.1954                   23290695.5084
 -38444922.35547 -29929900.61446  20769871.0784                   20769870.7424
   9200408.19957   7184321.44154  24642867.4694                   24642869.0004
 -34759571.17648 -27053139.90847  20600120.4694                   20600119.9844
 -54119364.43448 -42138063.62447  20880104.9614                   20880101.5084
 -14101903.41047 -10956269.88845  22473037.0084                   22473039.6954
 -10279642.51647  -7946655.15544  22548782.5084                   22548782.5744
 11  8 26  0 48  0.0000000  0  9G17G10G04G12G29G05G02G25G30
 -80280577.83646 -62519934.93943  24374352.5474                   24374354.4774
 -44657711.55948 -34768253.38445  21518768.1414                   21518768.4734
 -59097510.45346 -46012691.27044  23288520.8204                   23288521.5784
 -38545415.85948 -30008207.21946  20750747.7504                   20750747.0274
   9027678.22347   7049726.70744  24609998.2344                   24609999.1994
 -34897156.26248 -27160349.03047  20573938.9454                   20573938.5514
 -54189464.12148 -42192686.72947  20866765.1254                   20866761.8914
 -14263170.87547 -11081932.83345  22442349.2274                   22442350.9614
 -10438730.07047  -8070619.47445  22518509.3054                   22518509.3914
 11  8 26  0 48 30.0000000  0  9G17G10G04G12G29G05G02G25G30
 -80303182.57446 -62537549.08043  24370050.7114                   24370053.6564
 -44687913.55548 -34791787.41045  21513021.0394                   21513021.2854
 -59108968.34446 -46021619.50144  23286340.3984                   23286341.3364
 -38645339.54347 -30086069.82246  20731732.9454                   20731732.5044
   8854857.03147   6915060.94944  24577111.3834                   24577112.1174
 -35034212.89148 -27267146.36847  20547858.0234                   20547857.2584
 -54259410.86747 -42247190.67447  20853454.4224                   20853451.5904
 -14424012.37947 -11207263.86145  22411741.8204                   22411743.1804
 -10597340.40247  -8194211.95745  22488326.9454                   22488326.1134
 11  8 26  0 49  0.0000000  0  9G17G10G04G12G29G05G02G25G30
 -80325611.98446 -62555026.50444  24365782.2974                   24365785.1564
 -44717627.27748 -34814940.97345  21507366.7504                   21507366.9024
 -59120460.37946 -46030574.38644  23284153.2974                   23284155.0944
 -38744695.69147 -30163490.17946  20712825.8754                   20712825.6454
   8681942.55947   6780322.46345  24544206.4924                   24544208.3204
 -35170742.26248 -27373532.84647  20521876.8364                   20521876.7034
 -54329208.54747 -42301578.45447  20840172.5234                   20840169.6804
 -14584428.37947 -11332263.33845  22381215.8284                   22381217.0664
 -10755474.04347  -8317432.96845  22458234.6334                   22458235.0434
 11  8 26  0 49 30.0000000  0  9G17G10G04G12G29G05G02G25G30
 -80347862.26646 -62572364.37444  24361548.1174                   24361551.0234
 -44746851.13748 -34837712.81145  21501805.6024                   21501805.6334
 -59131983.62546 -46039553.59444  23281960.0634                   23281961.6294
 -38843479.78947 -30240464.79846  20694028.1804                   20694027.5944
   8508939.25847   6645514.81645  24511284.4144                   24511286.7974
 -35306738.96548 -27479504.26747  20495997.6884                   20495997.4534
 -54398853.85247 -42355847.51746  20826919.2274                   20826916.4924
 -14744412.43747 -11456926.22645  22350771.9064                   22350772.7584
 -10913124.65247  -8440277.61445  22428235.2194                   22428235.2194
 11  8 26  0 50  0.0000000  0  9G17G10G04G12G29G05G02G25G30
 -80369928.70746 -62589558.95644  24357349.0634                   24357351.1914
 -44775582.31248 -34860100.73945  21496338.2424                   21496337.7114
 -59143534.17247 -46048554.06644  23279762.6884                   23279764.0204
 -38941686.70747 -30316989.66246  20675339.9694                   20675339.0904
   8335852.58647   6510642.17545  24478347.8204                   24478349.4734
 -35442197.06648 -27585055.98547  20470221.0864                   20470220.4774
 -54468343.14847 -42409995.01746  20813695.9384                   20813692.8874
 -14903957.55547 -11581247.06245  22320410.8134                   22320412.4534
 -11070285.22747  -8562740.40045  22398328.1644                   22398328.1414
 11  8 26  0 50 30.0000000  0  9G17G10G04G12G29G05G02G25G30
 -80391809.81646 -62606609.25044  24353186.0084                   24353187.8444
 -44803822.04348 -34882105.72245  21490964.3444                   21490963.5124
 -59155111.50847 -46057575.42244  23277560.1724                   23277561.8134
 -39039314.89148 -30393063.57646  20656762.0234                   20656761.1644
   8162684.63347   6375706.21044  24445394.9144                   24445395.7734
 -35577113.73848 -27690185.81447  20444547.0634                   20444546.1914
 -54537675.79348 -42464020.44446  20800502.2894                   20800499.4734
 -15063059.96147 -11705222.91745  22290134.7034                   22290137.0044
 -11226952.21547  -8684818.57645  22368515.7424                   22368515.4804
 11  8 26  0 51  0.0000000  0  9G17G10G04G12G29G05G02G25G30
 -80413508.53146 -62623517.31744  24349056.2194                   24349058.6024
 -44831575.84048 -34903732.05645  21485682.7814                   21485682.2854
 -59166719.36347 -46066620.56544  23275351.2974                   23275352.6174
 -39136367.14848 -30468688.71746  20638293.3594                   20638292.3754
   7989433.19147   6240705.14644  24412425.8914                   24412427.5984
 -35711490.66848 -27794895.06447  20418975.9844                   20418975.6994
 -54606856.04748 -42517927.12946  20787337.6644                   20787335.1994
 -15221720.44947 -11828854.41445  22259942.7664                   22259945.1174
 -11383126.34847  -8806512.71445  22338796.7584                   22338796.9774
 11  8 26  0 51 30.0000000  0  9G17G10G04G12G29G05G02G25G30
 -80435025.53146 -62640283.82244  24344961.6804                   24344963.3444
 -44858846.34448 -34924981.79845  21480493.2504                   21480492.6844
 -59178359.04747 -46075690.47244  23273135.6414                   23273136.9654
 -39232843.44948 -30543865.06346  20619934.6724                   20619933.9064
   7816098.07847   6105638.90044  24379441.2734                   24379442.9184
 -35845326.96948 -27899183.04647  20393507.4144                   20393507.1764
 -54675885.20347 -42571716.07646  20774201.9844                   20774199.6684
 -15379937.19547 -11952140.12945  22229834.9534                   22229837.2234
 -11538806.13347  -8927821.64945  22309171.7664                   22309172.4184
 11  8 26  0 52  0.0000000  0  9G17G10G04G12G29G05G02G25G30
 -78880940.69146 -61429308.58743  24640694.3134                   24640696.9184
 -43310215.48048 -33718256.45745  21775188.2584                   21775187.6454
 -57614611.61347 -44857186.02243  23570706.9224                   23570707.5864
 -37753320.94148 -29390990.40246  20901478.3284                   20901477.3914
   9218105.22747   7198112.10844  24646234.7194                   24646235.8244
 -34403197.45748 -26775445.72047  20667935.6804                   20667935.3594
 -53169342.42247 -41397786.64646  21060887.6334                   21060885.1604
 -13962283.22347 -10847474.62845  22499605.7974                   22499607.9304
 -10118564.65247  -7821139.97145  22579434.7974                   22579434.8364
 11  8 26  0 52 30.0000000  0  8G10G04G12G29G05G02G25G30
 -43336521.58248 -33738754.68845  21770182.4224                   21770182.1914
 -57626312.28546 -44866303.46543  23568480.0704                   23568481.3984
 -37848639.46948 -29465264.58946  20883339.9924                   20883338.7934
   9044610.14546   7062921.16743  24613219.0004                   24613220.2974
 -34535943.76648 -26878884.35247  20642674.7504                   20642674.9694
 -53238067.16448 -41451338.40546  21047809.4304                   21047806.8444
 -14119600.58247 -10970059.52145  22469669.1254                   22469671.4494
 -10273243.94547  -7941669.29745  22550000.3284                   22550000.0744
 11  8 26  0 53  0.0000000  0  8G10G04G12G29G05G02G25G30
 -43362343.74648 -33758875.86245  21765268.3204                   21765268.6604
 -57638039.09046 -44875441.27043  23566248.3674                   23566249.8914
 -37943372.98848 -29539082.92546  20865312.7424                   20865311.7934
   8871041.71547   6927673.14543  24580190.0234                   24580190.2584
 -34668137.82048 -26981892.66247  20617519.0394                   20617518.9964
 -53306635.69148 -41504768.44046  21034761.5864                   21034758.6844
 -14276459.43748 -11092287.13046  22439819.6954                   22439822.0864
 -10427414.41447  -8061802.09945  22520662.4064                   22520663.1524
 11  8 26  0 53 30.0000000  0  8G10G04G12G29G05G02G25G30
 -43387678.80547 -33778617.45545  21760447.1174                   21760447.5234
 -57649787.31646 -44884595.76443  23564012.7034                   23564014.3404
 -38037516.10248 -29612441.21146  20847397.7894                   20847396.9144
   8697406.08246   6792372.70443  24547148.3524                   24547149.2194
 -34799773.02748 -27084465.51647  20592469.8594                   20592469.3874
 -53375043.33248 -41558073.10546  21021743.7664                   21021741.5084
 -14432852.05148 -11214151.44446  22410059.4064                   22410061.2114
 -10581068.26647  -8181532.34345  22491423.2734                   22491423.4734
 11  8 26  0 54  0.0000000  0  8G10G04G12G29G05G02G25G30
 -43412522.79747 -33797976.42245  21755719.8524                   21755719.7194
 -57661551.13346 -44893762.49943  23561774.2814                   23561775.8094
 -38131061.63348 -29685333.84546  20829596.7814                   20829595.8714
   8523710.52046   6657025.67543  24514095.1884                   24514095.6564
 -34930841.64148 -27186596.84946  20567528.2734                   20567527.8874
 -53443284.55148 -41611248.09346  21008758.1804                   21008755.3714
 -14588769.63348 -11335645.58046  22380388.6334                   22380390.4694
 -10734196.98047  -8300853.37145  22462283.5234                   22462284.1254
 11  8 26  0 54 30.0000000  0  8G10G04G12G29G05G02G25G30
 -43436881.39547 -33816957.14845  21751084.2344                   21751084.3244
 -57673334.93047 -44902944.72544  23559532.3754                   23559533.1054
 -38224013.26248 -29757763.70046  20811908.5864                   20811907.6684
   8349952.39846   6521629.74143  24481029.7114                   24481030.0354
 -35061345.95748 -27288288.49246  20542693.8914                   20542693.6254
 -53511363.59048 -41664296.71046  20995803.3204                   20995800.0824
 -14744213.38747 -11456770.54246  22350808.7274                   22350810.7734
 -10886801.87147  -8419766.21345  22433243.8834                   22433244.5594
 11  8 26  0 55  0.0000000  0  8G10G04G12G29G05G02G25G30
 -43460761.27747 -33835564.85345  21746539.7664                   21746540.2034
 -57685143.56647 -44912146.30944  23557285.6024                   23557286.0394
 -38316375.10948 -29829733.98446  20794332.6024                   20794331.8874
   8176128.01646   6386182.34343  24447951.8134                   24447952.1524
 -35191288.91048 -27389542.70646  20517966.6954                   20517966.2894
 -53579285.99248 -41717223.28246  20982878.3524                   20982875.1804
 -14899185.51647 -11577527.97146  22321318.6954                   22321320.7814
 -11038885.25047  -8538272.69045  22404303.8284                   22404304.4804
 11  8 26  0 55 30.0000000  0  8G10G04G12G29G05G02G25G30
 -43484168.13747 -33853803.96145  21742085.7424                   21742085.6094
 -57696980.91447 -44921370.23844  23555032.7194                   23555033.9384
 -38408150.07048 -29901246.95947  20776868.6254                   20776867.4964
   8002235.03946   6250681.33143  24414861.2814                   24414861.6804
 -35320672.84847 -27490361.32246  20493345.8204                   20493344.8834
 -53647055.63347 -41770030.79546  20969982.3674                   20969979.0744
 -15053686.94148 -11697918.63846  22291918.0084                   22291919.8984
 -11190448.20747  -8656373.64045  22375461.8204                   22375462.6724
 11  8 26  0 56  0.0000000  0  8G10G04G12G29G05G02G25G30
 -43507101.99247 -33871674.49545  21737721.8204                   21737721.5984
 -57708845.11747 -44930615.11544  23552775.4774                   23552776.3984
 -38499335.64148 -29972300.66247  20759516.6724                   20759515.7344
   7828276.84447   6115129.62544  24381758.0704                   24381759.4104
 -35449493.87147 -27590741.30046  20468832.0634                   20468831.1994
 -53714670.66447 -41822717.84146  20957115.6334                   20957112.1374
 -15207712.85548 -11817938.78046  22262607.9844                   22262609.9534
 -11341486.12547  -8774065.47445  22346720.3674                   22346720.2704
 11  8 26  0 56 30.0000000  0  8G10G04G12G29G05G02G25G30
 -43529564.89547 -33889178.04145  21733447.1094                   21733446.6174
 -57720736.54747 -44939881.19844  23550512.3134                   23550513.7544
 -38589930.92248 -30042894.39847  20742276.9454                   20742275.8134
   7654254.51647   5979527.92444  24348642.5864                   24348644.1644
 -35577750.63748 -27690681.60047  20444425.0704                   20444425.0824
 -53782131.62948 -41875284.84046  20944278.1724                   20944274.6374
 -15361260.74248 -11937586.42846  22233388.6174                   22233391.0594
 -11491996.66847  -8891346.35945  22318079.2894                   22318079.0004
 11  8 26  0 57  0.0000000  0  8G10G04G12G29G05G02G25G30
 -43551561.92247 -33906318.59245  21729261.4304                   21729260.7384
 -57732658.47747 -44949171.08444  23548243.6954                   23548245.4024
 -38679938.63348 -30113030.28747  20725149.0704                   20725147.9574
   7480166.32447   5843874.90144  24315514.7194                   24315516.3834
 -35705444.83248 -27790183.52647  20420125.9304                   20420125.4184
 -53849442.19148 -41927734.64546  20931469.3834                   20931465.7734
 -15514331.17648 -12056862.05346  22204260.5084                   22204262.5744
 -11641980.35547  -9008216.70345  22289538.4064                   22289538.7114
 11  8 26  0 57 30.0000000  0  8G10G04G12G29G05G02G25G30
 -43573092.73447 -33923095.82145  21725164.3914                   21725164.0904
 -57744608.69547 -44958482.93243  23545969.5864                   23545971.5554
 -38769356.03548 -30182706.19647  20708133.2974                   20708132.7034
   7306015.96147   5708173.39444  24282375.5944                   24282376.1134
 -35832572.44148 -27889243.96347  20395934.2814                   20395934.2734
 -53916600.21948 -41980065.56646  20918689.5394                   20918685.7854
 -15666918.95748 -12175761.58446  22175223.6644                   22175225.5314
 -11791432.35947  -9124672.74645  22261098.4614                   22261098.6094
 11  8 26  0 58  0.0000000  0  8G10G04G12G29G05G02G25G30
 -43594162.39147 -33939513.73745  21721154.5234                   21721154.8484
 -57756590.45747 -44967819.38143  23543689.9844                   23543690.7274
 -38858185.80948 -30251924.18647  20691229.7894                   20691228.9104
   7131801.68047   5572422.11044  24249223.3134                   24249224.2854
 -35959135.30948 -27987864.35647  20371850.0944                   20371849.6994
 -53983609.50848 -42032280.60646  20905938.0944                   20905934.5864
 -15819024.80148 -12294285.60046  22146279.1254                   22146280.5354
 -11940353.52347  -9240715.13845  22232759.0634                   22232759.3094
 11  8 26  0 58 30.0000000  0  8G10G04G12G29G05G02G25G30
 -43614774.46947 -33955575.09045  21717232.8204                   21717232.2034
 -57768605.41447 -44977181.68243  23541402.9144                   23541404.4534
 -38946429.01248 -30320685.13147  20674437.4844                   20674436.7814
   6957523.18447   5436620.75244  24216059.3134                   24216059.6724
 -36085133.34048 -28086044.58847  20347873.9304                   20347873.2384
 -54050471.56247 -42084380.90446  20893214.4614                   20893210.7074
 -15970647.50448 -12412433.14046  22117426.1884                   22117427.5864
 -12088742.72347  -9356343.03545  22204522.0784                   22204522.4344
 11  8 26  0 59  0.0000000  0  8G10G04G12G29G05G02G25G30
 -43634932.79747 -33971282.88445  21713396.2424                   21713396.4454
 -57780655.39846 -44986571.36043  23539109.9694                   23539111.6564
 -39034086.43448 -30388989.61046  20657756.8204                   20657756.1764
   6783179.96147   5300768.98144  24182883.1024                   24182883.8324
 -36210566.55548 -28183784.72647  20324004.5704                   20324004.3754
 -54117188.45348 -42136368.09646  20880518.6334                   20880514.6844
 -16121786.07848 -12530203.44946  22088665.3364                   22088666.6414
 -12236599.21548  -9471555.84545  22176385.9924                   22176385.6604
 11  8 26  0 59 30.0000000  0  8G10G04G12G29G05G02G25G30
 -43654639.55947 -33986638.81045  21709646.2894                   21709646.5864
 -57792740.93047 -44995988.65943  23536810.2584                   23536812.3244
 -39121158.38748 -30456837.88346  20641187.4614                   20641186.9614
   6608772.99647   5164867.50744  24149694.4774                   24149695.8484
 -36335433.95747 -28281083.95547  20300242.9304                   20300242.4414
 -54183761.27348 -42188243.01646  20867850.0784                   20867846.6094
 -16272438.46148 -12647594.90346  22059997.3204                   22059998.8404
 -12383921.16848  -9586352.11945  22148351.0004                   22148351.1484
 11  8 26  1  0  0.0000000  0  8G10G04G12G29G05G02G25G30
 -43673894.96947 -34001643.01245  21705982.2734                   21705982.0864
 -57804860.28147 -45005432.32744  23534503.9924                   23534506.1094
 -39207642.54348 -30524228.12346  20624730.3444                   20624729.2114
   6434305.87546   5028919.20944  24116493.7424                   24116494.9024
 -36459732.44148 -28377939.87847  20276589.5234                   20276589.1094
 -54250187.92648 -42240004.03346  20855209.6724                   20855206.3134
 -16422600.07848 -12764603.93846  22031422.6484                   22031424.4534
 -12530704.10248  -9700728.39645  22120419.4384                   22120418.6644
 11  8 26  1  0 30.0000000  0  8G10G04G12G29G05G02G25G30
 -42117281.66448 -32788697.58145  22002196.0944                   22002195.8794
 -56241594.24647 -43787302.94744  23831983.3364                   23831985.2464
 -37718116.45348 -29363558.43446  20908177.8754                   20908176.6524
   7835204.67646   6120528.75044  24383075.7814                   24383077.4184
 -35008037.38348 -27246748.88247  20552837.8754                   20552837.4844
 -52741047.86348 -41064050.73446  21142389.3594                   21142386.0704
 -14996844.46948 -11653625.53046  22302734.8524                   22302736.6914
 -11101521.84047  -8587079.84145  22392383.7974                   22392383.7034
 11  8 26  1  1  0.0000000  0  8G10G04G12G29G05G02G25G30
 -42135645.22747 -32803006.86245  21998701.9144                   21998701.5084
 -56253785.63347 -43796802.74044  23829663.2034                   23829666.3094
 -37803427.44948 -29430034.51946  20891943.5554                   20891942.4534
   7660616.93446   5984486.46644  24349853.0084                   24349853.9654
 -35131198.02748 -27342718.17547  20529401.4384                   20529400.7464
 -52807187.94948 -41115588.45946  21129803.5084                   21129800.2544
 -15146021.22348 -11769867.13346  22274347.3674                   22274349.0124
 -11247223.96948  -8700613.94145  22364657.6954                   22364657.7704
 11  8 26  1  1 30.0000000  0  8G10G04G12G29G05G02G25G30
 -42153567.86748 -32816972.55445  21995290.9614                   21995290.7974
 -56266015.38347 -43806332.47344  23827336.6884                   23827338.8014
 -37888154.34848 -29496055.47246  20875820.4144                   20875819.4844
   7485968.85546   5848397.14344  24316618.7114                   24316620.0044
 -35253789.86348 -27438244.24147  20506072.8364                   20506071.9614
 -52873187.33248 -41167016.53946  21117244.1564                   21117241.3444
 -15294703.87548 -11885723.73546  22246053.5234                   22246055.3524
 -11392384.34448  -8813725.88246  22337034.2974                   22337033.4844
 11  8 26  1  2  0.0000000  0  8G10G04G12G29G05G02G25G30
 -42171054.83647 -32830598.77145  21991963.3524                   21991963.0944
 -56278286.59847 -43815894.48544  23825001.3914                   23825003.1054
 -37972299.37948 -29561623.02046  20859808.2584                   20859807.1254
   7311258.64546   5712259.41244  24283372.2114                   24283373.3404
 -35375814.69548 -27533328.48747  20482852.3054                   20482851.1414
 -52939049.30148 -41218337.54546  21104710.8754                   21104707.9964
 -15442893.06248 -12001195.79946  22217854.4454                   22217855.8794
 -11537003.74248  -8926416.29845  22309514.1644                   22309513.8404
 11  8 26  1  2 30.0000000  0  8G10G04G12G29G05G02G25G30
 -42188106.44148 -32843885.76345  21988718.4454                   21988718.2384
 -56290597.52747 -43825487.42444  23822658.8754                   23822660.9344
 -38055860.17248 -29626735.31046  20843907.1414                   20843906.3634
   7136489.50846   5576075.78444  24250115.0634                   24250115.2074
 -35497269.44948 -27627968.53247  20459740.0084                   20459739.2424
 -53004772.56648 -41269550.47846  21092203.9694                   21092201.3444
 -15590584.42648 -12116279.97346  22189749.4384                   22189750.5864
 -11681077.97348  -9038681.91245  22282097.9454                   22282097.9924
 11  8 26  1  3  0.0000000  0  8G10G04G12G29G05G02G25G30
 -42204724.98047 -32856835.29745  21985555.9064                   21985555.6254
 -56302948.23847 -43835111.37144  23820308.4924                   23820310.1484
 -38138836.71148 -29691392.34546  20828117.0084                   20828116.3054
   6961663.13746   5439847.53044  24216845.9454                   24216847.6024
 -35618152.68448 -27722163.21347  20436736.6884                   20436735.8284
 -53070357.29348 -41320655.44546  21079723.7194                   21079721.1684
 -15737775.45748 -12230974.24746  22161739.9384                   22161741.1644
 -11824604.84447  -9150521.00945  22254785.5314                   22254784.9804
 11  8 26  1  3 30.0000000  0  8G10G04G12G29G05G02G25G30
 -42220912.08647 -32869448.62545  21982475.3984                   21982475.6684
 -56315338.38747 -43844766.08543  23817950.4384                   23817952.0634
 -38221228.37148 -29755593.64246  20812438.7504                   20812437.8524
   6786780.71546   5303575.62143  24183566.8674                   24183567.3284
 -35738462.71548 -27815911.25047  20413842.5004                   20413842.1334
 -53135803.66848 -41371652.61146  21067269.8834                   21067267.1454
 -15884463.48448 -12345276.58746  22133826.2974                   22133827.7734
 -11967581.83647  -9261931.61545  22227577.4224                   22227577.6914
 11  8 26  1  4  0.0000000  0  8G10G04G12G29G05G02G25G30
 -42236671.14147 -32881728.42045  21979476.4774                   21979476.4614
 -56327769.36347 -43854452.61643  23815585.0554                   23815586.0124
 -38303036.05148 -29819339.87346  20796870.9924                   20796870.5204
   6611843.19146   5167260.75043  24150277.7894                   24150277.5514
 -35858200.26648 -27909213.20447  20391057.1024                   20391056.4574
 -53201112.73848 -41422542.78546  21054842.0004                   21054839.5314
 -16030647.32448 -12459186.04946  22106008.8204                   22106009.8714
 -12110007.94548  -9372912.97546  22200474.7504                   22200475.5474
 11  8 26  1  4 30.0000000  0  8G10G04G12G29G05G02G25G30
 -42252002.10547 -32893674.63845  21976559.2504                   21976559.4064
 -56340239.22347 -43864169.43243  23813212.6334                   23813212.7774
 -38384258.01248 -29882629.71646  20781415.2114                   20781414.3244
   6436853.58246   5030905.33743  24116978.5084                   24116978.2814
 -35977361.77748 -28002066.29447  20368381.6024                   20368380.5634
 -53266283.33248 -41473325.04046  21042440.5164                   21042437.8244
 -16176322.50848 -12572699.13446  22078287.2814                   22078288.6764
 -12251879.04747  -9483461.86546  22173477.6644                   22173477.6804
 11  8 26  1  5  0.0000000  0  8G10G04G12G29G05G02G25G30
 -42266908.72747 -32905290.17945  21973722.8284                   21973722.2974
 -56352749.28547 -43873917.53944  23810832.3284                   23810833.3794
 -38464895.64548 -29945464.24146  20766070.5554                   20766069.2934
   6261811.95747   4894509.36244  24083668.6024                   24083669.5124
 -36095947.50048 -28094470.72147  20345815.1334                   20345814.5904
 -53331316.71548 -41524000.39346  21030065.3284                   21030062.3754
 -16321488.13348 -12685815.18446  22050663.2194                   22050664.5904
 -12393194.26648  -9593577.61046  22146586.4304                   22146586.5634
 11  8 26  1  5 30.0000000  0  8G10G04G12G29G05G02G25G30
 -42281394.81647 -32916578.05745  21970966.1094                   21970965.6134
 -56365301.34047 -43883698.33444  23808444.1334                   23808444.8364
 -38544949.69148 -30007844.02346  20750836.5234                   20750835.8554
   6086718.03947   4758072.58544  24050349.5314                   24050349.3284
 -36213958.15648 -28186427.04347  20323358.5394                   20323357.8874
 -53396215.15248 -41574570.59146  21017715.6644                   21017713.0044
 -16466143.50848 -12798533.61446  22023135.7034                   22023138.0474
 -12533953.25047  -9703259.93246  22119800.8834                   22119801.2934
 11  8 26  1  6  0.0000000  0  8G10G04G12G29G05G02G25G30
 -42295463.98847 -32927541.05345  21968288.9924                   21968288.7704
 -56377896.36747 -43893512.69944  23806047.3054                   23806048.3404
 -38624421.84448 -30069770.38746  20735713.4304                   20735713.0664
   5911572.25446   4621595.39944  24017020.2424                   24017020.8834
 -36331393.66448 -28277935.19047  20301011.4614                   20301010.8164
 -53460980.06248 -41625036.72746  21005390.9924                   21005388.2734
 -16610287.44948 -12910853.54146  21995706.3204                   21995708.6884
 -12674154.93747  -9812507.98346  22093121.0474                   22093120.9884
 11  8 26  1  6 30.0000000  0  8G10G04G12G29G05G02G25G30
 -42309120.78147 -32938182.72145  21965690.1644                   21965689.9774
 -56390537.62947 -43903363.04043  23803641.4064                   23803642.9304
 -38703315.29348 -30131245.81846  20720700.6884                   20720699.8714
   5736372.81346   4485076.45244  23983680.9774                   23983681.6024
 -36448255.84048 -28368996.59647  20278773.3914                   20278772.6294
 -53525614.48048 -41675401.20546  20993091.7034                   20993088.7034
 -16753920.48048 -13022775.34846  21968374.2894                   21968376.2424
 -12813800.16047  -9921322.42846  22066547.6254                   22066547.9024
 11  8 26  1  7  0.0000000  0  8G10G04G12G29G05G02G25G30
 -42322367.39547 -32948504.76345  21963169.2114                   21963169.2114
 -56403224.39546 -43913248.86144  23801227.0234                   23801229.0004
 -38781628.87548 -30192269.39746  20705798.1254                   20705797.4304
   5561121.98446   4348517.43643  23950331.6334                   23950332.5594
 -36564543.33248 -28459610.19247  20256644.4924                   20256643.9804
 -53590118.40648 -41725663.99346  20980816.8364                   20980814.2194
 -16897039.96148 -13134296.98446  21941139.0474                   21941141.1174
 -12952886.47347 -10029701.34446  22040080.2894                   22040080.4614
 11  8 26  1  7 30.0000000  0  8G10G04G12G29G05G02G25G30
 -42335208.96947 -32958511.17245  21960725.7664                   21960725.2154
 -56415960.11346 -43923172.79843  23798803.9774                   23798805.0204
 -38859366.31648 -30252844.04146  20691005.0944                   20691004.4494
   5385818.17647   4211917.07843  23916972.4064                   23916972.6294
 -36680258.11348 -28549777.52247  20234624.8444                   20234624.0204
 -53654495.10948 -41775827.63746  20968566.3134                   20968563.4844
 -17039646.63748 -13245419.02346  21914001.8914                   21914004.1644
 -13091414.89147 -10137645.55246  22013719.0474                   22013718.8444
 11  8 26  1  8  0.0000000  0  8G10G04G12G29G05G02G25G30
 -42347645.45347 -32968201.95345  21958359.1644                   21958358.5704
 -56428742.24246 -43933132.95843  23796370.9694                   23796372.4534
 -38936524.85548 -30312967.59846  20676322.2584                   20676321.6524
   5210465.12547   4075278.37644  23883603.9924                   23883603.8444
 -36795397.14548 -28639496.21047  20212714.3204                   20212713.6174
 -53718742.54748 -41825890.56746  20956340.1024                   20956337.5204
 -17181735.99648 -13356137.96946  21886963.4454                   21886964.9844
 -13229381.08247 -10245151.64846  21987465.4774                   21987465.0824
 11  8 26  1  8 30.0000000  0  8G10G04G12G29G05G02G25G30
 -42359678.07847 -32977578.01145  21956069.7114                   21956068.9774
 -56441569.27346 -43943128.02643  23793929.9614                   23793931.2464
 -39013102.89548 -30372638.81146  20661750.0394                   20661749.3204
   5035065.75847   3938603.63244  23850227.0634                   23850225.0124
 -36909957.78148 -28728764.20347  20190914.3524                   20190913.6844
 -53782859.55948 -41875851.86646  20944139.2344                   20944136.6484
 -17323304.42648 -13466450.99446  21860023.8674                   21860025.2424
 -13366781.74248 -10352217.08246  21961318.9534                   21961318.7504
 11  8 26  1  9  0.0000000  0  8G10G04G12G29G05G02G25G30
 -40795888.50847 -31759040.69145  22253648.9924                   22253648.6174
 -54879021.43046 -42725558.31743  24091272.0634                   24091274.6724
 -37513679.30148 -29204256.80646  20947080.8754                   20947080.2034
   6435046.96147   5029498.07543  24116634.4064                   24116633.8874
 -35448516.07048 -27589978.42247  20469017.1174                   20469016.4964
 -52271424.82048 -40698110.49946  21231755.7274                   21231752.9384
 -15888925.46548 -12348753.07246  22132976.8674                   22132978.4064
 -11928190.77047  -9231237.07846  22235073.9304                   22235073.5354
 11  8 26  1  9 30.0000000  0  8G10G04G12G29G05G02G25G30
 -40807121.40647 -31767793.61345  22251511.3364                   22251511.0044
 -54891940.82446 -42735625.40443  24088814.1804                   24088816.1844
 -37589100.34848 -29263026.47846  20932728.9694                   20932727.6684
   6259557.37547   4892752.97343  24083239.6954                   24083239.8364
 -35561920.06248 -27678345.13947  20447437.3054                   20447436.5164
 -52335284.23448 -40747871.06246  21219603.7424                   21219600.9614
 -16029447.73448 -12458250.91346  22106236.6644                   22106237.9104
 -12064456.73847  -9337418.31746  22209142.9614                   22209142.6174
 11  8 26  1 10  0.0000000  0  8G10G04G12G29G05G02G25G30
 -40817961.71547 -31776240.62845  22249448.4384                   22249448.4924
 -54904910.15645 -42745731.42443  24086345.7734                   24086348.2384
 -37663946.08648 -29321347.84846  20918486.2584                   20918485.2384
   6084021.21946   4755971.58544  24049835.5394                   24049836.6954
 -35674748.05148 -27766263.01647  20425966.8444                   20425966.0474
 -52399019.00448 -40797534.51946  21207474.8594                   21207472.5984
 -16169447.36748 -12567341.50446  22079595.5634                   22079596.6884
 -12200156.21147  -9443158.13046  22183320.2344                   22183320.1484
 11  8 26  1 10 30.0000000  0  8G10G04G12G29G05G02G25G30
 -40828410.38347 -31784382.44945  22247460.1334                   22247459.2584
 -54917927.57046 -42755874.92143  24083870.1564                   24083871.5824
 -37738216.00848 -29379220.53046  20904352.7664                   20904351.8594
   5908441.20346   4619156.03544  24016423.9384                   24016425.1884
 -35786997.50448 -27853730.09847  20404606.6334                   20404605.4144
 -52462627.43748 -40847099.52646  21195370.5164                   21195367.9144
 -16308920.69548 -12676022.00446  22053054.2114                   22053055.4184
 -12335285.77747  -9548453.85546  22157605.8364                   22157606.0084
 11  8 26  1 11  0.0000000  0  8G10G04G12G29G05G02G25G30
 -40838470.11347 -31792221.22145  22245545.6644                   22245545.5904
 -54930994.29346 -42766056.81243  24081383.6334                   24081384.1484
 -37811910.92248 -29436645.15246  20890328.9924                   20890328.1954
   5732818.12946   4482306.97344  23983003.8984                   23983005.4694
 -35898668.61748 -27940746.51147  20383356.3594                   20383355.4414
 -52526111.18748 -40896567.37546  21183290.3364                   21183287.5314
 -16447866.47748 -12784291.41046  22026613.7814                   22026615.5634
 -12469844.46147  -9653304.73346  22131999.9924                   22132000.0204
 11  8 26  1 11 30.0000000  0  8G10G04G12G29G05G02G25G30
 -40848138.10947 -31799754.74945  22243705.6334                   22243705.8524
 -54944104.60546 -42776272.62643  24078888.5234                   24078889.8874
 -37885025.69148 -29493617.70146  20876415.9454                   20876414.8094
   5557158.98447   4345429.72544  23949577.7894                   23949578.2384
 -36009755.50448 -28027307.69647  20362217.2734                   20362215.8554
 -52589464.69948 -40945933.73946  21171234.6644                   21171231.5164
 -16586277.15248 -12892143.86346  22000275.3364                   22000277.6884
 -12603824.94547  -9757705.08846  22106504.2664                   22106504.6174
 11  8 26  1 12  0.0000000  0  8G10G04G12G29G05G02G25G30
 -40857420.98047 -31806988.17245  22241939.0634                   22241939.4734
 -54957262.73047 -42786525.75343  24076385.1644                   24076385.3244
 -37957564.91448 -29550141.78946  20862612.1724                   20862610.6524
   5381461.23446   4208522.42643  23916143.1094                   23916143.2504
 -36120261.55548 -28113416.27247  20341188.2664                   20341187.2384
 -52652692.82448 -40995202.40246  21159202.8984                   21159200.0784
 -16724155.03148 -12999581.14746  21974037.8674                   21974040.0354
 -12737229.80547  -9861656.88646  22081118.0944                   22081118.8164
 11  8 26  1 12 30.0000000  0  8G10G04G12G29G05G02G25G30
 -40866323.25447 -31813925.04545  22240245.4844                   22240245.7774
 -54970471.21946 -42796818.09243  24073870.9384                   24073872.9064
 -38029531.18748 -29606219.40846  20848917.5314                   20848916.7344
   5205723.66447   4071584.08343  23882701.6884                   23882701.1294
 -36230188.35948 -28199073.49147  20320270.1334                   20320268.7704
 -52715798.25048 -41044375.45546  21147194.2814                   21147191.4924
 -16861500.50448 -13106603.57146  21947902.0394                   21947904.1134
 -12870059.78547  -9965160.74446  22055841.5314                   22055841.9804
 11  8 26  1 13  0.0000000  0  8G10G04G12G29G05G02G25G30
 -40874848.37147 -31820568.03645  22238622.9694                   22238623.0434
 -54983730.78547 -42807150.20343  24071348.3524                   24071349.2664
 -38100925.63348 -29661851.43546  20835331.7344                   20835330.5004
   5029947.27347   3934615.45343  23849251.7424                   23849251.9304
 -36339536.26248 -28284279.62147  20299461.3984                   20299460.7934
 -52778781.99648 -41093453.70446  21135208.5944                   21135205.6564
 -16998312.46148 -13213210.26946  21921867.6254                   21921869.4884
 -13002314.06247 -10068215.99546  22030674.5554                   22030674.1844
 11  8 26  1 13 30.0000000  0  8G10G04G12G29G05G02G25G30
 -40882997.01247 -31826917.65844  22237072.2344                   22237072.2464
 -54997040.05146 -42817521.05643  24068815.2504                   24068816.7974
 -38171747.42248 -29717037.25746  20821854.6804                   20821853.5314
   4854134.91447   3797618.83643  23815796.1484                   23815795.5434
 -36448302.94948 -28369032.85247  20278763.8444                   20278763.2814
 -52841642.73848 -41142436.08346  21123246.7974                   21123243.9534
 -17134587.44548 -13319398.55346  21895934.8364                   21895936.9414
 -13133989.29347 -10170820.05046  22005617.7734                   22005616.8444
 11  8 26  1 14  0.0000000  0  8G10G04G12G29G05G02G25G30
 -40890774.07847 -31832977.71144  22235592.4924                   22235591.8134
 -55010401.39546 -42827932.58943  24066272.5864                   24066273.3524
 -38241999.49248 -29771779.14646  20808486.2344                   20808485.2464
   4678285.44547   3660593.34543  23782333.1884                   23782333.7664
 -36556490.60948 -28453334.89247  20258176.5784                   20258175.7304
 -52904383.34448 -41191324.86446  21111307.7504                   21111304.6374
 -17270326.07848 -13425168.89746  21870104.9384                   21870106.2774
 -13265086.50847 -10272973.70946  21980670.3674                   21980670.3244
 11  8 26  1 14 30.0000000  0  8G10G04G12G29G05G02G25G30
 -40898180.80947 -31838749.21645  22234183.3674                   22234182.9884
 -55023813.55546 -42838383.61343  24063719.7034                   24063721.5354
 -38311680.64848 -29826076.13746  20795226.0084                   20795225.0554
   4502402.09847   3523541.40443  23748863.7274                   23748863.5394
 -36664097.43048 -28537184.32647  20237699.7974                   20237698.5394
 -52967002.89148 -41240119.31046  21099391.6334                   21099388.7774
 -17405525.09048 -13530518.75846  21844377.4694                   21844379.0944
 -13395602.75847 -10374674.66946  21955834.0394                   21955834.0394
 11  8 26  1 15  0.0000000  0  8G10G04G12G29G05G02G25G30
 -40905220.08647 -31844234.39545  22232843.6724                   22232843.4494
 -55037276.93746 -42848874.62843  24061157.9774                   24061158.6484
 -38380792.27748 -29879929.36046  20782074.6564                   20782074.0554
   4326485.69547   3386463.75443  23715387.8364                   23715388.0314
 -36771123.48048 -28620581.22247  20217333.0314                   20217332.3524
 -53029501.66048 -41288819.64846  21087498.7114                   21087495.7304
 -17540183.03148 -13635447.01746  21818753.1024                   21818754.6374
 -13525536.80147 -10475921.97246  21931108.5704                   21931108.2894
 11  8 26  1 15 30.0000000  0  8G10G04G12G29G05G02G25G30
 -40911893.23047 -31849434.25145  22231574.1094                   22231573.7424
 -55050790.82046 -42859405.00143  24058586.3364                   24058587.5314
 -38449334.31648 -29933338.74246  20769031.7194                   20769030.5904
   4150538.30547   3249361.98543  23681905.8594                   23681906.3794
 -36877567.44548 -28703524.52947  20197077.3524                   20197076.5004
 -53091879.98448 -41337426.13446  21075628.6484                   21075625.6374
 -17674297.58648 -13739951.83646  21793231.6484                   21793232.9734
 -13654886.69547 -10576714.09046  21906493.6564                   21906493.7974
 11  8 26  1 16  0.0000000  0  8G10G04G12G29G05G02G25G30
 -40918204.85547 -31854352.43445  22230373.0704                   22230373.2464
 -55064357.25046 -42869976.26543  24056004.7424                   24056006.3484
 -38517308.97348 -29986305.99746  20756096.3054                   20756095.4024
   3974559.73047   3112235.90143  23648418.4924                   23648418.7894
 -36983430.77048 -28786015.40947  20176932.6954                   20176931.6024
 -53154139.68048 -41385940.19246  21063780.7034                   21063777.8204
 -17807868.74648 -13844033.24546  21767813.8914                   21767815.3404
 -13783652.59847 -10677051.12846  21881990.7894                   21881990.4344
 11  8 26  1 16 30.0000000  0  8G10G04G12G29G05G02G25G30
 -40924155.96147 -31858989.67645  22229241.0554                   22229240.3164
 -55077974.36746 -42880587.03443  24053413.0944                   24053415.8484
 -38584715.62548 -30038830.66346  20743269.0944                   20743268.8794
   3798552.84047   2975087.79143  23614925.0004                   23614924.9494
 -37088711.39148 -28868052.22647  20156898.3444                   20156897.3324
 -53216279.35248 -41434360.70946  21051955.8054                   21051953.0314
 -17940893.14148 -13947688.58346  21742500.1414                   21742501.7234
 -13911831.55547 -10776930.81646  21857599.0944                   21857598.9344
 11  8 26  1 17  0.0000000  0  8G10G04G12G29G05G02G25G30
 -40929755.05147 -31863352.64145  22228174.9844                   22228174.6454
 -55091648.42246 -42891242.17443  24050812.2974                   24050814.3674
 -38651560.63748 -30090917.68446  20730549.2034                   20730548.2034
   3622513.37147   2837914.26343  23581425.2424                   23581424.5354
 -37193415.25448 -28949639.61847  20136973.6414                   20136972.5084
 -53278305.44147 -41482692.73646  21040152.6954                   21040150.1294
 -18073375.09448 -14050921.24346  21717289.7664                   21717291.1454
 -14039428.21547 -10876356.77045  21833318.0004                   21833318.4344
 11  8 26  1 17 30.0000000  0  8G10G04G12G29G05G02G25G30
 -39359583.77347 -30639842.54645  22526969.0234                   22526968.5434
 -53529958.12146 -41674340.72743  24347992.1024                   24347993.4264
 -37142421.73448 -28914965.28446  21017728.9454                   21017727.7544
   5021869.67647   3928321.87943  23847715.6024                   23847712.0514
 -35722117.74248 -27803173.99347  20416952.3204                   20416951.2624
 -51764795.81247 -40303334.59246  21328163.9304                   21328161.3244
 -16629887.73448 -12926125.87146  21991976.2584                   21991978.1484
 -12591016.13747  -9747723.95745  22108941.6644                   22108941.8134
 11  8 26  1 18  0.0000000  0  9G26G10G04G12G29G05G02G25G30
  15486296.15255  12083397.38752  24954773.8674                   24954777.8834
 -39364482.56247 -30643659.83344  22526036.9534                   22526035.9414
 -53543741.89846 -41685081.31844  24345369.4064                   24345371.1414
 -37208141.71948 -28966175.67446  21005222.6954                   21005221.7664
   4845773.46547   3791104.16243  23814204.7034                   23814203.2734
 -35825662.98848 -27883858.58447  20397248.1484                   20397247.1054
 -51826591.80147 -40351487.31646  21316404.3054                   21316402.0394
 -16761275.82448 -13028506.17146  21966973.7974                   21966975.4774
 -12717440.04347  -9846236.05345  22084884.3054                   22084884.4024
 11  8 26  1 18 30.0000000  0  9G26G10G04G12G29G05G02G25G30
  15301876.80145  11939694.27342  24919679.1174                   24919683.7814
 -39369040.94146 -30647211.81745  22525168.9534                   22525169.0864
 -53557586.57046 -41695869.38944  24342734.7344                   24342736.1604
 -37273305.94948 -29016952.99146  20992822.4924                   20992821.3754
   4669644.83246   3653861.20043  23780688.1644                   23780689.0634
 -35928634.61348 -27964096.18947  20377653.4224                   20377651.9654
 -51888279.22748 -40399555.45846  21304665.5784                   21304662.8134
 -16892120.58648 -13130463.09346  21942074.9224                   21942076.7934
 -12843281.69147  -9944294.44745  22060936.6884                   22060937.0824
 11  8 26  1 19  0.0000000  0  9G26G10G04G12G29G05G02G25G30
  15117310.02345  11795876.33642  24884556.6484                   24884560.7894
 -39373266.64146 -30650504.59844  22524365.0474                   22524365.0554
 -53571497.64146 -41706709.30744  24340087.5084                   24340088.4104
 -37337921.49247 -29067302.76746  20980526.3284                   20980525.5824
   4493480.39846   3516590.31243  23747164.9614                   23747166.0594
 -36031037.87148 -28043890.90547  20358166.5944                   20358165.6174
 -51949863.83648 -40447543.46846  21292946.5314                   21292943.7504
 -17022425.85948 -13231999.64046  21917278.7814                   21917280.3714
 -12968545.25047 -10041902.40345  22037100.1024                   22037099.3914
 11  8 26  1 19 30.0000000  0  9G26G10G04G12G29G05G02G25G30
  14932601.75845  11651948.04843  24849407.7034                   24849411.0434
 -39377159.79346 -30653538.25144  22523624.1564                   22523624.5044
 -53585472.52746 -41717598.85143  24337428.1094                   24337429.9884
 -37401986.46948 -29117223.52346  20968335.4844                   20968334.3284
   4317284.08246   3379294.64543  23713634.9614                   23713636.7624
 -36132870.06248 -28123240.64347  20338788.5084                   20338787.6524
 -52011343.43447 -40495449.65946  21281247.1644                   21281244.5554
 -17152187.53148 -13333112.59146  21892586.0004                   21892587.5004
 -13093226.80947 -10139056.83045  22013374.2274                   22013373.1054
 11  8 26  1 20  0.0000000  0  9G26G10G04G12G29G05G02G25G30
  14747754.39846  11507911.40943  24814232.3984                   24814234.6484
 -39380723.44146 -30656315.14944  22522945.2664                   22522946.1844
 -53599511.89546 -41728538.67843  24334756.3984                   24334758.0864
 -37465502.14548 -29166716.26146  20956248.8594                   20956247.6214
   4141056.29346   3241974.37643  23680100.1174                   23680101.6334
 -36234131.40648 -28202145.56247  20319519.1024                   20319517.8444
 -52072719.01647 -40543274.79746  21269567.9454                   21269565.5664
 -17281404.67648 -13433801.24346  21867996.9064                   21867997.8094
 -13217325.91447 -10235757.40445  21989758.8284                   21989758.1954
 11  8 26  1 20 30.0000000  0  9G26G10G04G12G29G05G02G25G30
  14562771.53146  11363769.24543  24779030.9844                   24779034.0784
 -39383959.88746 -30658837.09844  22522329.5944                   22522330.1214
 -53613615.33246 -41739528.30243  24332072.4064                   24332074.1684
 -37528469.33647 -29215781.62846  20944266.3204                   20944265.3094
   3964799.33646   3104631.39643  23646559.5944                   23646560.2704
 -36334821.87948 -28280605.64447  20300358.3984                   20300357.4534
 -52133990.57047 -40591018.88146  21257908.1564                   21257905.5474
 -17410075.56648 -13534064.26246  21843511.5784                   21843512.6914
 -13340841.14847 -10332002.99745  21966254.4304                   21966253.4774
 11  8 26  1 21  0.0000000  0  9G26G10G04G12G29G05G02G25G30
  14377658.89546  11219525.89343  24743805.4384                   24743807.5204
 -39386869.08646 -30661104.04244  22521776.7734                   22521776.6804
 -53627780.43746 -41750566.08242  24329376.4224                   24329378.3914
 -37590886.20348 -29264418.15446  20932389.0634                   20932388.1484
   3788517.33646   2967268.95643  23613014.1414                   23613013.1294
 -36434938.50448 -28358618.57847  20281306.7584                   20281305.4144
 -52195155.48847 -40638679.86446  21246269.1174                   21246265.9884
 -17538196.00448 -13633898.35246  21819130.9144                   21819131.8984
 -13463768.47747 -10427790.49445  21942862.1884                   21942862.3014
 11  8 26  1 21 30.0000000  0  9G26G10G04G12G29G05G02G25G30
  14192419.05547  11075183.41044  24708555.7974                   24708558.4184
 -39389454.46546 -30663118.62344  22521283.9844                   22521284.4694
 -53642007.74646 -41761652.31242  24326669.3524                   24326670.7464
 -37652754.33648 -29312627.11046  20920615.9224                   20920614.7974
   3612210.93046   2829887.37243  23579464.8134                   23579464.5004
 -36534481.96948 -28436184.89147  20262364.5084                   20262363.2384
 -52256215.17247 -40686258.84446  21234650.1954                   21234646.7034
 -17665765.30147 -13733302.97646  21794855.2274                   21794856.0704
 -13586107.71947 -10523119.74045  21919581.5474                   21919581.2774
 11  8 26  1 22  0.0000000  0  9G26G10G04G12G29G05G02G25G30
  14007055.75446  10930744.76443  24673281.3754                   24673284.8014
 -39391718.07846 -30664882.50544  22520853.7274                   22520854.0004
 -53656296.66446 -41772786.55942  24323950.1174                   24323951.5904
 -37714073.91048 -29360408.60746  20908947.3524                   20908946.5084
   3435882.41047   2692488.56543  23545910.9304                   23545909.0634
 -36633451.84448 -28513304.24247  20243531.0944                   20243529.9964
 -52317169.25047 -40733755.53546  21223050.5164                   21223047.6334
 -17792781.36348 -13832276.52646  21770684.6564                   21770685.7664
 -13707857.17647 -10617989.42845  21896413.6724                   21896412.8444
 11  8 26  1 22 30.0000000  0  9G26G10G04G12G29G05G02G25G30
  13821571.73446  10786212.05143  24637984.9924                   24637988.1094
 -39393662.84846 -30666397.93444  22520483.9534                   22520483.8834
 -53670647.32446 -41783968.88742  24321219.3444                   24321221.4064
 -37774846.35248 -29407763.77346  20897382.8134                   20897381.7274
   3259533.02346   2555073.53943  23512352.2974                   23512351.5084
 -36731848.29348 -28589976.78047  20224806.8284                   20224805.4804
 -52378018.27048 -40781170.37146  21211471.9064                   21211468.6414
 -17919243.21947 -13930818.23846  21746619.5784                   21746621.0514
 -13829016.09047 -10712398.94745  21873357.8914                   21873356.9264
 11  8 26  1 23  0.0000000  0  9G26G10G04G12G29G05G02G25G30
  13635972.23846  10641589.38843  24602665.9454                   24602669.5634
 -39395289.14146 -30667665.21344  22520174.4534                   22520174.1374
 -53685058.14846 -41795198.14743  24318477.5864                   24318478.5204
 -37835071.25848 -29454692.28646  20885922.2344                   20885920.9884
   3083165.89546   2417644.65243  23478790.6334                   23478791.3984
 -36829669.45748 -28666201.02947  20206191.8284                   20206190.7704
 -52438760.88748 -40828502.27146  21199912.9304                   21199909.6684
 -18045147.49647 -14028925.46046  21722661.0864                   21722662.4654
 -13949581.49247 -10806345.99545  21850414.7664                   21850414.5234
 11  8 26  1 23 30.0000000  0  9G26G10G04G12G29G05G02G25G30
  13450258.07446  10496877.35943  24567325.7194                   24567328.2114
 -39396601.91447 -30668688.20245  22519924.6724                   22519924.5984
 -53699531.06646 -41806475.75743  24315723.3984                   24315724.7734
 -37894751.72748 -29501196.56846  20874565.4384                   20874564.7584
   2906780.55146   2280201.69143  23445225.4144                   23445225.7584
 -36926917.82448 -28741978.95747  20187686.2344                   20187684.9844
 -52499399.30948 -40875752.98646  21188373.8524                   21188370.1134
 -18170495.20748 -14126599.00546  21698807.9064                   21698809.6174
 -14069554.68447 -10899831.58945  21827584.5944                   21827584.5474
 11  8 26  1 24  0.0000000  0  9G26G10G04G12G29G05G02G25G30
  13264430.84446  10352077.18743  24531963.0634                   24531966.3634
 -39397605.59447 -30669470.29445  22519733.9924                   22519733.5084
 -53714067.94146 -41817803.19643  24312957.5004                   24312958.7074
 -37953890.33247 -29547278.62446  20863311.6174                   20863310.8444
   2730376.68846   2142744.13843  23411656.4454                   23411657.0984
 -37023595.16448 -28817311.91947  20169288.8054                   20169287.5704
 -52559935.43447 -40922923.99146  21176854.1414                   21176850.7034
 -18295286.68748 -14223839.13446  21675061.1644                   21675062.4414
 -14188936.42647 -10992856.30245  21804867.5474                   21804866.7424
 11  8 26  1 24 30.0000000  0  9G26G10G04G12G29G05G02G25G30
  13078495.56346  10207192.83043  24496581.3754                   24496585.0864
 -39398300.80147 -30670012.04244  22519601.4384                   22519601.3754
 -53728666.72747 -41829178.88443  24310178.6884                   24310180.8524
 -38012486.35948 -29592937.87546  20852161.4614                   20852160.0084
   2553958.29346   2005275.27743  23378085.6884                   23378085.2704
 -37119699.53948 -28892198.41447  20151000.9534                   20150999.7974
 -52620367.82048 -40970014.15446  21165354.2424                   21165350.7034
 -18419518.69947 -14320643.30046  21651420.9224                   21651422.3794
 -14307723.84447 -11085417.91945  21782262.9384                   21782262.3594
 11  8 26  1 25  0.0000000  0  9G26G10G04G12G29G05G02G25G30
  12892454.33246  10062225.94043  24461178.5474                   24461180.6844
 -39398691.39847 -30670316.43444  22519527.2274                   22519527.0514
 -53743328.86747 -41840603.93643  24307389.3054                   24307390.8954
 -38070542.15248 -29638176.16746  20841113.6724                   20841112.7464
   2377525.15646   1867794.98743  23344512.0164                   23344511.5904
 -37215232.36348 -28966639.55347  20132821.9304                   20132820.7854
 -52680698.12948 -41017024.78346  21153873.2974                   21153870.3954
 -18543191.34447 -14417011.61846  21627886.2664                   21627888.4884
 -14425917.40247 -11177516.79645  21759771.0314                   21759770.2774
 11  8 26  1 25 30.0000000  0  9G26G10G04G12G29G05G02G25G30
  12706311.29346   9917179.58242  24425756.6724                   24425758.0824
 -39398778.95747 -30670384.67344  22519509.8754                   22519509.6054
 -53758053.02747 -41852077.33044  24304586.9924                   24304588.8674
 -38128058.28948 -29682993.96646  20830168.5234                   20830167.9884
   2201080.24246   1730305.50143  23310935.3524                   23310934.1994
 -37310192.99648 -29040634.81847  20114751.2194                   20114750.1214
 -52740925.51648 -41063955.20846  21142413.0864                   21142409.5514
 -18666302.39147 -14512942.30046  21604459.4844                   21604460.8364
 -14543515.18747 -11269151.42745  21737393.3914                   21737392.3954
 11  8 26  1 26  0.0000000  0  9G26G10G04G12G29G05G02G25G30
  14095497.45346  10999662.59442  24690109.3754                   24690112.0744
 -37823144.44147 -29442617.53644  22819343.6644                   22819343.5434
 -52197417.26247 -40635997.50244  24601566.2814                   24601568.3914
 -36609612.21548 -28499789.25346  21119119.1804                   21119118.7274
   3600052.49646   2820413.71143  23577150.6094                   23577148.8714
 -35829156.59447 -27886580.44547  20396582.9774                   20396581.7894
 -51225626.75448 -39883202.89746  21430764.5634                   21430761.6564
 -17213424.81647 -13380829.92446  21880932.7274                   21880934.3984
 -13085090.81647 -10132716.84545  22014921.7504                   22014920.7114
 11  8 26  1 26 30.0000000  0  9G26G10G04G12G29G05G02G25G30
  13909162.86746  10854467.08242  24654650.3204                   24654653.7464
 -37822631.46947 -29442217.82544  22819441.0704                   22819441.3834
 -52212263.46147 -40647565.96744  24598741.3984                   24598742.5204
 -36666049.79348 -28543766.59846  21108379.9144                   21108379.1804
   3423590.71546   2682911.04843  23543570.6174                   23543570.8484
 -35922970.94148 -27959682.51147  20378730.9774                   20378729.8444
 -51285647.01248 -39929971.91646  21419343.1094                   21419339.8244
 -17335406.59047 -13475880.65346  21857720.2274                   21857721.7854
 -13201492.16847 -10223419.21045  21992771.5004                   21992771.3444
 11  8 26  1 27  0.0000000  0  9G26G10G04G12G29G05G02G25G30
  13722737.80946  10709200.98042  24619175.1644                   24619176.7584
 -37821822.00846 -29441587.11044  22819595.0234                   22819595.7854
 -52227170.28947 -40659181.63343  24595904.9844                   24595905.9924
 -36721949.82848 -28587325.08246  21097741.8444                   21097741.6214
   3247123.17646   2545403.96743  23509989.6644                   23509990.9694
 -36016212.43748 -28032338.20047  20360987.5554                   20360986.6024
 -51345564.12547 -39976660.56246  21407941.0314                   21407937.9884
 -17456821.95747 -13570490.04546  21834615.5704                   21834617.3404
 -13317294.01648 -10313654.43545  21970735.4224                   21970734.2544
 11  8 26  1 27 30.0000000  0  9G26G10G04G12G29G05G02G25G30
  13536223.75846  10563865.62942  24583682.8984                   24583683.8094
 -37820720.34046 -29440728.70144  22819805.0474                   22819804.9454
 -52242139.27046 -40670845.79143  24593055.4694                   24593057.8164
 -36777315.05948 -28630466.82846  21087206.4774                   21087205.6024
   3070650.01246   2407892.37143  23476408.0314                   23476408.4414
 -36108883.02348 -28104549.01947  20343352.9774                   20343351.3834
 -51405379.42248 -40023269.87246  21396558.2584                   21396555.9844
 -17577671.13347 -13664658.23646  21811618.8914                   21811621.1174
 -13432497.06647 -10403423.04545  21948812.8754                   21948812.1454
 11  8 26  1 28  0.0000000  0  9G26G10G04G12G29G05G02G25G30
  13349623.32446  10418462.90242  24548173.9454                   24548174.4534
 -37819329.46146 -29439644.95544  22820069.8364                   22820069.5394
 -52257170.93746 -40682558.76343  24590195.1094                   24590197.4144
 -36832147.55148 -28673193.45746  21076772.0314                   21076771.5164
   2894172.35246   2270377.37743  23442825.6174                   23442825.8244
 -36200983.43048 -28176315.54247  20325826.8134                   20325825.6604
 -51465094.10247 -40069800.77046  21385195.3914                   21385192.5784
 -17697953.66847 -13758384.88846  21788729.6954                   21788731.3794
 -13547101.15247 -10492724.95145  21927004.3444                   21927003.8914
 11  8 26  1 28 30.0000000  0  9G26G10G04G12G29G05G02G25G30
  13162939.60246  10272995.29342  24512648.6094                   24512648.8164
 -37817652.48847 -29438338.25744  22820388.9924                   22820388.6844
 -52272265.49646 -40694320.88243  24587322.1724                   24587325.0204
 -36886448.43448 -28715505.83446  21066438.7974                   21066438.1724
   2717691.16046   2132859.67743  23409242.5164                   23409242.6564
 -36292514.37147 -28247638.32847  20308408.9774                   20308407.8094
 -51524708.47748 -40116253.52546  21373850.9144                   21373848.4884
 -17817668.88747 -13851669.47946  21765948.9924                   21765950.3014
 -13661106.06648 -10581559.96545  21905309.9694                   21905308.9344
 11  8 26  1 29  0.0000000  0  9G26G10G04G12G29G05G02G25G30
  12976173.67846  10127463.67642  24477107.4614                   24477109.3244
 -37815694.03546 -29436812.18144  22820761.9774                   22820761.5164
 -52287425.05546 -40706133.47243  24584437.6254                   24584440.0864
 -36940221.84448 -28757407.21346  21056206.0784                   21056205.4384
   2541206.19946   1995338.97443  23375658.9064                   23375657.9304
 -36383478.23848 -28318519.25247  20291099.1564                   20291098.0744
 -51584225.16847 -40162630.13846  21362525.3754                   21362522.8524
 -17936817.73847 -13944512.72746  21743275.6094                   21743277.6914
 -13774513.08247 -10669929.09045  21883729.2504                   21883729.1094
 11  8 26  1 29 30.0000000  0  9G26G10G04G12G29G05G02G25G30
  12789330.98046   9981872.21143  24441552.8834                   24441555.3674
 -37813454.71546 -29435067.27144  22821188.0784                   22821187.1024
 -52302647.52046 -40717995.13743  24581541.5474                   24581543.2464
 -36993467.07048 -28798896.99546  21046074.1954                   21046073.5004
   2364720.87146   1857817.99943  23342074.5704                   23342074.1524
 -36473873.53148 -28388957.11147  20273897.3524                   20273896.2504
 -51643642.36747 -40208929.25246  21351218.6024                   21351215.4224
 -18055397.38747 -14036912.45746  21720710.6564                   21720712.2304
 -13887319.74247 -10757830.38645  21862262.9384                   21862262.4414
 11  8 26  1 30  0.0000000  0  9G26G10G04G12G29G05G02G25G30
  12602413.13746   9836222.19243  24405983.7034                   24405986.1724
 -37810938.95347 -29433106.95544  22821666.6024                   22821666.3164
 -52317934.51646 -40729907.02342  24578631.9844                   24578634.6684
 -37046186.96948 -28839977.44946  21036042.0394                   21036041.1604
   2188235.47746   1720296.93043  23308490.8984                   23308489.3284
 -36563702.43748 -28458953.64047  20256803.5474                   20256802.4884
 -51702961.92647 -40255152.27046  21339930.6334                   21339927.8524
 -18173408.37947 -14128869.05646  21698253.9064                   21698255.2664
 -13999527.03948 -10845264.66445  21840910.6804                   21840910.2934
 11  8 26  1 30 30.0000000  0  9G26G10G04G12G29G05G02G25G30
  12415424.19146   9690516.68643  24370400.8524                   24370403.1024
 -37808148.48047 -29430932.59844  22822196.9534                   22822197.5554
 -52333284.93046 -40741868.37542  24575711.5004                   24575713.3914
 -37098382.13748 -28880649.01746  21026109.3524                   21026108.5824
   2011752.13746   1582777.48743  23274906.7894                   23274906.2974
 -36652964.53148 -28528508.49447  20239817.4454                   20239816.9224
 -51762183.39548 -40301298.87046  21328660.8674                   21328658.4064
 -18290848.92648 -14220381.16846  21675905.6414                   21675907.2974
 -14111133.50048 -10932230.74045  21819672.4774                   21819672.3914
 11  8 26  1 31  0.0000000  0  9G26G10G04G12G29G05G02G25G30
  12228366.02047   9544757.31943  24334804.8984                   24334807.6254
 -37805087.32846 -29428547.30044  22822779.7194                   22822780.5004
 -52348700.31246 -40753880.39142  24572778.2734                   24572780.4184
 -37150055.42648 -28920913.92946  21016276.4924                   21016275.7774
   1835271.21946   1445259.91943  23241323.9924                   23241322.4534
 -36741661.36348 -28597622.89047  20222939.2814                   20222938.5394
 -51821308.15248 -40347370.10646  21317409.8674                   21317406.9064
 -18407719.56248 -14311449.18846  21653665.6094                   21653667.5004
 -14222140.07447 -11018729.38945  21798548.9534                   21798548.9774
 11  8 26  1 31 30.0000000  0  9G26G10G04G12G29G05G02G25G30
  12041242.53947   9398947.06943  24299196.4534                   24299198.7974
 -37801757.76246 -29425952.89344  22823413.8204                   22823414.5434
 -52364180.16846 -40765942.60542  24569832.2974                   24569833.6094
 -37201207.71548 -28960772.86846  21006542.5944                   21006542.0234
   1658795.12146   1307746.13743  23207742.1174                   23207740.8244
 -36829793.43048 -28666297.20747  20206168.0554                   20206167.1644
 -51880335.98448 -40393365.81846  21306177.3364                   21306174.7664
 -18524018.97347 -14402072.09446  21631534.9304                   21631536.2854
 -14332545.87147 -11104759.87045  21777539.1884                   21777539.1214
 11  8 26  1 32  0.0000000  0  9G26G10G04G12G29G05G02G25G30
  11854055.89147   9253087.56043  24263575.4384                   24263577.7154
 -37798163.43046 -29423152.12444  22824097.7504                   22824098.5044
 -52379725.56246 -40778055.90943  24566873.8134                   24566875.1954
 -37251842.05148 -29000228.20346  20996907.2034                   20996906.9024
   1482324.44146   1170236.55543  23174160.7194                   23174160.3594
 -36917362.27748 -28734532.65247  20189504.0164                   20189503.4064
 -51939268.64147 -40439287.35646  21294962.8754                   21294959.6604
 -18639747.43448 -14492250.11546  21609512.1414                   21609514.2074
 -14442351.59047 -11190322.80145  21756643.9924                   21756643.9024
 11  8 26  1 32 30.0000000  0  9G26G10G04G12G29G05G02G25G30
  11666810.55947   9107182.32143  24227943.9844                   24227945.5594
 -37794306.18046 -29420146.53344  22824832.0004                   22824832.4024
 -52395335.11346 -40790219.19043  24563903.6334                   24563905.2664
 -37301958.89848 -29039280.32046  20987370.1644                   20987369.7274
   1305861.79746   1032733.25543  23140580.2344                   23140580.1334
 -37004367.28948 -28802328.75047  20172947.6954                   20172946.8954
 -51998104.94148 -40485133.83246  21283766.7734                   21283763.7544
 -18754902.95348 -14581981.67446  21587598.8914                   21587601.0514
 -14551555.52347 -11275416.77045  21735863.0474                   21735863.1524
 11  8 26  1 33  0.0000000  0  9G26G10G04G12G29G05G02G25G30
  11479509.23846   8961233.48443  24192301.0944                   24192302.5514
 -37790189.03546 -29416938.36644  22825615.5864                   22825615.2074
 -52411009.42247 -40802432.95543  24560920.8284                   24560922.7504
 -37351560.19548 -29077930.69646  20977931.2194                   20977930.5004
   1129408.10546    895236.91243  23107001.6484                   23107001.7934
 -37090809.83248 -28869686.54847  20156498.3204                   20156497.3484
 -52056845.91048 -40530906.01746  21272588.5704                   21272585.6684
 -18869485.40648 -14671266.69546  21565794.6094                   21565796.3594
 -14660158.05947 -11360042.12245  21715196.7424                   21715196.0234
 11  8 26  1 33 30.0000000  0  8G26G10G12G29G05G02G25G30
  11292153.43047   8815242.10743  24156648.8284                   24156649.6454
 -37785816.24646 -29413530.99644  22826447.7894                   22826447.0984
 -37400649.20748 -29116181.89346  20968590.0864                   20968589.6604
    952963.62546    757747.80643  23073425.3754                   23073425.7344
 -37176692.35948 -28936607.97747  20140155.3834                   20140154.4654
 -52115493.27348 -40576605.25446  21261428.6094                   21261425.5044
 -18983495.55547 -14760105.76346  21544099.2974                   21544100.6214
 -14768160.40247 -11444199.81445  21694644.7814                   21694644.5084
 11  8 26  1 34  0.0000000  0  8G26G10G12G29G05G02G25G30
  11104748.99647   8669212.85743  24120985.9614                   24120988.0354
 -37781188.51646 -29409924.99944  22827327.9304                   22827327.9144
 -37449225.25848 -29154033.38746  20959346.5784                   20959345.5664
    776531.98046    620268.63443  23039852.0474                   23039851.1414
 -37262012.94148 -29003091.53647  20123919.0704                   20123918.5744
 -52174045.16848 -40622230.10946  21250286.0554                   21250283.3244
 -19096930.59448 -14848496.69846  21522513.5944                   21522514.7154
 -14875560.00847 -11527887.84545  21674207.2974                   21674207.4654
 11  8 26  1 34 30.0000000  0  8G26G10G12G29G05G02G25G30
  12492735.60547   9750761.12543  24385111.4224                   24385112.7704
 -36200878.30146 -28178514.43944  23128050.5784                   23128051.3554
 -35921858.35548 -27963877.37346  21249994.4144                   21249993.6524
   2175551.28546   1710413.62343  23306076.3284                   23306075.4884
 -35771339.26248 -27841527.61147  20407584.7734                   20407584.2424
 -50657069.48848 -39440171.12946  21538957.0634                   21538954.2194
 -17634355.81248 -13708828.02046  21800831.9064                   21800834.0594
 -13406922.87547 -10383495.26745  21953679.8984                   21953678.9694
 11  8 26  1 35  0.0000000  0  8G26G10G12G29G05G02G25G30
  12305267.77746   9604682.48343  24349437.4534                   24349438.4654
 -36195724.10946 -28174498.24744  23129031.7424                   23129032.4884
 -35969389.34048 -28000914.51146  21240949.7734                   21240948.5944
   1999174.94146   1572977.54743  23272513.8204                   23272512.0124
 -35855514.35548 -27907118.56247  20391567.1804                   20391566.3794
 -50715406.72748 -39485628.70146  21527855.7894                   21527852.3244
 -17746614.27048 -13796302.13946  21779470.0314                   21779471.2544
 -13513092.05147 -10466224.50545  21933476.4224                   21933475.5634
 11  8 26  1 35 30.0000000  0  8G26G10G12G29G05G02G25G30
  12117771.88746   9458581.98943  24313757.2424                   24313759.5984
 -36190312.29746 -28170281.27944  23130061.3914                   23130062.2074
 -36016401.86347 -28037547.65746  21232003.4844                   21232002.5004
   1822827.20346   1435563.85343  23238955.5784                   23238953.7854
 -35939119.29748 -27972265.26247  20375657.6484                   20375656.8874
 -50773638.53948 -39531004.13846  21516774.6724                   21516771.5824
 -17858284.94948 -13883318.23446  21758219.8594                   21758221.1954
 -13618647.12947 -10548475.22445  21913390.1644                   21913389.4534
 11  8 26  1 36  0.0000000  0  8G26G10G12G29G05G02G25G30
  11930248.72746   9312460.25643  24278072.3834                   24278074.8484
 -36184647.98446 -28165867.57143  23131139.3134                   23131139.3634
 -36062900.63748 -28073780.47946  21223154.9614                   21223154.3834
   1646507.31646   1298171.78243  23205402.5234                   23205402.3094
 -36022157.48448 -28036970.31547  20359855.8674                   20359855.0164
 -50831767.79347 -39576299.66046  21505713.6174                   21505710.5234
 -17969369.85948 -13969877.89146  21737081.0554                   21737082.1024
 -13723590.58647 -10630249.33445  21893419.8444                   21893419.1884
 11  8 26  1 36 30.0000000  0  8G26G10G12G29G05G02G25G30
  11742703.03946   9166320.99743  24242383.9534                   24242385.9534
 -36178732.32446 -28161257.94543  23132265.1024                   23132264.8284
 -36108885.61348 -28109612.93646  21214404.1254                   21214403.5274
   1470218.62546   1160804.05143  23171856.0864                   23171856.5664
 -36104627.80548 -28101232.88347  20344162.3284                   20344161.2274
 -50889793.04348 -39621514.14146  21494671.6414                   21494668.4844
 -18079866.78548 -14055979.37645  21716054.2274                   21716055.1214
 -13827920.59048 -10711545.44245  21873566.4844                   21873566.2234
 11  8 26  1 37  0.0000000  0  8G26G10G12G29G05G02G25G30
  11555134.29346   9020163.69043  24206690.8284                   24206692.6954
 -36172572.19147 -28156457.85043  23133437.4614                   23133436.9734
 -36154362.37147 -28145049.37846  21205750.4304                   21205749.7504
   1293958.49646   1023458.57143  23138314.7424                   23138315.6884
 -36186535.41048 -28165056.96947  20328575.8204                   20328574.8404
 -50947718.56648 -39666650.89946  21483648.3834                   21483645.1914
 -18189779.21948 -14141625.40646  21695138.6884                   21695139.6334
 -13931641.10548 -10792366.61245  21853828.9304                   21853828.7894
 11  8 26  1 37 30.0000000  0  8G26G10G12G29G05G02G25G30
  11367546.85246   8873991.83843  24170994.5554                   24170995.1334
 -36166169.28947 -28151468.62043  23134655.9144                   23134655.3554
 -36199331.61348 -28180090.35746  21197192.9064                   21197192.8714
   1117729.86746    886137.64643  23104779.3984                   23104778.9184
 -36267880.34848 -28228442.61047  20313096.3984                   20313095.3954
 -51005543.53148 -39711709.29646  21472644.7894                   21472641.6564
 -18299105.73848 -14226814.91546  21674334.2974                   21674335.7544
 -14034751.03148 -10872711.99546  21834207.8444                   21834208.0274
 11  8 26  1 38  0.0000000  0  8G26G10G12G29G05G02G25G30
  11179940.37146   8727805.17443  24135293.4614                   24135294.8874
 -36159529.66047 -28146294.90643  23135919.4774                   23135918.7624
 -36243798.90248 -28214740.21146  21188731.1724                   21188730.6294
    941530.66846    748839.58343  23071248.8204                   23071249.0124
 -36348666.78548 -28291393.05747  20297723.1804                   20297721.9414
 -51063271.87148 -39756692.40646  21461659.1724                   21461656.3134
 -18407849.38748 -14311550.21746  21653641.1564                   21653642.6134
 -14137253.92248 -10952584.36046  21814702.4224                   21814702.5434
 11  8 26  1 38 30.0000000  0  8G26G10G12G29G05G02G25G30
  10992319.40247   8581607.09543  24099590.1644                   24099592.1254
 -36152655.25047 -28140938.24744  23137227.9064                   23137227.3364
 -36287765.24248 -28248999.70046  21180364.7734                   21180364.4344
    765363.87946    611566.84543  23037726.0704                   23037725.5354
 -36428895.03148 -28353908.54947  20282456.2194                   20282455.0904
 -51120902.86748 -39801599.67146  21450692.5314                   21450689.3874
 -18516008.82848 -14395830.28946  21633059.2194                   21633060.5394
 -14239148.84848 -11031982.97545  21795312.2344                   21795311.6764
 11  8 26  1 39  0.0000000  0  8G26G10G12G29G05G02G25G30
  10804684.76646   8435398.52443  24063884.4304                   24063886.0474
 -36145551.22347 -28135402.68144  23138579.7194                   23138579.9884
 -36331235.27348 -28282872.48046  21172092.8984                   21172091.9384
    589228.66846    474318.65443  23004208.9844                   23004207.6724
 -36508568.12948 -28415991.45647  20267295.0704                   20267293.5204
 -51178439.01648 -39846433.02546  21439744.0164                   21439740.8594
 -18623586.03548 -14479656.67446  21612587.7664                   21612588.9144
 -14340438.21148 -11110909.72946  21776037.4534                   21776037.2384
 11  8 26  1 39 30.0000000  0  8G26G10G12G29G05G02G25G30
  10617039.31647   8289181.48743  24028176.4224                   24028177.8094
 -36138220.80147 -28129690.71944  23139974.3364                   23139973.7464
 -36374211.12148 -28316360.16946  21163914.8364                   21163914.3634
    413126.24646    337096.00443  22970697.6094                   22970696.7974
 -36587687.68048 -28477643.03147  20252239.0554                   20252237.6054
 -51235881.14148 -39891193.10146  21428813.0234                   21428809.9104
 -18730581.21948 -14563029.54646  21592227.3524                   21592228.9494
 -14441122.62148 -11189365.08446  21756878.1024                   21756877.9304
 11  8 26  1 40  0.0000000  0  8G26G10G12G29G05G02G25G30
  10429386.12547   8142958.33143  23992467.7504                   23992468.8794
 -36130666.78147 -28123804.50644  23141412.0084                   23141411.9574
 -36416695.06648 -28349464.55046  21155830.2894                   21155829.5124
    237058.04346    199900.00243  22937193.1884                   22937192.7544
 -36666255.12948 -28538864.39947  20237288.2894                   20237286.3324
 -51293229.55548 -39935880.17146  21417900.0164                   21417896.7934
 -18836994.23048 -14645948.77046  21571977.6334                   21571978.6764
 -14541202.38348 -11267349.29246  21737833.1644                   21737833.1804
 11  8 26  1 40 30.0000000  0  8G26G10G12G29G05G02G25G30
  10241728.35947   7996731.66243  23956757.6644                   23956758.2194
 -36122892.34847 -28117746.52844  23142891.4614                   23142891.5474
 -36458689.10548 -28382187.19746  21147838.9454                   21147838.4064
     61025.32046     62731.71043  22903695.0784                   22903695.1334
 -36744271.73448 -28599656.52847  20222442.2584                   20222440.6294
 -51350484.95348 -39980494.75146  21407004.3204                   21407001.1334
 -18942825.21148 -14728414.47346  21551838.4844                   21551840.3484
 -14640678.08248 -11344862.79546  21718903.8444                   21718903.8284
 11  8 26  1 41  0.0000000  0  8G26G10G12G29G05G02G25G30
  10054068.45347   7850503.32243  23921047.2034                   23921047.1214
 -36114900.91047 -28111519.45044  23144412.4304                   23144412.4844
 -36500196.42248 -28414530.56246  21139940.3444                   21139939.7034
   -114971.01646    -74408.29343  22870203.6094                   22870204.1484
 -36821739.54348 -28660021.03247  20207700.3524                   20207698.8284
 -51407648.51248 -40025037.78646  21396126.6334                   21396123.6604
 -19048074.59848 -14810426.97646  21531810.3524                   21531811.7734
 -14739550.61348 -11421906.31346  21700088.8134                   21700088.3914
 11  8 26  1 41 30.0000000  0  8G26G10G12G29G05G02G25G30
   9866413.36747   7704278.77544  23885336.8204                   23885337.9924
 -36106691.92247 -28105122.85144  23145975.0004                   23145975.0164
 -36541215.44948 -28446493.45646  21132135.0084                   21132133.7934
   -290925.62546   -211515.75643  22836720.6804                   22836720.5124
 -36898656.13748 -28719956.00947  20193063.5864                   20193062.0234
 -51464716.93748 -40069506.68446  21385266.8984                   21385264.1054
 -19152738.74248 -14891983.45146  21511893.5394                   21511895.1374
 -14837816.79748 -11498477.35346  21681389.2814                   21681389.3524
 11  8 26  1 42  0.0000000  0  8G26G10G12G29G05G02G25G30
   9678763.71946   7558058.39843  23849628.4454                   23849629.0944
 -36098270.60547 -28098560.82844  23147576.6174                   23147577.1914
 -36581751.07848 -28478079.68646  21124421.2894                   21124421.0164
   -466839.45346   -348591.43144  22803245.4384                   22803245.6454
 -36975025.39548 -28779464.50447  20178531.1254                   20178529.3244
 -51521693.13748 -40113903.70846  21374424.9454                   21374421.9304
 -19256820.10248 -14973085.81046  21492087.1564                   21492089.0204
 -14935479.45748 -11574578.10246  21662804.8834                   21662804.6644
 11  8 26  1 42 30.0000000  0  8G26G10G12G29G05G02G25G30
   9491121.77746   7411844.07343  23813921.1174                   23813921.2344
 -36089641.19547 -28091836.70144  23149218.7734                   23149219.9574
 -36621806.34848 -28509291.59446  21116799.2974                   21116798.6564
   -642711.96946   -485634.91743  22769778.2344                   22769777.2034
 -37050849.37148 -28838548.09647  20164101.9774                   20164100.5434
 -51578578.60548 -40158230.05346  21363599.8284                   21363597.0394
 -19360319.77048 -15053734.90646  21472392.0784                   21472393.6174
 -15032540.18747 -11650209.83746  21644335.0864                   21644334.4384
 11  8 26  1 43  0.0000000  0  8G26G10G12G29G05G02G25G30
  10878914.91846   8493241.47644  24078009.3364                   24078009.7384
 -34505388.69146 -26857354.22643  23450691.5634                   23450693.1134
 -35085964.14848 -27312531.45146  21409060.3444                   21409059.7424
    756882.10246    604957.81943  23036112.5164                   23036111.3674
 -35550709.22748 -27669607.70147  20449569.3594                   20449567.9224
 -50059953.98448 -38974886.19646  21652584.4924                   21652581.7034
 -17887816.37948 -13906329.68046  21752600.1024                   21752601.5004
 -13553578.30948 -10497772.00846  21925772.1484                   21925772.0354
 11  8 26  1 43 30.0000000  0  8G26G10G12G29G05G02G25G30
  10691295.25446   8347044.55943  24042305.8284                   24042307.2934
 -34496353.79747 -26850314.10643  23452411.1884                   23452411.5394
 -35125068.41048 -27343002.31946  21401619.0554                   21401618.5704
    581094.14846    467980.19743  23002661.0554                   23002660.2114
 -35625449.53548 -27727846.88547  20435346.4454                   20435345.5354
 -50116661.49248 -39019073.86746  21641793.3444                   21641790.2234
 -17990155.26248 -13986074.27946  21733125.7274                   21733127.2664
 -13649439.14148 -10572468.77046  21907530.1334                   21907530.2194
 11  8 26  1 44  0.0000000  0  8G26G10G12G29G05G02G25G30
  10503692.48446   8200860.70343  24006606.5234                   24006607.0944
 -34487119.47747 -26843118.58443  23454169.1334                   23454168.1134
 -35163699.88748 -27373104.76846  21394267.6094                   21394267.2034
    405351.81646    331038.10343  22969218.3594                   22969217.3404
 -35699649.54748 -27785665.06047  20421227.0634                   20421225.6254
 -50173279.75448 -39063191.99946  21631019.4774                   21631016.4454
 -18091913.03548 -14065366.06246  21713761.8054                   21713763.3594
 -13744699.92647 -10646697.95346  21889403.0704                   21889402.4104
 11  8 26  1 44 30.0000000  0  8G26G10G12G29G05G02G25G30
  10316109.36746   8054692.19943  23970910.3054                   23970911.2154
 -34477689.46547 -26835770.53343  23455963.3444                   23455962.8164
 -35201860.71948 -27402840.49746  21387005.9224                   21387005.1644
    229656.22746    194132.45744  22935784.5864                   22935784.0084
 -35773311.03148 -27843063.60847  20407209.2734                   20407208.3794
 -50229809.62148 -39107241.25246  21620262.0314                   21620259.1764
 -18193090.21948 -14144205.44246  21694508.6174                   21694509.8484
 -13839361.68748 -10720460.35446  21871389.3674                   21871388.8984
 11  8 26  1 45  0.0000000  0  8G26G10G12G29G05G02G25G30
  10128546.73046   7908539.65944  23935218.2344                   23935218.9494
 -34468069.51247 -26828274.46943  23457793.7424                   23457793.5124
 -35239556.56648 -27432213.90246  21379832.8284                   21379832.3404
     54006.42246     57262.49743  22902358.7974                   22902359.6454
 -35846437.95748 -27900045.61347  20393293.7504                   20393292.5354
 -50286254.00848 -39151223.90046  21609520.7974                   21609518.3444
 -18293689.66048 -14222594.60946  21675364.7424                   21675366.0554
 -13933427.68048 -10793758.54046  21853489.1884                   21853488.6174
 11  8 26  1 45 30.0000000  0  8G26G10G12G29G05G02G25G30
   9941008.33246   7762406.00444  23899530.6804                   23899531.2894
 -34458261.35547 -26820631.75643  23459660.7194                   23459659.9264
 -35276789.01248 -27461226.20246  21372747.4844                   21372746.9734
   -121595.33646    -79570.05344  22868943.6724                   22868943.1524
 -35919031.12548 -27956611.69947  20379479.7344                   20379479.0824
 -50342612.73448 -39195139.78746  21598796.1484                   21598793.5004
 -18393710.72748 -14300533.10946  21656331.6724                   21656332.9064
 -14026897.84848 -10866592.43546  21835702.1564                   21835702.0594
 11  8 26  1 46  0.0000000  0  8G26G10G12G29G05G02G25G30
   9753499.13746   7616295.05243  23863849.1174                   23863849.9734
 -34448265.91047 -26812843.13943  23461562.5314                   23461562.0314
 -35313558.68448 -27489877.92146  21365750.4694                   21365749.6564
   -297145.77046   -216362.52244  22835537.6254                   22835537.7624
 -35991090.47748 -28012761.84147  20365767.3054                   20365766.5124
 -50398884.40248 -39238987.84946  21588088.0634                   21588085.2034
 -18493152.02048 -14378019.83946  21637408.6414                   21637409.8404
 -14119771.00448 -10938961.15546  21818029.2664                   21818029.2774
 11  8 26  1 46 30.0000000  0  8G26G10G12G29G05G02G25G30
   9566023.26246   7470210.11844  23828173.1254                   23828173.8794
 -34438085.72747 -26804910.53944  23463499.8284                   23463499.6644
 -35349867.24648 -27518170.32246  21358840.9774                   21358840.7774
   -472642.63746   -353113.36744  22802141.5394                   22802141.0634
 -36062616.59448 -28068496.46147  20352156.3444                   20352155.5274
 -50455068.50448 -39282767.67546  21577396.8054                   21577393.2934
 -18592012.98848 -14455054.36646  21618596.0474                   21618597.3914
 -14212047.22348 -11010864.70046  21800469.6174                   21800469.3674
 11  8 26  1 47  0.0000000  0  8G26G10G12G29G05G02G25G30
   9378584.26646   7324153.88444  23792504.6414                   23792505.2854
 -34427723.05947 -26796835.77744  23465471.9534                   23465472.1134
 -35385716.44548 -27546104.78346  21352019.3204                   21352018.5204
   -648083.77047   -489820.74244  22768756.2114                   22768755.6294
 -36133610.37148 -28123816.27347  20338646.8754                   20338646.1254
 -50511165.04748 -39326479.27146  21566721.8364                   21566718.8324
 -18690293.45748 -14531636.55646  21599893.9614                   21599895.1454
 -14303726.74247 -11082303.30546  21783023.4844                   21783023.1804
 11  8 26  1 47 30.0000000  0  8G26G10G12G29G05G02G25G30
   9191186.11346   7178129.49843  23756843.6334                   23756844.7384
 -34417180.32047 -26788620.66144  23467478.5234                   23467477.9104
 -35421107.88748 -27573682.53946  21345284.8594                   21345284.0864
   -823466.65647   -626482.69344  22735382.0314                   22735380.9264
 -36204072.99648 -28178722.20147  20325238.3524                   20325237.0044
 -50567173.90648 -39370122.54346  21556063.7114                   21556060.4884
 -18787993.09848 -14607766.15846  21581302.2034                   21581304.2344
 -14394809.71948 -11153277.04146  21765691.0704                   21765690.9774
 11  8 26  1 48  0.0000000  0  8G26G10G12G29G05G02G25G30
   9003828.61346   7032136.79144  23721190.4384                   23721192.0704
 -34406463.90247 -26780270.25044  23469517.7424                   23469517.4064
 -35456047.96147 -27600908.58546  21338635.4384                   21338634.9734
   -998793.43747   -763100.90944  22702018.2424                   22702016.7384
 -36274009.77748 -28233218.38247  20311929.7584                   20311928.4264
 -50623098.68448 -39413700.28246  21545421.2194                   21545418.1214
 -18885115.68048 -14683446.07946  21562820.7274                   21562821.7114
 -14485300.36347 -11223789.25046  21748470.9694                   21748470.7774
 11  8 26  1 48 30.0000000  0  8G26G10G12G29G05G02G25G30
   8816517.56346   6886180.24644  23685546.6564                   23685547.8984
 -34395574.16847 -26771784.78744  23471589.4844                   23471589.9494
 -35490537.18747 -27627783.34746  21332072.7734                   21332071.9384
  -1174060.15247   -899672.32044  22668666.2114                   22668665.2304
 -36343419.82048 -28287304.12047  20298721.4534                   20298720.0234
 -50678937.28548 -39457210.89646  21534795.3204                   21534792.5234
 -18981659.22748 -14758674.81546  21544448.6954                   21544450.1844
 -14575197.14848 -11293838.69946  21731364.5164                   21731364.4344
 11  8 26  1 49  0.0000000  0  8G26G10G12G29G05G02G25G30
   8629256.12146   6740262.37144  23649912.1954                   23649912.7194
 -34384513.64546 -26763166.18843  23473693.7114                   23473695.0634
 -35524577.18047 -27654308.04246  21325595.3134                   21325594.1844
  -1349264.69947  -1036195.33644  22635325.3674                   22635325.3554
 -36412304.22748 -28340980.26947  20285612.7424                   20285611.4964
 -50734689.75848 -39500654.37446  21524185.9694                   21524183.2034
 -19077623.87148 -14833452.47446  21526187.6254                   21526188.6094
 -14664500.65648 -11363425.84946  21714370.3054                   21714370.5084
 11  8 26  1 49 30.0000000  0  9G26G10G15G12G29G05G02G25G30
   8442045.89146   6594384.41044  23614287.2584                   23614287.1884
 -34373287.39146 -26754418.48943  23475829.7584                   23475831.0864
  20209523.34855  15763965.46054  24516557.4534                   24516561.3524
 -35558172.87947 -27680486.51746  21319201.9774                   21319201.5044
  -1524407.44547  -1172670.14244  22601997.3054                   22601996.6024
 -36480666.95348 -28394249.91247  20272603.8754                   20272602.3914
 -50790358.85248 -39544032.89046  21513592.8754                   21513589.8444
 -19173012.15248 -14907781.00846  21508035.6804                   21508037.3364
 -14753213.91448 -11432553.06545  21697488.8284                   21697489.1094
 11  8 26  1 50  0.0000000  0  9G26G10G15G12G29G05G02G25G30
   8254883.20346   6448543.45044  23578670.5634                   23578671.3674
 -34361905.22346 -26745549.31243  23477995.6484                   23477997.0234
  20023843.78146  15619280.47243  24481223.5704                   24481227.1914
 -35591333.64147 -27706326.09746  21312892.0084                   21312891.3404
  -1699493.72347  -1309100.93944  22568679.3594                   22568679.8794
 -36548516.54348 -28447119.71647  20259692.7974                   20259691.5164
 -50845951.67248 -39587351.96346  21503014.0394                   21503010.9614
 -19267831.43747 -14981666.18046  21489992.3674                   21489993.8244
 -14841344.72348 -11501226.44146  21680718.1094                   21680718.4104
 11  8 26  1 50 30.0000000  0  9G26G10G15G12G29G05G02G25G30
   8067771.89146   6302742.52444  23543064.7664                   23543065.5084
 -34350369.41846 -26736560.37243  23480191.1484                   23480191.4534
  19838026.03146  15474487.78344  24445863.7894                   24445866.0124
 -35624061.17648 -27731828.09746  21306663.8594                   21306663.5164
  -1874521.32446  -1445486.01844  22535372.9534                   22535372.6604
 -36615853.91448 -28499590.39247  20246878.9694                   20246877.3244
 -50901467.75848 -39630611.25646  21492449.6334                   21492446.6094
 -19362081.46548 -15055107.76346  21472056.9924                   21472058.4494
 -14928893.35547 -11569446.15845  21664058.3204                   21664058.3874
 11  8 26  1 51  0.0000000  0  9G26G10G15G12G29G05G02G25G30
   7880714.41046   6156983.53244  23507469.4304                   23507468.5744
 -34338683.56246 -26727454.56943  23482415.6024                   23482415.1134
  19652071.32846  15329588.40543  24410477.7734                   24410479.4924
 -35656359.19547 -27756995.41146  21300517.6564                   21300517.0594
  -2049489.10546  -1581824.49044  22502077.3364                   22502077.1414
 -36682681.98448 -28551664.20247  20234161.7034                   20234160.3674
 -50956908.47747 -39673811.79946  21481899.7194                   21481896.7814
 -19455763.57447 -15128106.83346  21454229.8524                   21454231.5704
 -15015861.52747 -11637213.58845  21647508.7194                   21647509.2274
 11  8 26  1 51 30.0000000  0  9G26G10G15G12G29G05G02G25G30
   9269145.67246   7238878.13544  23771678.9844                   23771678.9574
 -32751425.43747 -25490630.09944  23784461.1414   23784460.5274   21041413.80146
  16412193.27943                  24674860.5164                   24674861.8754
 -34112803.41447 -26554224.67346  21594246.8054                   21594245.8634
   -648964.53946   -490506.61244  22768588.1334                   22768587.9384
 -35173574.77048 -27375736.49547  20521335.4064                   20521334.1054
 -49436846.82047 -38489348.15845  21771157.8524                   21771154.7734
 -17973449.92248 -13973057.23946  21736304.6644                   21736306.4654
 -13526822.10247 -10476923.14245  21930863.4064                   21930864.0634
 11  8 26  1 52  0.0000000  0  9G26G10G15G12G29G05G02G25G30
   9082216.90646   7093219.45744  23736107.0784                   23736108.1484
 -32739437.20347 -25481288.63344  23786742.3914   23786741.9804   20855203.47746
  16267094.66144                  24639425.1414                   24639427.9734
 -34144238.72347 -26578719.73546  21588264.8284                   21588264.0904
   -823797.30946   -626739.89344  22735318.3914                   22735317.9654
 -35239378.17648 -27427011.88547  20508813.3444                   20508812.3324
 -49492126.64147 -38532423.33745  21760638.5234                   21760635.1644
 -18065987.07447 -14045164.11446  21718695.5084                   21718697.3404
 -13612621.72748 -10543780.01945  21914536.4614                   21914536.2934
 11  8 26  1 52 30.0000000  0  9G26G10G15G12G29G05G02G25G30
   8895358.04346   6947615.23044  23700549.1804                   23700549.4144
 -32727301.55147 -25471832.31644  23789051.7194   23789051.4924   20668869.35546
  16121899.57943                  24603966.4224                   24603969.6254
 -34175246.52048 -26602881.68446  21582364.3134                   21582363.2704
   -998559.32446   -762918.02044  22702062.4304                   22702061.6454
 -35304670.96548 -27477889.38047  20496388.7034                   20496387.9224
 -49547325.59448 -38575435.50345  21750134.5084                   21750131.4454
 -18157951.86748 -14116825.00146  21701195.1954                   21701196.7624
 -13697837.92648 -10610182.27245  21898320.5234                   21898320.5354
 11  8 26  1 53  0.0000000  0  9G26G10G15G12G29G05G02G25G30
   8708575.06347   6802070.16844  23665005.3134                   23665005.8524
 -32715018.42247 -25462261.08444  23791389.5554   23791389.7344   20482416.67646
  15976612.11543                  24568484.7974                   24568488.1724
 -34205826.21948 -26626710.03046  21576545.2814                   21576544.2034
  -1173246.14546   -899037.61344  22668820.5864                   22668819.3444
 -35369452.55548 -27528368.54347  20484061.0634                   20484060.0434
 -49602441.44147 -38618382.91746  21739645.9924                   21739643.6454
 -18249342.37548 -14188038.39346  21683804.3054                   21683805.8094
 -13782469.15247 -10676128.71345  21882215.5634                   21882215.2114
 11  8 26  1 53 30.0000000  0  9G26G10G15G12G29G05G02G25G30
   8521868.80147   6656584.86544  23629476.3674                   23629476.7034
 -32702593.10947 -25452579.06443  23793754.0314   23793753.5634   20295845.44946
  15831232.31443                  24532982.0314                   24532984.3054
 -34235983.25048 -26650209.02746  21570806.2664                   21570805.5084
  -1347858.81246  -1035099.36744  22635592.5864                   22635591.8484
 -35433727.55147 -27578452.94347  20471830.2974                   20471829.1134
 -49657477.35248 -38661268.03345  21729173.3444                   21729170.5594
 -18340161.78148 -14258806.76746  21666521.7734                   21666523.5004
 -13866519.12148 -10741622.22645  21866221.6094                   21866220.8524
 11  8 26  1 54  0.0000000  0  9G26G10G15G12G29G05G02G25G30
   8335247.19947   6511165.52344  23593963.5164                   23593963.8014
 -32690023.95347 -25442784.95543  23796145.3594   23796146.2504   20109162.02345
  15685765.07343                  24497455.8594                   24497459.0984
 -34265715.76648 -26673377.25346  21565148.6334                   21565147.6564
  -1522390.94146  -1171098.38844  22602380.3914                   22602379.9104
 -35497492.83248 -27628140.17047  20459695.9384                   20459694.6954
 -49712428.83248 -38704087.35945  21718716.2504                   21718713.4224
 -18430406.13348 -14329127.04246  21649349.0234                   21649350.8914
 -13949984.35547 -10806660.08545  21850338.7424                   21850338.5274
 11  8 26  1 54 30.0000000  0  9G26G10G15G12G29G05G02G25G30
   8148712.40247   6365813.81444  23558466.6804                   23558466.7704
 -32677315.02747 -25432881.89043  23798563.3364   23798563.5044   19922367.78146
  15540211.38843                  24461910.5554                   24461913.5744
 -34295027.10548 -26696217.28046  21559570.9384                   21559570.3874
  -1696842.02746  -1307034.28644  22569183.3674                   22569183.3524
 -35560751.65648 -27677432.74647  20447658.4224                   20447657.2734
 -49767297.35947 -38746842.05146  21708275.1334                   21708271.9534
 -18520077.34448 -14399000.70146  21632285.1484                   21632286.7974
 -14032867.16047 -10871244.10445  21834566.3834                   21834566.1604
 11  8 26  1 55  0.0000000  0  9G26G10G15G12G29G05G02G25G30
   7962264.52347   6220529.85944  23522987.0474                   23522987.5514
 -32664472.45346 -25422874.62143  23801007.3134   23801005.9384   19735461.84846
  15394570.75543                  24426343.7584                   24426346.2894
 -34323924.21948 -26718734.53846  21554071.9064                   21554071.6414
  -1871213.55947  -1442908.16544  22536001.5164                   22536001.5944
 -35623509.23848 -27726334.74847  20435715.8754                   20435714.5124
 -49822086.37148 -38789534.77346  21697849.2034                   21697846.7304
 -18609179.47348 -14468430.93546  21615329.6564                   21615331.0084
 -14115172.08248 -10935377.83345  21818904.2504                   21818903.8954
 11  8 26  1 55 30.0000000  0  9G26G10G15G12G29G05G02G25G30
   7775908.35547   6075317.37544  23487523.7734                   23487525.4104
 -32651497.48447 -25412764.22743  23803477.0004   23803475.6914   19548448.09046
  15248846.03343                  24390756.1804                   24390758.8444
 -34352407.92648 -26740929.65346  21548652.1564                   21548650.8794
  -2045502.35547  -1578717.55344  22502835.4454                   22502835.7274
 -35685765.91448 -27774846.42947  20423868.6724                   20423867.6564
 -49876794.88348 -38832164.77946  21687438.2974                   21687435.6414
 -18697711.71148 -14537417.07746  21598481.9144                   21598483.6094
 -14196898.83648 -10999061.02245  21803352.0554                   21803351.8404
 11  8 26  1 56  0.0000000  0  9G26G10G15G12G29G05G02G25G30
   7589647.49247   5930179.15544  23452079.9774                   23452081.2464
 -32638392.63747 -25402552.73243  23805970.2114   23805969.8794   19361329.53546
  15103039.73243                  24355148.5944                   24355151.4884
 -34380480.75448 -26762804.58446  21543309.3914                   21543308.9304
  -2219706.27747  -1714460.81844  22469685.7274                   22469686.0904
 -35747523.12948 -27822968.92447  20412116.6334                   20412115.3674
 -49931422.69148 -38874731.90746  21677042.9454                   21677040.2734
 -18785674.60548 -14605959.58946  21581743.6174                   21581745.2584
 -14278048.44148 -11062294.46345  21787909.8594                   21787909.4694
 11  8 26  1 56 30.0000000  0  9G26G10G15G12G29G05G02G25G30
   7403481.78947   5785115.07344  23416653.8444                   23416654.6844
 -32625164.61347 -25392245.16143  23808487.6094   23808487.9264   19174104.95747
  14957150.70543                  24319520.5004                   24319522.0204
 -34408148.57047 -26784363.93346  21538044.2194                   21538044.3714
  -2393827.07847  -1850139.33044  22436551.6954                   22436551.2504
 -35808786.52748 -27870706.62147  20400458.3914                   20400457.0004
 -49985973.90648 -38917239.33346  21666662.3524                   21666659.5124
 -18873072.64148 -14674061.94146  21565112.0634                   21565113.7664
 -14358625.73048 -11125081.97145  21772576.6724                   21772576.0164
 11  8 26  1 57  0.0000000  0  9G26G10G15G12G29G05G02G25G30
   7217417.63347   5640130.12944  23381247.2814                   23381247.7464
 -32611813.09047 -25381841.38243  23811028.5004   23811029.0394   18986779.68446
  14811183.26443                  24283873.6024                   24283874.5204
 -34435411.43047 -26805607.73346  21532856.5704                   21532856.1644
  -2567860.21947  -1985749.53644  22403434.0704                   22403432.5634
 -35869555.15648 -27918058.79047  20388894.4844                   20388893.1054
 -50040445.54748 -38959684.76846  21656296.9694                   21656293.5084
 -18959903.54348 -14741722.38846  21548588.9064                   21548590.5704
 -14438628.98048 -11187422.17745  21757352.4304                   21757352.6254
 11  8 26  1 57 30.0000000  0  9G26G10G15G12G29G05G02G25G30
   7031461.70747   5495229.49044  23345861.0084                   23345861.0004
 -32598337.07846 -25371340.67143  23813592.8134   23813593.2424   18799359.55546
  14665141.92444                  24248208.8674                   24248210.3164
 -34462269.11347 -26826535.80646  21527745.9454                   21527745.5394
  -2741800.10546  -2121287.04844  22370334.4384                   22370333.0164
 -35929827.36348 -27965024.13047  20377424.9774                   20377423.8834
 -50094834.23447 -39002065.56846  21645946.7974                   21645943.5824
 -19046164.74648 -14808938.89746  21532173.8914                   21532175.7234
 -14518056.17248 -11249313.48345  21742238.0704                   21742237.5004
 11  8 26  1 58  0.0000000  0  9G26G10G15G12G29G05G02G25G30
   6845617.84047   5350416.19144  23310495.8364                   23310495.8324
 -32584739.21546 -25360744.92543  23816180.5164   23816181.0514   18611847.19546
  14519028.66144                  24212525.7734                   24212527.9184
 -34488723.60247 -26847149.70446  21522711.5314                   21522711.4024
  -2915645.09846  -2256750.68644  22337252.7894                   22337251.3484
 -35989605.02048 -28011604.11046  20366049.9924                   20366048.4104
 -50149140.08247 -39044381.81246  21635612.7814                   21635609.5744
 -19131856.84048 -14875711.96546  21515867.2584                   21515868.8674
 -14596908.29748 -11310756.69345  21727232.7734                   21727232.8914
 11  8 26  1 58 30.0000000  0  9G26G10G15G12G29G05G02G25G30
   6659887.58247   5205691.39244  23275151.9224                   23275152.2304
 -32571024.21146 -25350057.98243  23818790.2664   23818791.1524   18424243.41046
  14372844.17544                  24176825.3444                   24176827.7704
 -34514779.67247 -26867453.13846  21517753.2274                   21517753.0514
  -3089395.20746  -2392140.30144  22304189.2344                   22304189.1484
 -36048891.87948 -28057801.65647  20354767.8674                   20354766.6174
 -50203365.24647 -39086635.18546  21625294.1414                   21625290.9734
 -19216982.64548 -14942043.74546  21499668.3204                   21499670.3484
 -14675188.60548 -11371754.32945  21712336.7734                   21712336.7774
 11  8 26  1 59  0.0000000  0  9G26G10G15G12G29G05G02G25G30
   6474275.25847   5061058.47644  23239831.1484                   23239831.1174
 -32557193.55546 -25339280.92443  23821421.7504   23821422.4734   18236551.84846
  14226591.25344                  24141108.9694                   24141110.9344
 -34540438.59847 -26887447.12546  21512870.2894                   21512870.1294
  -3263047.29746  -2527453.58544  22271144.0004                   22271143.5784
 -36107688.78148 -28103617.40447  20343579.0394                   20343577.7814
 -50257509.08648 -39128825.18146  21614990.8754                   21614987.3954
 -19301541.93048 -15007934.10346  21483577.1334                   21483579.4104
 -14752897.41448 -11432306.63345  21697549.1174                   21697549.0554
 11  8 26  1 59 30.0000000  0  9G26G10G15G12G29G05G02G25G30
   6288787.75047   4916522.84444  23204534.1414                   23204534.2664
 -32543246.92646 -25328413.46943  23824076.4454   23824075.9844   18048777.58246
  14080273.88444                  24105376.8594                   24105378.1884
 -34565700.83647 -26907131.98146  21508063.5474                   21508062.9804
  -3436596.51646  -2662686.67544  22238118.9224                   22238118.8054
 -36165994.60948 -28149050.49547  20332484.1334                   20332482.4774
 -50311568.14147 -39170949.12246  21604703.9774                   21604700.5824
 -19385532.58648 -15073381.36446  21467594.2424                   21467596.3954
 -14830033.02348 -11492412.29345  21682870.6884                   21682870.6804
 11  8 26  2  0  0.0000000  0  9G26G10G15G12G29G05G02G25G30
   7678854.76647   5999692.02144  23469054.9144                   23469055.2114
 -30953767.34047 -24089857.98343  24126544.5394   24126543.1024   19436349.85546
  15161499.29843                  24369422.1174                   24369423.8484
 -33015147.84447 -25698908.88046  21803123.7504                   21803123.0234
  -2034614.94946  -1570233.44344  22504907.6644                   22504906.5554
 -34648389.42648 -26966500.98047  20621274.5704                   20621273.5594
 -48790120.62547 -37985405.60246  21894225.4924                   21894222.2624
 -17893532.53148 -13910783.91846  21751512.4144                   21751514.7464
 -13331174.04348 -10324470.23545  21968094.2194                   21968093.7854
 11  8 26  2  0 30.0000000  0  9G26G10G15G12G29G05G02G25G30
   7493624.96947   5855357.16544  23433807.0234                   23433807.1414
 -30939598.74646 -24078817.40443  24129240.4694   24129239.0044   19248416.64846
  15015058.02743                  24333659.8524                   24333661.0274
 -33039626.24247 -25717982.97046  21798466.2114                   21798465.1484
  -2207954.60546  -1705303.27744  22471922.0784                   22471920.7854
 -34705721.14148 -27011175.03047  20610364.8284                   20610363.5904
 -48844012.67647 -38027399.40746  21883970.4064                   21883967.3594
 -17976390.55148 -13975348.62346  21735745.1254                   21735747.2424
 -13407169.27048 -10383687.29946  21953633.0234                   21953632.7974
 11  8 26  2  1  0.0000000  0  9G26G10G15G12G29G05G02G25G30
   7308522.63747   5711121.65244  23398583.1094                   23398583.3244
 -30925329.95747 -24067698.92043  24131955.7194   24131954.7304   19060401.18846
  14868552.70643                  24297881.2584                   24297883.2544
 -33063723.59847 -25736760.14446  21793880.0944                   21793880.0474
  -2381193.39146  -1840294.49644  22438955.1334                   22438954.6094
 -34762575.28148 -27055476.94647  20599546.0084                   20599544.6414
 -48897828.28948 -38069333.66446  21873729.5474                   21873726.7304
 -18058690.43048 -14039478.39946  21720083.8914                   21720085.9964
 -13482603.21948 -10442466.99746  21939278.4224                   21939278.0634
 11  8 26  2  1 30.0000000  0  9G26G10G15G12G29G05G02G25G30
   7123553.52747   5566989.95044  23363384.2974                   23363384.4304
 -30910961.23446 -24056502.50543  24134689.7504   24134689.5864   18872308.35946
  14721987.11243                  24262088.5394                   24262090.3484
 -33087440.57448 -25755240.91646  21789367.3134                   21789366.6644
  -2554327.14846  -1975203.88344  22406008.8754                   22406008.1054
 -34818951.86348 -27099406.72447  20588817.5314                   20588816.5004
 -48951565.36748 -38111206.69646  21863503.5474                   21863500.4694
 -18140430.91848 -14103172.30246  21704529.3984                   21704531.1684
 -13557475.14148 -10500808.77646  21925030.9064                   21925030.2074
 11  8 26  2  2  0.0000000  0  9G26G10G15G12G29G05G02G25G30
   6938726.53947   5422969.00444  23328212.6414                   23328212.3674
 -30896489.66046 -24045226.03743  24137443.5164   24137443.7734   18684146.00046
  14575367.30744                  24226282.3054                   24226284.8524
 -33110774.21548 -25773422.98646  21784926.6564                   21784926.3954
  -2727348.68446  -2110025.80144  22373083.5704                   22373082.8874
 -34874847.33648 -27142961.63047  20578180.9064                   20578179.4694
 -49005218.48848 -38153014.31946  21853293.8524                   21853290.3794
 -18221607.52748 -14166426.81946  21689081.6334                   21689083.7194
 -13631781.02348 -10558709.48246  21910890.7504                   21910890.2464
 11  8 26  2  2 30.0000000  0  9G26G10G15G12G29G05G02G25G30
   6754044.87547   5279061.26243  23293068.6884                   23293068.0474
 -30881918.52746 -24033871.94943  24140216.6484   24140217.1884   18495916.57446
  14428695.20143                  24190463.5164                   24190464.8874
 -33133728.10948 -25791309.15346  21780559.1024                   21780558.3914
  -2900255.91047  -2244758.66244  22340180.9064                   22340179.9224
 -34930264.02047 -27186143.44746  20567635.3594                   20567634.0554
 -49058788.05547 -38194756.84146  21843099.6254                   21843096.8204
 -18302221.73848 -14229243.09446  21673741.1484                   21673743.2384
 -13705522.69548 -10616170.53246  21896858.0784                   21896857.7814
 11  8 26  2  3  0.0000000  0  9G26G10G15G12G29G05G02G25G30
   6569511.48047   5135269.12644  23257953.5084                   23257952.4064
 -30867250.83246 -24022442.61043  24143006.9614   24143008.2074   18307622.02746
  14281972.34244                  24154631.7504                   24154634.0044
 -33156305.53947 -25808901.97846  21776262.6484                   21776261.9494
  -3073047.75446  -2379401.63444  22307299.5634                   22307298.2464
 -34985204.58648 -27228954.26446  20557180.5004                   20557179.0704
 -49112274.84047 -38236434.85846  21832921.5234                   21832918.9614
 -18382275.18448 -14291622.40946  21658507.7894                   21658509.6094
 -13778702.35248 -10673193.63946  21882932.3204                   21882932.2344
 11  8 26  2  3 30.0000000  0  9G26G10G15G12G29G05G02G25G30
   6385131.26647   4991596.29744  23222867.1484                   23222865.2344
 -30852487.68746 -24010938.93443  24145817.3204   24145817.3134   18119266.32847
  14135201.82343                  24118789.2584                   24118790.1844
 -33178507.54747 -25826202.25146  21772037.7424                   21772036.5704
  -3245721.08247  -2513952.26244  22274441.0004                   22274440.1054
 -35039669.62948 -27271394.55646  20546816.5394                   20546814.8794
 -49165677.26647 -38278047.12846  21822759.5864                   21822756.5394
 -18461767.53148 -14353564.51546  21643381.0474                   21643382.4534
 -13851320.14548 -10729778.94345  21869113.5634                   21869112.9224
 11  8 26  2  4  0.0000000  0  9G26G10G15G12G29G05G02G25G30
   6200902.22347   4848041.26544  23187809.4534                   23187808.1524
 -30837637.19146 -23999367.08843  24148643.2584   24148643.4574   17930846.64547
  13988381.45044                  24082934.0554                   24082935.1684
 -33200343.01248 -25843216.90746  21767882.9614                   21767881.5084
  -3418279.02746  -2648412.97044  22241604.4774                   22241603.0314
 -35093666.78948 -27313470.26247  20536541.1954                   20536539.6094
 -49219001.03947 -38319598.12946  21812612.7424                   21812609.5554
 -18540705.36748 -14415074.53246  21628359.7504                   21628361.6844
 -13923383.05948 -10785931.88145  21855400.7664                   21855400.1844
 11  8 26  2  4 30.0000000  0  9G26G10G15G12G29G05G02G25G30
   6016828.80146   4704607.51244  23152781.7664                   23152780.6604
 -30822701.66847 -23987729.06043  24151485.3834   24151485.4844   17742366.39547
  13841513.85944                  24047066.9224                   24047068.1024
 -33221814.05948 -25859947.60846  21763796.9694                   21763795.7504
  -3590719.07846  -2782781.81744  22208790.0394                   22208789.7934
 -35147197.75448 -27355182.68447  20526354.4144                   20526353.0984
 -49272245.82047 -38361087.58446  21802480.4924                   21802477.0594
 -18619089.28948 -14476152.91246  21613443.8984                   21613445.0084
 -13994892.22748 -10841653.32745  21841792.6254                   21841792.1484
 11  8 26  2  5  0.0000000  0  9G26G10G15G12G29G05G02G25G30
   5832918.51647   4561300.82844  23117783.7034                   23117784.2464
 -30807678.92647 -23976022.99043  24154344.3284   24154344.4064   17553832.35247
  13694604.37143                  24011189.6644                   24011190.6884
 -33242919.13748 -25876393.14046  21759780.4774                   21759780.2504
  -3763034.94546  -2917053.89144  22175999.6024                   22175998.8484
 -35200260.17648 -27396530.02147  20516257.3594                   20516256.0394
 -49325407.19947 -38402512.03046  21792363.8134                   21792360.8554
 -18696916.02048 -14536797.12746  21598633.9534                   21598635.2424
 -14065844.78148 -10896941.03645  21828291.1254                   21828290.2504
 11  8 26  2  5 30.0000000  0  9G26G10G15G12G29G05G02G25G30
   5649174.02047   4418123.37244  23082819.1884                   23082818.8714
 -30792572.37546 -23964251.69143  24157218.6414   24157218.4884   17365246.23447
  13547654.30144                  23975303.3524                   23975303.8874
 -33263661.93448 -25892556.37646  21755833.6024                   21755833.2074
  -3935225.21946  -3051228.13144  22143232.3984                   22143232.4414
 -35252856.79748 -27437514.39447  20506248.3364                   20506247.1484
 -49378486.00447 -38443872.14445  21782263.5004                   21782260.6484
 -18774187.82848 -14597008.93446  21583929.3674                   21583930.7074
 -14136243.42247 -10951797.14645  21814894.4844                   21814894.0864
 11  8 26  2  6  0.0000000  0  9G26G10G15G12G29G05G02G25G30
   5465595.48447   4275075.22444  23047885.2274                   23047885.6804
 -30777388.35546 -23952420.02742  24160107.5164   24160108.2974   17176607.60946
  13400663.31743                  23939406.7424                   23939406.9924
 -33284048.94948 -25908442.36446  21751953.6644                   21751952.6844
  -4107291.94146  -3185306.08344  22110489.4384                   22110488.6604
 -35304993.30948 -27478140.24347  20496327.1174                   20496326.1024
 -49431485.60948 -38485170.53245  21772177.7034                   21772174.9924
 -18850909.16048 -14656791.79546  21569329.8834                   21569331.4024
 -14206093.14147 -11006225.50645  21801602.6954                   21801601.9064
 11  8 26  2  6 30.0000000  0  9G26G10G15G12G29G05G02G25G30
   5282187.06347   4132159.64644  23012983.5164                   23012984.1764
 -30762128.93446 -23940529.60143  24163011.7034   24163011.3914   16987919.39146
  13253633.67844                  23903500.0634                   23903500.5004
 -33304082.35248 -25924052.80846  21748141.5394                   21748141.0274
  -4279232.39547  -3319285.64744  22077770.4384                   22077769.7304
 -35356671.45348 -27518408.91846  20486492.9224                   20486492.3984
 -49484405.87947 -38526407.09845  21762107.2424                   21762104.5864
 -18927080.85248 -14716146.36746  21554834.9144                   21554836.1844
 -14275395.21547 -11060227.10745  21788414.6174                   21788414.5984
 11  8 26  2  7  0.0000000  0  9G26G10G15G12G29G05G02G25G30
   5098952.84047   3989379.80544  22978114.7504                   22978115.6844
 -30746796.08746 -23928581.93343  24165929.7274   24165928.9344   16799184.56646
  13106567.75544                  23867585.1724                   23867584.9964
 -33323764.80947 -25939389.80345  21744396.1174                   21744395.0314
  -4451044.41847  -3453165.13645  22045075.6644                   22045075.0434
 -35407893.09047 -27558321.89146  20476745.7114                   20476745.0274
 -49537246.44547 -38567581.55145  21752051.8524                   21752049.4534
 -19002703.76248 -14775073.31246  21540444.2664                   21540445.8754
 -14344150.97748 -11113803.03045  21775331.1094                   21775330.6254
 11  8 26  2  7 30.0000000  0  9G26G10G15G12G29G05G02G25G30
   4915898.73047   3846740.32045  22943281.3984                   22943281.1564
 -30731389.77046 -23916576.98443  24168861.8364   24168860.9024   16610408.51646
  12959469.68644                  23831661.9694                   23831662.5824
 -33343096.49647 -25954453.45146  21740717.5704                   21740717.4184
  -4622723.15647  -3586940.76644  22012406.7424                   22012405.6684
 -35458657.49248 -27597878.56546  20467085.4694                   20467084.7304
 -49590004.58247 -38608691.80145  21742012.6174                   21742010.0044
 -19077776.64148 -14833571.66846  21526158.3914                   21526160.0234
 -14412359.64147 -11166952.64745  21762351.6954                   21762351.1564
 11  8 26  2  8  0.0000000  0  9G26G10G15G12G29G05G02G25G30
   4733029.81347   3704245.14145  22908482.3674                   22908482.5084
 -30715911.18046 -23904515.82243  24171806.7814   24171806.7304   16421595.30946
  12812342.72944                  23795731.9774                   23795733.2034
 -33362079.21547 -25969245.19846  21737104.6804                   21737104.5634
  -4794264.98847  -3720609.69944  21979762.7344                   21979762.3094
 -35508965.77048 -27637079.81246  20457512.3444                   20457511.4024
 -49642679.09847 -38649736.86945  21731989.2344                   21731986.4064
 -19152299.45748 -14891641.39546  21511977.3134                   21511978.8794
 -14480021.55947 -11219676.20445  21749475.8834                   21749475.8554
 11  8 26  2  8 30.0000000  0  9G26G10G15G12G29G05G02G25G30
   6125773.55147   4789500.05444  23173512.7194                   23173512.4344
 -29124945.32446 -22664802.21543  24474557.5004   24474557.2424   17808171.94546
  13892792.20044                  24059588.2424                   24059590.0824
 -31805297.20347 -24756168.30446  22033350.5554                   22033350.7344
  -3390244.49647  -2626567.75944  22246938.7974                   22246937.9694
 -33983400.39548 -26448327.57146  20747817.6644                   20747816.4574
 -48119849.96548 -37463116.77745  22021773.9694                   22021771.4024
 -17650853.07448 -13721683.19146  21797692.7584                   21797694.3444
 -12971718.39548 -10044375.04545  22036496.7974                   22036496.3244
 11  8 26  2  9  0.0000000  0  9G26G10G15G12G29G05G02G25G30
   5943284.89847   4647301.18544  23138786.3834                   23138785.6024
 -29109330.48446 -22652634.78543  24477529.3054   24477528.6054   17619291.70346
  13745612.95044                  24023645.6804                   24023647.5274
 -31823591.32047 -24770423.45845  22029869.5234                   22029868.9264
  -3561507.42246  -2760019.35144  22214348.8054                   22214347.6604
 -34032803.32048 -26486823.35646  20738416.8134                   20738415.3984
 -48172357.42247 -37504031.68845  22011781.9694                   22011779.4184
 -17724280.37948 -13778899.28246  21783720.3204                   21783721.9144
 -13038292.90648 -10096251.27545  22023827.4534                   22023827.5234
 11  8 26  2  9 30.0000000  0  9G26G10G15G12G29G05G02G25G30
   5760992.01647   4505254.82644  23104096.6174                   23104096.8634
 -29093650.53146 -22640416.66343  24480513.1884   24480513.5474   17430382.74646
  13598411.26044                  23987697.0084                   23987698.4454
 -31841545.01248 -24784413.35846  22026452.8134                   22026452.5164
  -3732627.47746  -2893359.63744  22181785.8594                   22181784.9694
 -34081756.27048 -26524968.50446  20729101.2274                   20729099.5864
 -48224781.08247 -37544881.31246  22001806.5084                   22001802.9884
 -17797161.53548 -13835689.78546  21769851.3444                   21769853.0634
 -13104326.07847 -10147705.69845  22011262.1254                   22011261.9304
 11  8 26  2 10  0.0000000  0  9G26G10G15G12G29G05G02G25G30
   5578895.43447   4363361.48245  23069445.0394                   23069445.2934
 -29077911.74247 -22628152.69543  24483508.0394   24483507.6844   17241444.10947
  13451186.53244                  23951743.9844                   23951744.0664
 -31859164.61347 -24798142.91946  22023100.2424                   22023099.0664
  -3903606.09047  -3026589.71244  22149249.5784                   22149248.3834
 -34130265.02748 -26562767.53146  20719870.5234                   20719868.0554
 -48277124.36348 -37585668.30546  21991845.6884                   21991842.7624
 -17869501.49648 -13892058.58446  21756085.5314                   21756087.2704
 -13169823.27347 -10198742.46945  21998798.3674                   21998797.9844
 11  8 26  2 10 30.0000000  0  9G26G10G15G12G29G05G02G25G30
   5397000.12547   4221624.97244  23034831.1884                   23034831.3444
 -29062114.78947 -22615843.36243  24486514.7504   24486514.1564   17052480.47747
  13303942.26944                  23915784.4304                   23915785.4264
 -31876451.35948 -24811613.10946  22019810.9224                   22019809.9304
  -4074439.30147  -3159706.46044  22116740.7734                   22116740.1604
 -34178330.22348 -26600220.90746  20710724.1484                   20710721.6214
 -48329385.49648 -37626391.27346  21981900.8984                   21981897.8094
 -17941299.83248 -13948005.33646  21742422.4924                   21742424.6604
 -13234784.44547 -10249361.54145  21986436.6174                   21986436.5944
 11  8 26  2 11  0.0000000  0  9G26G10G15G12G29G05G02G25G30
   5215310.59047   4080048.76944  23000256.7274                   23000257.1684
 -29046260.99646 -22603489.79143  24489531.1024   24489531.6294   16863495.09447
  13156681.04544                  23879821.9924                   23879822.3524
 -31893407.63348 -24824825.79946  22016584.2274                   22016583.0594
  -4245124.16447  -3292707.64644  22084260.8204                   22084259.5904
 -34225953.46548 -26637329.91746  20701661.6414                   20701659.4654
 -48381563.69948 -37667049.63146  21971971.5634                   21971968.7194
 -18012557.30548 -14003530.63146  21728862.9064                   21728864.8014
 -13299210.89847 -10299563.97245  21974176.9064                   21974176.7234
 11  8 26  2 11 30.0000000  0  9G26G10G15G12G29G05G02G25G30
   5033833.51647   3938638.14344  22965723.0554                   22965723.0084
 -29030350.09846 -22591091.65243  24492557.7814   24492559.8164   16674494.11347
  13009407.68544                  23843856.3754                   23843856.9384
 -31910033.35548 -24837780.90646  22013420.5634                   22013419.4734
  -4415655.46947  -3425589.14144  22051809.8444                   22051809.0004
 -34273133.27748 -26674093.39246  20692683.2664                   20692681.3014
 -48433655.72748 -37707640.85045  21962059.0164                   21962055.8874
 -18083272.16848 -14058633.13546  21715406.1254                   21715408.1294
 -13363101.26247 -10349348.68145  21962018.5944                   21962018.9774
 11  8 26  2 12  0.0000000  0  9G26G10G15G12G29G05G02G25G30
   4852572.87147   3797396.13444  22931230.1094                   22931230.1454
 -29014384.12546 -22578650.73842  24495596.1724   24495597.2894   16485480.66047
  12862124.60344                  23807888.1174                   23807888.0274
 -31926330.64848 -24850480.11246  22010319.0394                   22010318.9734
  -4586030.89547  -3558349.18444  22019388.1334                   22019387.0124
 -34319871.75048 -26710512.96446  20683789.3524                   20683788.0204
 -48485661.13748 -37748164.58745  21952162.6954                   21952159.6254
 -18153445.50848 -14113313.65446  21702052.7114                   21702054.3634
 -13426457.19947 -10398716.94545  21949962.2894                   21949962.3554
 11  8 26  2 12 30.0000000  0  9G26G10G15G12G29G05G02G25G30
   4671531.42647   3656324.93144  22896778.6254                   22896779.0944
 -28998366.43046 -22566169.42242  24498644.3674   24498644.8914   16296456.21947
  12714832.93744                  23771917.2814                   23771918.0944
 -31942303.86348 -24862926.76146  22007279.1804                   22007279.0634
  -4756249.45347  -3690986.97444  21986996.3444                   21986995.6644
 -34366172.29748 -26746591.30346  20674978.7504                   20674977.2464
 -48537580.78948 -37788621.48045  21942282.3054                   21942279.5164
 -18223080.07048 -14167574.34546  21688801.7114                   21688803.4964
 -13489281.77747 -10447671.15545  21938007.1564                   21938007.2664
 11  8 26  2 13  0.0000000  0  9G26G10G15G12G29G05G02G25G30
   4490709.73047   3515424.96744  22862369.2974                   22862369.8984
 -28982302.25446 -22553651.87142  24501701.0394   24501700.7894   16107420.85947
  12567532.75044                  23735945.6094                   23735945.5004
 -31957958.80147 -24875125.41146  22004300.4694                   22004300.0864
  -4926311.70747  -3823502.99144  21954634.5864                   21954633.2544
 -34412040.13348 -26782332.47246  20666250.4924                   20666249.1884
 -48589417.65648 -37829013.87345  21932418.5004                   21932415.4534
 -18292180.07848 -14221418.50046  21675652.3284                   21675654.2304
 -13551579.71147 -10496215.00445  21926152.3914                   21926152.4574
 11  8 26  2 13 30.0000000  0  9G26G10G15G12G29G05G02G25G30
   4310113.10947   3374700.38144  22828003.3754                   22828003.1454
 -28966192.46546 -22541098.80142  24504767.4384   24504765.8594   15918379.04746
  12420227.59844                  23699972.3054                   23699971.6804
 -31973297.03948 -24887077.28346  22001381.5234                   22001381.0904
  -5096213.91447  -3955894.28344  21922303.6884                   21922303.2854
 -34457475.78548 -26817736.86346  20657604.1644                   20657602.9494
 -48641170.37148 -37869340.68545  21922570.3054                   21922566.7814
 -18360745.57848 -14274846.15346  21662604.6954                   21662606.4384
 -13613351.54347 -10544348.88645  21914397.6724                   21914397.6214
 11  8 26  2 14  0.0000000  0  9G26G10G15G12G29G05G02G25G30
   4129744.55947   3234153.51744  22793680.2424                   22793680.4804
 -28950040.11346 -22528512.53542  24507841.0004   24507839.2544   15729333.06347
  12272919.14344                  23663997.9694                   23663997.2074
 -31988321.96948 -24898785.01946  21998522.4384                   21998521.7304
  -5265954.60247  -4088159.73245  21890003.0554                   21890002.3404
 -34502482.12148 -26852806.72746  20649039.3984                   20649038.6524
 -48692839.02348 -37909602.00445  21912737.6954                   21912734.4494
 -18428778.68448 -14327858.95146  21649658.4614                   21649660.8484
 -13674599.75447 -10592074.78245  21902742.8754                   21902742.6054
 11  8 26  2 14 30.0000000  0  8G26G15G12G29G05G02G25G30
   3949608.58247   3093787.85544  22759401.6564                   22759400.9964
  15540286.55546  12125610.29744  23628023.5554                   23628021.8954
 -32003035.66848 -24910250.23146  21995722.7584                   21995721.6254
  -5435530.67247  -4220296.87745  21857734.4144                   21857733.5124
 -34547060.46548 -26887543.09746  20640556.7814                   20640555.7464
 -48744422.74248 -37949797.12045  21902921.8754                   21902918.3594
 -18496280.06648 -14380457.41946  21636813.5164                   21636815.2664
 -13735325.53947 -10639393.57345  21891186.5474                   21891186.7344
 11  8 26  2 15  0.0000000  0  9G26G21G15G12G29G05G02G25G30
   3769711.89147   2953608.68945  22725168.2274                   22725168.1094
  24990022.23456  19485946.50553  25079494.0394                   25079494.6564
  15351245.51247  11978305.67044  23592050.0944                   23592049.2034
 -32017437.75448 -24921472.65746  21992982.0864                   21992981.2664
  -5604936.75047  -4352301.58645  21825497.1484                   21825496.1844
 -34591210.08648 -26921945.38546  20632155.5234                   20632154.0164
 -48795918.35548 -37989923.58945  21893122.5004                   21893119.0234
 -18563248.22748 -14432640.39246  21624070.1094                   21624071.7774
 -13795527.82047 -10686304.45945  21879730.6094                   21879730.8054
 11  8 26  2 15 30.0000000  0  9G26G21G15G12G29G05G02G25G30
   3590055.76647   2813616.95845  22690980.9064                   22690980.9344
  24841536.38746  19370243.35244  25051237.7114                   25051239.1684
  15162210.48847  11831005.77644  23556077.9144                   23556077.2894
 -32031533.83248 -24932456.61645  21990299.5704                   21990298.6884
  -5774173.41047  -4484174.28245  21793292.4064                   21793291.2034
 -34634935.82048 -26956017.37446  20623834.4064                   20623833.1134
 -48847327.88748 -38029982.96345  21883339.3984                   21883336.1844
 -18629687.26648 -14484411.04646  21611426.9384                   21611428.9924
 -13855211.09447 -10732810.91045  21868373.1954                   21868373.7544
 11  8 26  2 16  0.0000000  0  9G26G21G15G12G29G05G02G25G30
   3410643.32047   2673815.10944  22656840.0634                   22656839.3754
  24693058.38746  19254546.36643  25022983.1954                   25022984.3404
  14973183.49647  11683712.16944  23520106.8204                   23520107.4654
 -32045327.40648 -24943204.86746  21987674.9144                   21987674.3244
  -5943238.82847  -4615913.54145  21761120.6884                   21761118.9024
 -34678240.40648 -26989761.18346  20615594.1024                   20615592.4774
 -48898651.86348 -38069975.69945  21873572.7114                   21873569.9414
 -18695599.38748 -14535771.14446  21598884.3054                   21598886.3204
 -13914378.06647 -10778915.04945  21857114.2424                   21857113.9614
 11  8 26  2 16 30.0000000  0  9G26G21G15G12G29G05G02G25G30
   3231478.12547   2534205.94045  22622746.0004                   22622745.0234
  24544587.93046  19138855.25443  24994729.7894                   24994731.0004
  14784167.59047  11536427.10244  23484138.1334                   23484138.2934
 -32058821.84048 -24953720.03245  21985107.0004                   21985105.5634
  -6112130.67247  -4747517.54145  21728981.2034                   21728979.9654
 -34721125.78148 -27023178.34046  20607433.4924                   20607431.4304
 -48949890.25848 -38109901.72145  21863822.5704                   21863820.0784
 -18760986.16448 -14586721.88746  21586441.6954                   21586443.3054
 -13973030.70348 -10824618.42245  21845952.9844                   21845952.4654
 11  8 26  2 17  0.0000000  0  9G26G21G15G12G29G05G02G25G30
   4627991.60547   3622398.31645  22888493.6884   22888493.7544   25971550.75446
  20250774.47743                  25266272.5164                   25266273.5984
  16170593.44147  12616759.06744  23747965.8594                   23747966.7704
 -30496597.52047 -23736402.36945  22282388.1484                   22282387.6764
  -4705419.62547  -3651379.03145  21996669.2664                   21996668.4344
 -33188171.66448 -25828668.62446  20899144.6254                   20899142.7734
 -47425619.60948 -36922158.36045  22153881.4454                   22153878.9344
 -17250425.62148 -13409661.71646  21873891.7584                   21873893.5634
 -12455747.67648  -9642319.97245  22134682.4224                   22134682.3444
 11  8 26  2 17 30.0000000  0  9G26G21G15G12G29G05G02G25G30
   4449333.51647   3483184.26245  22854496.0864   22854494.8284   25823094.42247
  20135094.32343                  25238021.9614                   25238022.1884
  15981609.72347  12469499.09344  23712004.0474                   23712004.4414
 -30509500.72347 -23746456.85145  22279932.5394                   22279932.3364
  -4873956.41847  -3782706.36545  21964598.0944                   21964596.2034
 -33230224.83248 -25861437.31646  20891141.9304                   20891140.6564
 -47476684.87148 -36961949.47245  22144164.3594                   22144161.5124
 -17314765.46148 -13459796.65546  21861648.1724                   21861649.9534
 -12513376.73047  -9687225.72745  22123716.1564                   22123715.3284
 11  8 26  2 18  0.0000000  0  9G26G21G15G12G29G05G02G25G30
   4270933.15247   3344171.06045  22820547.0394   22820546.9734   25674643.05946
  20019418.04643                  25209771.9774                   25209773.2544
  15792645.24247  12322254.17544  23676044.8754                   23676044.8524
 -30522114.22747 -23756285.56545  22277532.2584                   22277532.2974
  -5042313.47347  -3913893.65545  21932560.1564                   21932558.8954
 -33271866.53148 -25893885.37646  20883217.8914                   20883216.5084
 -47527664.87948 -37001674.14245  22134462.9144                   22134460.3054
 -17378585.68048 -13509526.68946  21849503.7664                   21849505.8914
 -12570498.40248  -9731736.12045  22112846.3364                   22112846.0314
 11  8 26  2 18 30.0000000  0  9G26G21G15G12G29G05G02G25G30
   4092793.91447   3205361.32145  22786648.0234   22786648.4804   25526195.80146
  19903745.01143                  25181523.4224                   25181524.9924
  15603702.90647  12175026.46844  23640090.4144                   23640090.7664
 -30534440.81247 -23765890.68245  22275186.6724                   22275185.8164
  -5210489.09047  -4044939.57345  21900557.8444                   21900556.5944
 -33313099.23448 -25926014.73446  20875371.8364                   20875370.4774
 -47578559.28948 -37041332.11446  22124778.2734                   22124775.6764
 -17441888.09048 -13558853.24946  21837457.2894                   21837459.3094
 -12627115.05948  -9775852.98145  22102072.4454                   22102071.2664
 11  8 26  2 19  0.0000000  0  9G26G21G15G12G29G05G02G25G30
   3914918.79347   3066757.37145  22752799.7504   22752800.1524   25377751.31346
  19788074.12844                  25153275.7664                   25153276.5984
  15414784.22347  12027817.19744  23604139.7894                   23604139.9574
 -30546484.75447 -23775275.57345  22272894.9064                   22272894.7274
  -5378481.78947  -4175842.94345  21868589.8524                   21868588.8914
 -33353926.65248 -25957828.28946  20867602.3914                   20867600.9574
 -47629368.78948 -37080923.89946  22115109.5554                   22115106.6724
 -17504675.60248 -13607778.56646  21825509.6254                   21825511.3754
 -12683229.98448  -9819578.89945  22091393.9384                   22091393.7384
 11  8 26  2 19 30.0000000  0  9G26G21G15G12G29G05G02G25G30
   3737311.96547   2928362.48845  22719002.1334   22719002.4454   25229309.62546
  19672405.45443                  25125027.2344                   25125028.4344
  15225893.02347  11880629.36344  23568195.6334                   23568195.0394
 -30558248.11747 -23784441.81645  22270656.2344                   22270655.8364
  -5546288.67647  -4306601.50845  21836656.7034                   21836656.5124
 -33394349.81648 -25989326.84546  20859910.3204                   20859909.0784
 -47680092.47348 -37120448.82245  22105456.7664                   22105454.3284
 -17566949.10948 -13656303.38846  21813659.6484                   21813661.0664
 -12738844.52048  -9862914.89745  22080811.2894                   22080810.3054
 11  8 26  2 20  0.0000000  0  9G26G21G15G12G29G05G02G25G30
   3559975.48847   2790178.27445  22685256.1094   22685256.6294   25080868.35946
  19556737.00643                  25096779.9064                   25096781.2894
  15037030.70747  11733464.01944  23532256.5474                   23532256.0394
 -30569735.66848 -23793393.15846  22268470.3674                   22268470.2504
  -5713908.98447  -4437214.69545  21804759.7274                   21804758.8674
 -33434372.53548 -26020513.36546  20852293.9614                   20852292.9224
 -47730731.87948 -37159908.08545  22095820.4844                   22095818.2424
 -17628712.02348 -13704430.33146  21801906.0474                   21801907.5944
 -12793962.50448  -9905863.96045  22070322.1954                   22070321.8954
 11  8 26  2 20 30.0000000  0  9G26G21G15G12G29G05G02G25G30
   3382915.75447   2652209.68645  22651562.6884   22651563.2894   24932429.82846
  19441070.79743                  25068533.9534                   25068533.4104
  14848202.86347  11586325.52844  23496323.6414                   23496322.8874
 -30580947.94548 -23802130.01346  22266337.3134                   22266336.4574
  -5881337.85547  -4567678.70445  21772898.9694                   21772898.2544
 -33473994.70748 -26051387.77246  20844753.8204                   20844752.8594
 -47781284.15648 -37199299.43145  22086200.9694                   22086198.4494
 -17689963.56648 -13752158.81246  21790250.2974                   21790252.2704
 -12848583.59048  -9948425.86245  22059928.2344                   22059927.7194
 11  8 26  2 21  0.0000000  0  9G26G21G15G12G29G05G02G25G30
   3206135.26647   2514458.72545  22617922.7114   22617922.7584   24783991.96146
  19325405.05942                  25040286.1884                   25040286.5204
  14659411.45747  11439215.47044  23460397.4064                   23460397.2344
 -30591888.88747 -23810655.43345  22264255.0864                   22264254.2424
  -6048573.98847  -4697992.54245  21741075.2734                   21741073.8594
 -33513219.86348 -26081952.80946  20837289.8444                   20837288.5124
 -47831750.44948 -37238623.79145  22076597.3524                   22076594.7234
 -17750706.73048 -13799491.14646  21778691.3984                   21778693.2234
 -12902711.12948  -9990603.16245  22049628.1334                   22049627.5704
 11  8 26  2 21 30.0000000  0  9G26G21G15G12G29G05G02G25G30
   3029640.77347   2376930.59445  22584336.5234   22584336.1764   24635557.11346
  19209741.65642                  25012039.3364                   25012039.5984
  14470662.25046  11292138.25944  23424478.8834                   23424479.3244
 -30602558.59447 -23818969.49545  22262224.6644                   22262223.6804
  -6215612.30947  -4828152.22545  21709289.2194                   21709287.4804
 -33552047.55948 -26112208.15146  20829900.8834                   20829899.8284
 -47882127.20748 -37277878.37945  22067010.7664                   22067008.0514
 -17810940.29348 -13846426.38746  21767229.2974                   21767231.1884
 -12956344.34848 -10032395.26145  22039422.4144                   22039421.5474
 11  8 26  2 22  0.0000000  0  9G26G21G15G12G29G05G02G25G30
   2853433.21947   2239626.05644  22550805.6174   22550805.3554   24487122.68445
  19094078.60942                  24983793.4384                   24983792.9264
  14281955.62147  11145094.19244  23388569.6484                   23388569.4964
 -30612962.39547 -23827076.36445  22260244.7814                   22260244.2664
  -6382453.12947  -4958158.04245  21677539.7194                   21677538.8324
 -33590482.77747 -26142157.66346  20822587.1954                   20822585.5944
 -47932416.96548 -37317065.18345  22057441.6564                   22057438.2304
 -17870668.82448 -13892968.09446  21755863.1094                   21755865.2624
 -13009488.29348 -10073806.13145  22029308.7894                   22029308.3094
 11  8 26  2 22 30.0000000  0  9G26G21G15G12G29G05G02G25G30
   2677514.47747   2102546.58445  22517329.4924   22517329.0514   24338685.93445
  18978413.76642                  24955546.7974                   24955546.9224
  14093292.98046  10998084.43544  23352667.7814                   23352667.8754
 -30623105.02747 -23834979.71245  22258314.6954                   22258313.9384
  -6549095.81247  -5088009.42644  21645828.6024                   21645828.1414
 -33628529.34048 -26171804.32746  20815347.1484                   20815345.5084
 -47982621.07848 -37356185.23745  22047887.7894                   22047884.3634
 -17929895.75448 -13939118.96046  21744592.5084                   21744594.0784
 -13062146.81248 -10114838.73645  22019288.6414                   22019287.7304
 11  8 26  2 23  0.0000000  0  9G26G21G15G12G29G05G02G25G30
   2501891.32847   1965697.41945  22483909.4534   22483908.8754   24190249.41045
  18862749.10942                  24927300.5634                   24927300.6914
  13904680.07846  10851113.39444  23316776.3754                   23316776.1684
 -30632987.16847 -23842680.09245  22256433.9844                   22256434.0084
  -6715535.15647  -5217702.39545  21614156.1644                   21614155.8324
 -33666186.88348 -26201147.85346  20808181.3284                   20808179.3364
 -48032736.44547 -37395236.16045  22038350.7424                   22038347.9964
 -17988620.27748 -13984878.31846  21733418.1564                   21733419.3754
 -13114319.41048 -10155492.69845  22009359.9224                   22009360.1454
 11  8 26  2 23 30.0000000  0  9G26G21G15G12G29G05G02G25G30
   2326566.58247   1829080.79045  22450546.2504   22450545.6214   24041811.59846
  18747083.41442                  24899053.0234                   24899052.5944
  13716119.28546  10704183.00044  23280894.0704                   23280894.2664
 -30642612.14547 -23850180.06745  22254602.3594                   22254601.6604
  -6881769.67647  -5347235.72945  21582522.7894                   21582522.3834
 -33703458.27748 -26230190.49146  20801089.0554                   20801087.1254
 -48082763.52048 -37434218.27345  22028831.0634                   22028827.9964
 -18046845.09048 -14030248.30146  21722338.0314                   21722339.8714
 -13166009.25848 -10195770.50745  21999524.1094                   21999523.4024
 11  8 26  2 24  0.0000000  0  9G26G21G15G12G29G05G02G25G30
   2151541.87947   1692697.95044  22417240.7114   22417239.1644   23893369.93845
  18631414.70342                  24870806.4384                   24870805.7194
  13527611.41047  10557293.80844  23245022.2504                   23245021.8444
 -30651985.39147 -23857483.90145  22252818.6954                   22252818.4414
  -7047799.23047  -5476609.38145  21550928.6884                   21550928.2974
 -33740348.14848 -26258935.84046  20794068.9534                   20794067.0124
 -48132704.39547 -37473133.23645  22019327.6484                   22019324.7504
 -18104574.21148 -14075232.04146  21711352.6254                   21711354.1524
 -13217220.82447 -10235675.63545  21989778.9454                   21989779.0904
 11  8 26  2 24 30.0000000  0  9G26G21G15G12G29G05G02G25G30
   1976821.48047   1556552.23145  22383991.7734   22383990.8014   23744924.07046
  18515742.75442                  24842557.9384                   24842556.7074
  13339160.01247  10410448.64044  23209161.2424                   23209160.8834
 -30661109.37947 -23864593.48645  22251082.4924                   22251082.1644
  -7213620.46147  -5605820.69345  21519373.7974                   21519373.1644
 -33776858.22348 -26287385.23646  20787121.4454                   20787119.9064
 -48182557.82447 -37511980.06145  22009840.9304                   22009837.8674
 -18161808.92248 -14119830.50646  21700460.9064                   21700463.0944
 -13267955.75446 -10275209.33345  21980124.5554                   21980124.3284
 11  8 26  2 25  0.0000000  0  9G26G21G15G12G29G05G02G25G30
   3377837.87547   2648253.35945  22650596.8674   22650595.5704   25171901.82046
  19627673.63742                  25114102.7894                   25114102.2894
  14726197.48047  11491257.15444  23473105.7034                   23473105.9694
 -29094563.44947 -22643908.34345  22549186.5234                   22549186.0704
  -5803802.97747  -4507261.55845  21787653.5944                   21787652.3204
 -32237566.70348 -25087937.30146  21080038.8204                   21080037.2854
 -46656899.19547 -36323155.16145  22300164.4304                   22300161.0824
 -16643126.24648 -12936441.41146  21989456.8444                   21989458.1294
 -11742791.70347  -9086769.81145  22270353.0084                   22270352.9454
 11  8 26  2 25 30.0000000  0  9G26G21G15G12G29G05G02G25G30
   3203738.22747   2512591.36045  22617466.6564   22617465.8834   25023447.68046
  19511995.16442                  25085852.5864                   25085851.6454
  14537869.35547  11344508.04545  23437268.4774                   23437268.1804
 -29103196.46547 -22650635.37345  22547543.2734                   22547543.5164
  -5969200.36347  -4636142.62145  21756179.4064                   21756177.9414
 -32273323.26648 -25115799.55246  21073234.5554                   21073233.1214
 -46706576.25048 -36361864.56245  22290711.4614                   22290707.4104
 -16699377.02348 -12980273.19146  21978752.7344                   21978753.9924
 -11792579.49247  -9125565.49445  22260878.9304                   22260879.4224
 11  8 26  2 26  0.0000000  0  9G26G21G15G12G29G05G02G25G30
   3029955.57047   2377176.34845  22584396.6024   22584395.7234   24874989.73446
  19396313.82443                  25057602.1024                   25057601.1804
  14349608.27347  11197811.19344  23401443.0864                   23401442.5474
 -29111587.39848 -22657173.78245  22545947.0704                   22545946.6094
  -6134381.19547  -4764854.91245  21724746.0554                   21724744.8874
 -32308705.47348 -25143370.10046  21066501.2894                   21066500.0044
 -46756163.64547 -36400504.11445  22281275.1724                   22281271.6804
 -16755137.87548 -13023723.19446  21968141.6884                   21968143.5474
 -11841896.32847  -9163994.17345  22251494.2194                   22251494.2274
 11  8 26  2 26 30.0000000  0  9G26G21G15G12G29G05G02G25G30
   2856494.03947   2242011.56745  22551387.7814   22551387.5204   24726527.90246
  19280629.33743                  25029349.6484                   25029349.3634
  14161418.11347  11051169.58944  23365631.0864                   23365631.2384
 -29119738.78547 -22663525.50445  22544396.1334                   22544395.7854
  -6299342.20347  -4893395.92145  21693354.5784                   21693353.5004
 -32343715.36348 -25170650.53746  21059839.1804                   21059837.9694
 -46805660.37947 -36439073.00045  22271856.2424                   22271852.5904
 -16810410.12948 -13066792.48246  21957623.7814                   21957625.2664
 -11890743.97346  -9202057.30645  22242198.7504                   22242199.3444
 11  8 26  2 27  0.0000000  0  9G26G21G15G12G29G05G02G25G30
   2683356.24647   2107099.04445  22518441.1254   22518439.4694   24578060.44146
  19164940.57743                  25001097.3054                   25001097.8794
  13973300.67247  10904584.64444  23329833.5084                   23329833.2544
 -29127654.60247 -22669693.67945  22542889.3674                   22542889.0784
  -6464082.59047  -5021764.99445  21662006.1724                   21662004.8834
 -32378356.07448 -25197643.31146  21053247.2504                   21053245.7664
 -46855067.38347 -36477571.98345  22262454.1024                   22262450.7424
 -16865197.14848 -13109483.64746  21947198.1254                   21947199.4774
 -11939126.14547  -9239757.67745  22232992.0474                   22232992.0784
 11  8 26  2 27 30.0000000  0  9G26G21G15G12G29G05G02G25G30
   2510548.11747   1972443.39945  22485556.3524   22485556.3524   24429589.06346
  19049248.67143                  24972844.0864                   24972843.3204
  13785261.56347  10758060.76944  23294051.0164                   23294050.4344
 -29135336.05947 -22675679.24245  22541427.6254                   22541427.1844
  -6628597.51247  -5149958.41445  21630699.8054                   21630698.6914
 -32412627.82048 -25224348.55846  21046725.7814                   21046723.8874
 -46904381.94148 -36515998.92145  22253069.7814                   22253066.8484
 -16919498.45348 -13151796.34146  21936865.0394                   21936866.8244
 -11987042.74648  -9277095.30345  22223874.1804                   22223874.4574
 11  8 26  2 28  0.0000000  0  9G26G21G15G12G29G05G02G25G30
   2338073.59447   1838047.73245  22452735.5704   22452734.7854   24281113.52746
  18933553.63043                  24944590.3444                   24944589.6414
  13597303.76647  10611600.19644  23258284.2034                   23258283.5704
 -29142785.56647 -22681484.04845  22540009.6564                   22540008.8674
  -6792884.48047  -5277974.19845  21599437.5234                   21599436.0784
 -32446532.91848 -25250768.10846  21040273.7734                   21040271.7664
 -46953603.54748 -36554353.44345  22243703.2974                   22243700.1804
 -16973316.13748 -13193732.17546  21926624.0864                   21926625.4884
 -12034496.22747  -9314072.05645  22214844.0004                   22214843.2274
 11  8 26  2 28 30.0000000  0  9G26G21G15G12G29G05G02G25G30
   2165935.09847   1703913.88445  22419978.8284   22419978.0904   24132632.10546
  18817853.90643                  24916334.7814                   24916335.5664
  13409429.25447  10465204.57244  23222532.2974                   23222532.2734
 -29150007.37147 -22687111.44045  22538635.7344                   22538635.4654
  -6956942.25047  -5405811.39245  21568218.0704                   21568217.0824
 -32480074.82448 -25276904.64946  21033891.1484                   21033889.2074
 -47002733.20347 -36592636.30045  22234353.7504                   22234351.0394
 -17026653.38348 -13235293.65546  21916474.3134                   21916475.5864
 -12081490.30148  -9350690.80245  22205901.0554                   22205900.3834
 11  8 26  2 29  0.0000000  0  9G26G21G15G12G29G05G02G25G30
   1994135.18047   1570043.86245  22387286.3594   22387285.6484   23984143.19547
  18702148.38543                  24888078.7194                   24888078.3634
  13221640.04346  10318875.36544  23186797.2734                   23186797.4064
 -29157005.64547 -22692564.63945  22537304.6414                   22537303.7344
  -7120769.40647  -5533468.89645  21537042.8914                   21537041.8834
 -32513257.25048 -25302761.07446  21027576.4304                   21027574.5124
 -47051771.74647 -36630848.15145  22225022.3054                   22225019.0904
 -17079513.39548 -13276483.25646  21906414.9144                   21906416.8914
 -12128028.40248  -9386954.25145  22197045.5864                   22197045.2194
 11  8 26  2 29 30.0000000  0  9G26G21G15G12G29G05G02G25G30
   1822677.62947   1436440.63245  22354658.6334   22354658.6484   23835646.33247
  18586436.67343                  24859820.8204                   24859820.0704
  13033939.31347  10172615.14744  23151078.8284                   23151078.9734
 -29163783.46947 -22697846.06345  22536014.5164                   22536013.8404
  -7284363.72747  -5660944.96045  21505911.9064                   21505910.9844
 -32546082.37148 -25328339.09046  21021329.9304                   21021328.4654
 -47100718.55547 -36668988.52645  22215707.8524                   22215705.3014
 -17131898.28148 -13317302.62746  21896446.6724                   21896448.0634
 -12174113.12148  -9422864.40245  22188275.5234                   22188275.0124
 11  8 26  2 30  0.0000000  0  9G26G21G15G12G29G05G02G25G30
   1651566.06647   1303106.99345  22322097.1484   22322096.8484   23687140.98046
  18470718.37843                  24831560.7034                   24831561.0864
  12846329.89547  10026426.07444  23115378.1254                   23115377.7424
 -29170343.87947 -22702958.09245  22534765.8364                   22534765.1994
  -7447722.73447  -5788237.64345  21474825.0554                   21474824.7424
 -32578552.52048 -25353640.48846  21015151.2734                   21015150.0514
 -47149573.06247 -36707056.97945  22206411.0314                   22206408.6994
 -17183810.20348 -13357753.47446  21886568.4454                   21886569.7814
 -12219746.96948  -9458423.24145  22179591.9384                   22179591.1844
 11  8 26  2 30 30.0000000  0  9G26G21G15G12G29G05G02G25G30
   1480803.37547   1170045.20945  22289602.1174   22289601.6294   23538625.85946
  18354992.46443                  24803299.3754                   24803298.7034
  12658814.16847   9880309.98645  23079695.3364                   23079694.7074
 -29176690.58247 -22707903.57445  22533558.3524                   22533557.6764
  -7610844.90247  -5915345.79045  21443783.8134                   21443783.1254
 -32610670.69948 -25378667.63746  21009039.2504                   21009037.8014
 -47198335.94947 -36745054.03545  22197131.9144                   22197128.9224
 -17235252.10248 -13397838.03646  21876779.2424                   21876780.3094
 -12264933.31248  -9493633.37845  22170993.3524                   22170993.0824
 11  8 26  2 31  0.0000000  0  9G26G21G15G12G29G05G02G25G30
   1310391.32047   1037256.65345  22257173.6564   22257173.7934   23390098.71546
  18239257.06843                  24775035.2734                   24775034.6644
  12471393.63747   9734268.06944  23044029.1094                   23044029.7074
 -29182828.42247 -22712686.31745  22532390.2734                   22532389.3364
  -7773729.30947  -6042268.66345  21412787.8364                   21412787.4064
 -32642441.33648 -25403423.97446  21002993.6414                   21002992.5634
 -47247008.46947 -36782980.66845  22187870.0864                   22187867.3164
 -17286227.81248 -13437559.35946  21867078.8754                   21867080.4614
 -12309676.28147  -9528498.01945  22162478.7194                   22162478.1954
 11  8 26  2 31 30.0000000  0  9G26G21G15G12G29G05G02G25G30
   1140335.40247    904745.57245  22224813.5704   22224813.0354   23241560.22346
  18123512.89343                  24746769.0394                   24746768.5044
  12284073.10247   9588304.08644  23008383.9304                   23008383.6134
 -29188758.73847 -22717307.33845  22531262.1724                   22531261.2464
  -7936371.98847  -6169003.16945  21381838.5474                   21381836.7194
 -32673865.23448 -25427910.12247  20997013.7814                   20997012.7894
 -47295588.84847 -36820835.49745  22178625.5084                   22178622.9104
 -17336737.96948 -13476917.91446  21857467.0234                   21857468.3754
 -12353976.85947  -9563017.94045  22154048.6954                   22154047.8954
 11  8 26  2 32  0.0000000  0  9G26G21G15G12G29G05G02G25G30
    970637.76247    772513.69345  22192520.5554   22192521.0084   23093009.30546
  18007759.07643                  24718501.0474                   24718500.0864
  12096853.93447   9442419.09744  22972757.2974                   22972757.3714
 -29194485.70747 -22721769.93045  22530172.0394                   22530171.7464
  -8098772.05147  -6295548.64245  21350934.7274                   21350933.1914
 -32704946.06648 -25452128.94846  20991099.2504                   20991097.8714
 -47344078.09447 -36858619.32345  22169398.1564                   22169395.4454
 -17386786.21148 -13515916.54446  21847942.8364                   21847944.5394
 -12397839.15647  -9597196.31845  22145701.9384                   22145701.4964
 11  8 26  2 32 30.0000000  0  9G26G21G15G12G29G05G02G25G30
    801301.14547    640563.11545  22160297.1954   22160296.8984   22944444.24246
  17891994.18943                  24690229.8444                   24690229.8094
  11909738.75047   9296615.11544  22937150.2344                   22937149.9844
 -29200013.64147 -22726077.43245  22529119.8364                   22529119.3754
  -8260928.18447  -6421904.04645  21320077.7034                   21320076.3244
 -32735687.44148 -25476083.26246  20985249.3754                   20985247.9264
 -47392476.56647 -36896332.42045  22160188.7894                   22160185.6374
 -17436375.75048 -13554557.71946  21838506.6334                   21838507.6644
 -12441266.68747  -9631035.97045  22137437.9614                   22137437.4264
 11  8 26  2 33  0.0000000  0  9G26G21G15G12G29G05G02G25G30
    632328.57447    508896.22245  22128143.0314   22128142.3404   22795863.70346
  17776217.24743                  24661955.5864                   24661954.9654
  11722730.03147   9150894.11044  22901563.5004                   22901563.6374
 -29205346.14147 -22730232.61545  22528104.9224                   22528104.1214
  -8422837.94547  -6548067.46845  21289267.3834                   21289266.2504
 -32766091.75448 -25499774.92246  20979463.8674                   20979461.9964
 -47440784.46547 -36933974.91945  22150996.0474                   22150992.8324
 -17485509.21948 -13592843.55146  21829156.7344                   21829157.9384
 -12484262.45747  -9664539.13345  22129256.4454                   22129255.7194
 11  8 26  2 33 30.0000000  0  9G26G21G15G12G29G05G02G25G30
   2039150.19947   1605120.88245  22395852.2424   22395851.4924   24222693.00846
  18888032.35743                  24933472.7974                   24933472.2504
  13111257.73047  10232863.78644  23165791.6414                   23165791.3094
 -27635065.06247 -21506636.98045  22826919.9774                   22826918.5784
  -7009073.02047  -5446432.41945  21558297.4304                   21558296.8244
 -31220740.14548 -24295604.82146  21273534.4454                   21273532.5164
 -45913579.20348 -35743944.84145  22441613.5084                   22441610.2734
 -15958766.53948 -12403173.92546  22119685.9534                   22119687.5744
 -10951406.96147  -8470106.25845  22420948.9224                   22420948.6804
 11  8 26  2 34  0.0000000  0  9G26G21G15G12G29G05G02G25G30
   1870919.45348   1474032.01045  22363838.6884   22363838.3524   24074083.20746
  18772232.61843                  24905193.2974                   24905192.7194
  12924473.77747  10087317.91144  23130247.7114                   23130247.3204
 -27640012.62947 -21510492.22545  22825978.8754                   22825977.2504
  -7170480.89147  -5572204.73845  21527582.3284                   21527581.8284
 -31250475.62148 -24318775.30946  21267875.5394                   21267873.7624
 -45961701.98448 -35781443.10045  22432455.9384                   22432452.3634
 -16006992.11348 -12440752.28346  22110508.8444                   22110510.4924
 -10993544.61347  -8502940.78945  22412930.8834                   22412930.6094
 11  8 26  2 34 30.0000000  0  9G26G21G15G12G29G05G02G25G30
   1703067.57048   1343238.37545  22331897.5004   22331897.3204   23925460.66846
  18656422.90843                  24876910.6024                   24876909.7114
  12737809.61347   9941865.37245  23094726.9064                   23094726.5474
 -27644769.60947 -21514198.97845  22825073.3594                   22825072.0474
  -7331631.54747  -5697776.61645  21496916.4774                   21496915.5944
 -31279877.58648 -24341685.90546  21262280.4614                   21262278.8054
 -46009729.12148 -35818866.82345  22423316.9614                   22423313.0204
 -16054764.57848 -12477977.58746  22101418.1174                   22101419.6024
 -11035254.52347  -8535442.02045  22404992.9064                   22404993.0514
 11  8 26  2 35  0.0000000  0  9G26G21G15G12G29G05G02G25G30
   1535595.54747   1212740.71745  22300028.6174   22300028.3794   23776821.99646
  18540600.60043                  24848625.4064                   24848624.7464
  12551265.57447   9796506.44345  23059229.1094                   23059228.1134
 -27649342.09447 -21517761.97545  22824203.0634                   22824202.5004
  -7492525.46147  -5823148.44545  21466299.7274                   21466298.5664
 -31308951.13748 -24364340.62346  21256748.0234                   21256746.5084
 -46057663.01647 -35856217.89145  22414195.1334                   22414191.9614
 -16102088.98448 -12514853.74546  22092412.4454                   22092414.3324
 -11076542.09447  -8567614.14345  22397136.1644                   22397136.6724
 11  8 26  2 35 30.0000000  0 10G26G21G15G12G29G05G02G25G30G18
   1368506.09847   1082541.17045  22268232.6484   22268232.0434   23628166.12146
  18424764.99243                  24820337.4454                   24820336.3164
  12364844.10947   9651243.01445  23023754.1884                   23023753.2424
 -27653733.87947 -21521184.16045  22823367.4774                   22823367.0554
  -7653160.65647  -5948318.69145  21435731.8594                   21435730.3794
 -31337699.63348 -24386742.03246  21251277.5554                   21251276.0434
 -46105504.00047 -35893496.57745  22405091.0704                   22405088.3014
 -16148968.47348 -12551383.22646  22083491.5864                   22083493.3594
 -11117410.86747  -8599459.91245  22389359.2814                   22389359.3404
  29667045.95356  23133375.75052  24749893.3674                   24749893.7624
 11  8 26  2 36  0.0000000  0 10G26G21G15G12G29G05G02G25G30G18
   1201793.19947    952635.06845  22236507.9534   22236507.7344   23479483.25446
  18308908.30643                  24792044.0084                   24792042.4844
  12178538.75847   9506070.08645  22988301.1954                   22988300.9774
 -27657957.23447 -21524475.10045  22822563.3754                   22822563.4804
  -7813544.41847  -6073293.00445  21405212.0394                   21405210.2274
 -31366135.06648 -24408899.49846  21245866.4694                   21245865.1334
 -46153261.02747 -35930709.82845  22396003.1724                   22395999.9844
 -16195414.91048 -12587575.23846  22074653.5164                   22074654.8094
 -11157873.02047  -8630988.87245  22381659.5634                   22381659.7464
  29485007.18046  22991527.65242  24715252.1414                   24715252.3834
 11  8 26  2 36 30.0000000  0 10G26G21G15G12G29G05G02G25G30G18
   1035460.38347    823025.11145  22204855.7584   22204854.6524   23330772.51646
  18193029.80743                  24763745.4534                   24763743.5904
  11992352.54747   9360990.00445  22952871.0164                   22952870.4924
 -27662015.46947 -21527637.35445  22821791.1174                   22821790.8364
  -7973674.17247  -6198069.40145  21374740.5004                   21374738.1134
 -31394259.60548 -24430814.71846  21240514.6024                   21240513.2034
 -46200934.03147 -35967857.60045  22386931.4534                   22386928.0274
 -16241430.70348 -12623431.70546  22065896.4844                   22065898.3594
 -11197931.32047  -8662203.10245  22374036.7664                   22374036.6954
  29303124.68446  22849801.33242  24680640.6334                   24680641.1994
 11  8 26  2 37  0.0000000  0 10G26G21G15G12G29G05G02G25G30G18
    869512.45347    693715.07045  22173277.1414   22173276.4844   23182034.48046
  18077130.14343                  24735441.4384                   24735439.0434
  11806289.60947   9216005.95945  22917464.7734                   22917463.4614
 -27665910.65647 -21530672.55245  22821050.1954                   22821050.1254
  -8133546.67247  -6322645.32645  21344317.0554                   21344315.4024
 -31422074.69148 -24452488.80446  21235221.5004                   21235220.0124
 -46248521.38347 -36004938.64745  22377875.9144                   22377872.9804
 -16287017.16048 -12658953.61146  22057221.9924                   22057223.4454
 -11237587.43047  -8693103.95745  22366490.3594                   22366489.8524
  29121400.62146  22708198.41843  24646059.8914                   24646060.2074
 11  8 26  2 37 30.0000000  0 10G26G21G15G12G29G05G02G25G30G18
    703958.56647    564712.07345  22141772.7274   22141772.4344   23033274.48847
  17961213.30243                  24707133.9304                   24707131.9924
  11620358.87547   9071124.91145  22882083.0554                   22882082.5234
 -27669639.85547 -21533578.44145  22820340.1954                   22820339.8914
  -8293153.89547  -6447014.55045  21313944.9454                   21313943.7114
 -31449577.01648 -24473919.16146  21229987.9924                   21229986.7814
 -46296016.93447 -36041948.14145  22368837.7344                   22368834.6724
 -16332171.10248 -12694138.49146  22048629.4694                   22048631.2814
 -11276838.51247  -8723689.21645  22359021.1484                   22359021.0744
  28939841.76646  22566724.28143  24611510.3364                   24611510.3834
 11  8 26  2 38  0.0000000  0 10G26G21G15G12G29G05G02G25G30G18
    538800.45747    436017.49445  22110344.4144   22110343.8444   22884490.15647
  17845277.55143                  24678821.2734                   24678819.8204
  11434561.79347   8926348.03645  22846727.0784                   22846725.9144
 -27673207.65647 -21536358.50745  22819661.5084                   22819660.5744
  -8452494.88747  -6571176.30345  21283622.8364                   21283622.0594
 -31476771.03148 -24495109.29746  21224813.3284                   21224811.8754
 -46343422.01647 -36078887.15245  22359816.7894                   22359813.5594
 -16376896.53948 -12728989.46546  22040118.2734                   22040119.8244
 -11315688.91847  -8753962.22445  22351627.9534                   22351627.2704
  28758448.13746  22425378.77042  24576991.0554                   24576992.5864
 11  8 26  2 38 30.0000000  0 10G26G21G15G12G29G05G02G25G30G18
    374041.34047    307633.83545  22078992.1174   22078990.8914   22735680.54746
  17729322.11143                  24650502.8054                   24650502.2774
  11248901.03147   8781677.36245  22811396.7114                   22811396.3054
 -27676617.78547 -21539015.77745  22819012.5704                   22819012.3444
  -8611567.80947  -6695129.18745  21253352.8754                   21253351.6054
 -31503659.66048 -24516061.45746  21219696.4224                   21219694.5904
 -46390736.69947 -36115755.73245  22350813.2664                   22350809.4414
 -16421196.46148 -12763508.89146  22031688.2974                   22031690.1134
 -11354141.92647  -8783925.59345  22344310.7974                   22344310.3874
  28577220.47746  22284162.70342  24542504.8054                   24542505.6174
 11  8 26  2 39  0.0000000  0 10G26G21G15G12G29G05G02G25G30G18
    209687.66047    179566.07345  22047716.3204   22047715.2584   22586848.50447
  17613349.17043                  24622181.1094                   24622179.6334
  11063382.71147   8637117.68445  22776093.4144                   22776093.9494
 -27679870.41847 -21541550.31245  22818394.6564                   22818393.0704
  -8770367.09847  -6818868.84345  21223134.0164                   21223132.8954
 -31530242.20348 -24536775.11846  21214638.0004                   21214636.5984
 -46437957.25047 -36152550.94945  22341826.9694                   22341824.1724
 -16465070.20748 -12797696.21946  22023339.9144                   22023341.0434
 -11392197.27347  -8813579.11945  22337069.1024                   22337068.8244
  28396162.93046  22143079.07042  24508050.2274                   24508050.3914
 11  8 26  2 39 30.0000000  0 10G26G21G15G12G29G05G02G25G30G18
     45740.29347     51814.92645  22016518.7114   22016517.2234   22437990.64547
  17497356.11643                  24593854.0314                   24593853.2344
  10878007.54347   8492669.59745  22740817.6414                   22740817.7934
 -27682971.21147 -21543966.53845  22817804.0554                   22817802.8204
  -8928893.16447  -6942395.61345  21192967.9534                   21192966.4734
 -31556523.56248 -24557254.08746  21209636.4774                   21209635.2704
 -46485086.44947 -36189274.98145  22332858.7664                   22332855.5744
 -16508523.06648 -12831555.56946  22015070.4304                   22015071.5864
 -11429860.49247  -8842927.06945  22329901.9144                   22329901.5474
  28215274.49246  22002127.28143  24473628.5634                   24473628.5044
 11  8 26  2 40  0.0000000  0 10G26G21G15G12G29G05G02G25G30G18
   -117795.86347    -75615.78745  21985398.5864   21985397.5984   22289107.82447
  17381343.56343                  24565522.6644                   24565522.0084
  10692779.60247   8348336.18045  22705569.9924                   22705569.0204
 -27685921.78947 -21546265.70545  22817242.2974                   22817241.5204
  -9087141.92247  -7065706.28245  21162854.1414                   21162852.1134
 -31582505.07448 -24577499.40146  21204692.6564                   21204691.0354
 -46532122.19948 -36225926.19745  22323908.1644                   22323905.2774
 -16551556.06648 -12865087.77946  22006881.6564                   22006883.3674
 -11467133.00847  -8871970.57845  22322808.8674                   22322808.9694
  28034557.54746  21861309.11342  24439238.2344                   24439239.2384
 11  8 26  2 40 30.0000000  0 10G26G21G15G12G29G05G02G25G30G18
   -280918.06647   -202723.96245  21954356.8284   21954357.0554   22140199.06647
  17265310.86244                  24537186.1174                   24537185.3364
  10507701.63747   8204119.63345  22670351.0554                   22670350.1524
 -27688725.22347 -21548450.21845  22816708.9224                   22816708.2624
  -9245111.89147  -7188799.74145  21132793.1724                   21132791.2154
 -31608189.67648 -24597513.36546  21199804.7584                   21199803.2584
 -46579064.82447 -36262504.86145  22314975.4694                   22314972.1024
 -16594172.34448 -12898295.25746  21998772.3594                   21998773.5474
 -11504018.28547  -8900712.35745  22315790.0554                   22315789.7814
  27854013.19146  21720625.37943  24404882.1724                   24404882.2034
 11  8 26  2 41  0.0000000  0 10G26G21G15G12G29G05G02G25G30G18
   -443621.05547   -329505.45145  21923396.4774   21923395.4144   21991265.50847
  17149258.80544                  24508845.5634                   24508844.5704
  10322778.44947   8060023.71145  22635161.6024                   22635160.0204
 -27691383.99247 -21550521.98745  22816202.8444                   22816202.7664
  -9402798.92247  -7311672.73445  21102785.6564                   21102784.3754
 -31633578.25448 -24617296.66546  21194973.6174                   21194971.8284
 -46625912.12947 -36299009.24945  22306060.8054                   22306057.4694
 -16636372.77348 -12931178.70045  21990741.7734                   21990743.3324
 -11540517.46147  -8929153.25345  22308844.8204                   22308843.6764
  27673643.60546  21580077.82343  24370559.0704                   24370559.9144
 11  8 26  2 41 30.0000000  0 10G26G21G15G12G29G05G02G25G30G18
   -605901.14847   -455957.42945  21892515.2194   21892514.1094   21842307.13347
  17033187.43244                  24480498.8984                   24480498.6054
  10138013.36747   7916050.96645  22600001.4454                   22600000.8164
 -27693900.49247 -21552482.92245  22815724.1414                   22815723.9104
  -9560200.32047  -7434323.13245  21072833.3204                   21072831.3134
 -31658672.50448 -24636850.61546  21190198.5164                   21190196.8364
 -46672663.44947 -36335438.84645  22297163.9454                   22297160.8164
 -16678159.53948 -12963739.82145  21982789.8054                   21982791.2854
 -11576633.09047  -8957295.29845  22301972.0704                   22301971.7664
  27493450.99246  21439668.24243  24336268.9774                   24336270.3404
 11  8 26  2 42  0.0000000  0 10G26G21G15G12G29G05G02G25G30G18
    807670.08647    645526.67945  22161508.4064   22161507.5984   23268747.96546
  18144699.84243                  24751942.1564                   24751941.2344
  11528835.48447   8999808.52245  22864666.2894                   22864665.7344
 -26120857.94547 -20326735.50545  23115063.8284                   23115063.8794
  -8141888.35547  -6329144.94145  21342729.3674                   21342728.2234
 -30108055.13748 -23428577.34046  21485270.7344                   21485269.5864
 -45143897.38747 -35144192.55445  22588078.2194                   22588075.7894
 -15144114.33648 -11768379.92146  22274709.0944                   22274710.9964
 -10036947.29347  -7757540.15045  22594964.5704                   22594964.2814
  28888861.95746  22527001.63543  24601807.3594                   24601807.4804
 11  8 26  2 42 30.0000000  0 10G26G21G15G12G29G05G02G25G30G18
    646246.84447    519742.38345  22130790.3284   22130789.7074   23119739.09847
  18028589.18544                  24723586.2274                   24723585.9264
  11344397.09447   8856090.33045  22829568.9064                   22829568.2704
 -26123097.91847 -20328480.92645  23114638.2504                   23114636.8484
  -8298710.52047  -6451343.99945  21312886.5864                   21312885.9614
 -30132568.57448 -23447678.70946  21480606.3834                   21480604.8364
 -45190454.79747 -35180471.05745  22579219.2504                   22579216.1374
 -15185080.87148 -11800301.90246  22266913.7814                   22266915.3284
 -10072303.81247  -7785090.67245  22588237.1254                   22588236.1724
  28709027.20346  22386870.84843  24567585.3914                   24567586.2274
 11  8 26  2 43  0.0000000  0 10G26G21G15G12G29G05G02G25G30G18
    485258.70347    394297.10245  22100155.3444   22100154.6884   22970705.68446
  17912459.30344                  24695225.7894                   24695225.8204
  11160128.16847   8712504.21245  22794503.2114                   22794502.6804
 -26125202.59047 -20330120.92345  23114237.4454                   23114236.6094
  -8455237.92247  -6573313.37045  21283100.8444                   21283100.1214
 -30156793.56248 -23466555.32246  21475996.2894                   21475994.7814
 -45236913.08247 -35216672.31145  22570378.4304                   22570375.2464
 -15225639.53148 -11831906.05546  22259195.3914                   22259197.5944
 -10107283.50047  -7812347.57445  22581580.3754                   22581580.3134
  28529374.95746  22246882.33543  24533398.6484                   24533399.0784
 11  8 26  2 43 30.0000000  0 10G26G21G15G12G29G05G02G25G30G18
    324709.81347    269194.10445  22069603.9384   22069603.1174   22821648.11746
  17796310.62243                  24666861.2114                   24666860.7234
  10976032.72747   8569053.27045  22759470.8914                   22759470.4694
 -26127174.39147 -20331657.40745  23113861.8204                   23113861.0664
  -8611467.29747  -6695050.51445  21253371.2814                   21253370.7234
 -30180731.80148 -23485208.49546  21471441.0634                   21471439.4064
 -45283270.61347 -35252795.05645  22561556.9924                   22561554.0164
 -15265792.31648 -11863193.93646  22251554.5394                   22251555.9344
 -10141888.59847  -7839312.59445  22574995.0474                   22574995.0044
  28349907.16446  22107037.49443  24499247.2034                   24499247.7464
 11  8 26  2 44  0.0000000  0 10G26G21G15G12G29G05G02G25G30G18
    164598.70347    144432.24245  22039135.7114   22039135.2664   22672561.03146
  17680138.90744                  24638490.9534                   24638490.3364
  10792108.93047   8425736.06845  22724471.4064                   22724471.0594
 -26129021.25847 -20333096.52745  23113510.8284                   23113509.6644
  -8767401.12947  -6816557.36245  21223698.1484                   21223697.4454
 -30204390.44148 -23503643.79946  21466938.6724                   21466937.3134
 -45329532.15247 -35288843.01045  22552753.3444                   22552750.6024
 -15305546.59848 -11894171.28246  22243989.8524                   22243991.9654
 -10176126.72347  -7865991.65845  22568479.4614                   22568479.8674
  28170620.02346  21967333.38643  24465129.9144                   24465129.3984
 11  8 26  2 44 30.0000000  0 10G26G21G15G12G29G05G02G25G30G18
      4932.47747     20017.04145  22008752.1954   22008751.0004   22523447.84446
  17563946.91544                  24610115.4064                   24610114.8594
  10608363.44147   8282557.83945  22689505.1174                   22689505.2664
 -26130742.49247 -20334437.77145  23113182.9224                   23113182.4964
  -8923033.39847  -6937829.24145  21194082.4694                   21194081.0314
 -30227768.66048 -23521860.59446  21462490.2344                   21462488.7344
 -45375693.76247 -35324813.07345  22543969.5784                   22543966.1724
 -15344901.35248 -11924837.32746  22236500.7424                   22236502.5164
 -10209997.33647  -7892384.34545  22562034.1804                   22562034.3554
  27991518.27746  21827773.80043  24431047.8284                   24431047.0904
 11  8 26  2 45  0.0000000  0 10G26G21G15G12G29G05G02G25G30G18
   -154285.38747   -104048.78645  21978454.5164   21978453.1174   22374307.97746
  17447734.12744                  24581735.2974                   24581734.6884
  10424799.78947   8139521.26645  22654574.5084                   22654573.8554
 -26132341.13747 -20335683.48245  23112878.8134                   23112878.2234
  -9078361.62147  -7058864.17245  21164524.2814                   21164522.9064
 -30250868.40248 -23539860.40246  21458094.3204                   21458092.6454
 -45421754.98447 -35360704.92545  22535204.3204                   22535200.6564
 -15383859.15248 -11955194.03246  22229087.5314                   22229088.5594
 -10243503.14547  -7918492.78245  22555658.2344                   22555658.5664
  27812603.53946  21688359.90543  24397001.0474                   24397000.5864
 11  8 26  2 45 30.0000000  0 10G26G21G15G12G29G05G02G25G30G18
   -313052.57047   -227763.42145  21948241.9534   21948240.5204   22225140.13746
  17331499.55944                  24553349.1254                   24553348.5744
  10241420.08247   7996628.03145  22619678.9924                   22619677.9694
 -26133821.36747 -20336836.93144  23112597.5084                   23112596.3284
  -9233384.21147  -7179660.97145  21135024.4384                   21135022.6644
 -30273693.32048 -23557646.03846  21453751.1094                   21453749.5204
 -45467716.19947 -35396518.83645  22526458.4224                   22526454.7194
 -15422423.64848 -11985244.27446  22221748.6024                   22221749.9734
 -10276648.18747  -7944320.06945  22549350.8754                   22549351.0744
  27633875.84046  21549091.74743  24362990.0004                   24362990.1954
 11  8 26  2 46  0.0000000  0 10G26G21G15G12G29G05G02G25G30G18
   -471364.37548   -351123.24045  21918116.7114   21918115.4734   22075945.21146
  17215243.83043                  24524957.8054                   24524957.0274
  10058228.80147   7853881.63045  22584818.3204                   22584817.6954
 -26135184.50446 -20337899.13045  23112337.8284                   23112337.2154
  -9388097.55947  -7300216.78845  21105583.3984                   21105581.4614
 -30296244.62148 -23575218.47646  21449459.8364                   21449458.1024
 -45513575.52047 -35432253.35545  22517731.2664                   22517727.9534
 -15460596.22348 -12014989.12746  22214484.4694                   22214485.8714
 -10309434.11347  -7969867.57045  22543112.1414                   22543111.9694
  27455337.87946  21409971.38043  24329014.9844                   24329015.0234
 11  8 26  2 46 30.0000000  0 10G26G21G15G12G29G05G02G25G30G18
   -629219.62148   -474127.28645  21888077.9224   21888076.4264   21926720.53546
  17098964.95243                  24496561.4774                   24496560.6994
   9875227.10547   7711282.97245  22549994.4924                   22549993.5164
 -26136435.63746 -20338874.08444  23112099.5004                   23112099.0004
  -9542501.43447  -7420531.46545  21076201.4774                   21076199.4024
 -30318526.46148 -23592580.95246  21445219.6254                   21445217.8674
 -45559334.59847 -35467909.77745  22509023.8674                   22509020.5744
 -15498381.52748 -12044432.19746  22207294.4304                   22207295.1954
 -10341865.77047  -7995138.96745  22536940.5164                   22536939.8054
  27276988.63746  21270998.20243  24295076.0944                   24295076.8954
 11  8 26  2 47  0.0000000  0 10G26G21G15G12G29G05G02G25G30G18
   -786612.57448   -596771.10545  21858126.9064   21858125.9454   21777467.98046
  16982664.33243                  24468159.5394                   24468158.4844
   9692420.09047   7568836.01245  22515207.3674                   22515206.4804
 -26137575.94947 -20339762.66445  23111883.0704                   23111882.2774
  -9696591.07047  -7540601.27045  21046879.2664                   21046877.2234
 -30340539.25048 -23609733.77546  21441030.5004                   21441029.2934
 -45604990.76647 -35503485.99445  22500335.4144                   22500332.2344
 -15535780.02048 -12073573.86746  22200177.3284                   22200178.5594
 -10373943.96947  -8020134.97945  22530836.5704                   22530836.1804
  27098831.53946  21132174.62143  24261174.4774                   24261174.3404
 11  8 26  2 47 30.0000000  0 10G26G21G15G12G29G05G02G25G30G18
   -943538.68048   -719051.15245  21828264.6334   21828263.5664   21628188.52046
  16866342.77343                  24439752.2814                   24439751.8594
   9509812.30147   7426544.29145  22480458.0784                   22480457.4884
 -26138606.62147 -20340565.80945  23111686.4844                   23111686.7934
  -9850362.69147  -7660423.29045  21017617.2114                   21017615.4884
 -30362284.14548 -23626677.84846  21436892.3594                   21436891.1724
 -45650542.27747 -35538980.66945  22491667.2034                   22491664.0514
 -15572793.04748 -12102415.16746  22193134.2344                   22193135.7934
 -10405670.35547  -8044856.83245  22524798.9384                   22524798.6024
  26920869.32846  20993502.86243  24227309.2734                   24227308.7034
 11  8 26  2 48  0.0000000  0 10G26G21G15G12G29G05G02G25G30G18
  -1099996.46948   -840966.29045  21798491.8054   21798490.7194   21478879.98446
  16749998.55843                  24411340.9304                   24411339.1954
   9327405.05147   7284408.81945  22445747.3134                   22445747.0474
 -26139533.03547 -20341287.71445  23111510.9614                   23111510.6724
 -10003816.07847  -7779997.31745  20988416.4064                   20988415.1644
 -30383765.63748 -23643416.68946  21432805.1564                   21432803.5274
 -45695990.44947 -35574394.83945  22483018.8594                   22483015.9184
 -15609425.35248 -12130959.80046  22186163.4064                   22186164.4804
 -10437049.89847  -8069308.41745  22518827.7034                   22518827.2114
  26743100.91846  20854982.28043  24193480.2424                   24193480.8714
 11  8 26  2 48 30.0000000  0 10G26G21G15G12G29G05G02G25G30G18
  -1255986.56248   -962516.96046  21768807.7734   21768806.8134   21329537.82046
  16633628.15743                  24382921.1484                   24382920.6724
   9145197.73047   7142429.12945  22411074.0314                   22411073.4964
 -26140362.12147 -20341933.75845  23111352.5704                   23111352.1604
 -10156952.28147  -7899324.20945  20959275.2194                   20959274.0594
 -30404989.87548 -23659955.04746  21428766.2344                   21428764.7664
 -45741338.82447 -35609731.18745  22474389.2034                   22474386.1954
 -15645683.46547 -12159212.86746  22179263.6954                   22179265.3914
 -10468089.43447  -8093495.05145  22512921.1334                   22512920.6844
  26565523.84447  20716610.66943  24159688.7344                   24159689.2154
 11  8 26  2 49  0.0000000  0 10G26G21G15G12G29G05G02G25G30G18
  -1411500.02748  -1083696.25646  21739214.4304   21739213.5824   21180167.33246
  16517235.67343                  24354497.4454                   24354496.5664
   8963198.97347   7000611.98345  22376440.9454                   22376440.7114
 -26141090.52747 -20342501.37145  23111214.1254                   23111213.9654
 -10309763.18747  -8018397.59645  20930195.5084                   20930195.4414
 -30425953.50848 -23676290.35146  21424776.5394                   21424775.6024
 -45786581.14847 -35644984.95945  22465780.0084                   22465776.9924
 -15681564.39148 -12187172.03246  22172435.4224                   22172437.5554
 -10498786.23447  -8117414.62445  22507080.1024                   22507078.7734
  26388144.81347  20578393.37243  24125934.1094                   24125933.8754
 11  8 26  2 49 30.0000000  0 10G26G21G15G12G29G05G02G25G30G18
  -1566535.52747  -1204503.09445  21709712.3364   21709711.5664   21030766.14147
  16400819.25243                  24326066.8674                   24326066.4804
   8781409.98447   6858958.26345  22341847.8444                   22341847.1764
 -26141723.85247 -20342994.88945  23111093.6334                   23111093.5124
 -10462248.73047  -8137217.42745  20901178.6724                   20901178.2854
 -30446660.88348 -23692425.96346  21420836.3914                   21420835.1414
 -45831718.95747 -35680157.25445  22457190.5634                   22457187.2194
 -15717072.81247 -12214840.93246  22165678.3284                   22165680.6374
 -10529145.22747  -8141070.96745  22501302.5234                   22501302.2734
  26210962.88347  20440329.68643  24092217.9774                   24092217.4694
 11  8 26  2 50  0.0000000  0 10G26G21G15G12G29G05G02G25G30G18
  -1721089.89147  -1324935.03145  21680301.1884   21680300.7734   20881334.08246
  16284378.80943                  24297631.0474                   24297629.5664
   8599834.21147   6717470.69945  22307295.0784                   22307293.9964
 -26142265.05547 -20343416.63445  23110991.0474                   23110990.5274
 -10614406.11347  -8255781.57945  20872223.8834                   20872222.6334
 -30467114.53148 -23708363.87646  21416944.2814                   21416943.2464
 -45876751.57447 -35715247.59745  22448620.9064                   22448618.1134
 -15752211.33247 -12242221.59545  22158991.9614                   22158993.4694
 -10559169.33647  -8164466.38645  22495588.7734                   22495588.4924
  26033979.41046  20302420.59043  24058539.1334                   24058539.1174
 11  8 26  2 50 30.0000000  0 10G26G21G15G12G29G05G02G25G30G18
   -299731.87147   -217383.29945  21950776.0314   21950776.0234   22307298.25846
  17395519.83343                  24568982.3754                   24568982.2584
   9993903.30547   7803758.33545  22572578.0164                   22572576.8204
 -24567294.29347 -19116166.70645  23410697.7034                   23410696.8874
  -9190805.37947  -7146482.26045  21143126.5234                   21143125.1484
 -28911893.52348 -22496503.35846  21712892.8364                   21712891.4414
 -44346254.93047 -34522652.80845  22739864.4694                   22739861.3754
 -14211559.09847 -11041713.35145  22452168.0864                   22452170.0594
  -9013438.06647  -6960000.44445  22789732.3444                   22789731.5474
  27432623.94546  21392273.70143  24324691.4924                   24324692.1524
 11  8 26  2 51  0.0000000  0 10G26G21G15G12G29G05G02G25G30G18
   -453309.03547   -337053.76645  21921551.3984   21921551.0984   22157808.02346
  17279034.10943                  24540535.3364                   24540533.9024
   9812768.29747   7662614.21745  22538109.1644                   22538107.8984
 -24567654.69147 -19116447.54644  23410629.4224                   23410628.0904
  -9342294.89847  -7264526.01645  21114298.8754                   21114297.2664
 -28931842.02748 -22512047.64446  21709096.7344                   21709095.0354
 -44391071.16447 -34557574.51845  22731336.5704                   22731332.8404
 -14245961.48447 -11068520.40146  22445622.3054                   22445623.6334
  -9042796.73047  -6982877.31745  22784144.7584                   22784144.6644
  27256045.62546  21254680.38243  24291089.8524                   24291090.4494
 11  8 26  2 51 30.0000000  0 10G26G21G15G12G29G05G02G25G30G18
   -606396.03147   -456342.29145  21892420.0944   21892419.6914   22008285.18846
  17162522.85743                  24512082.1414                   24512080.2344
   9631855.13747   7521642.98645  22503682.4064                   22503680.9384
 -24567932.25446 -19116663.87144  23410575.5704                   23410575.4024
  -9493449.68747  -7382308.93946  21085535.6254                   21085533.7154
 -28951544.53548 -22527400.23546  21705348.0704                   21705345.9144
 -44435781.05547 -34592413.40145  22722828.5084                   22722825.0984
 -14280002.89147 -11095046.15945  22439143.6254                   22439145.1484
  -9071830.15647  -7005500.75345  22778620.4384                   22778620.1174
  27079668.48046  21117243.72743  24257526.7034                   24257526.5634
 11  8 26  2 52  0.0000000  0 10G26G21G15G12G29G05G02G25G30G18
   -758986.71547   -575244.09845  21863383.0554   21863382.2894   21858731.82846
  17045987.87743                  24483623.5084                   24483621.7304
   9451169.70347   7380849.19445  22469298.8204                   22469297.3794
 -24568127.53547 -19116816.06644  23410539.1094                   23410538.0084
  -9644264.84847  -7499827.22746  21056836.2504                   21056834.6054
 -28971000.99648 -22542561.11846  21701645.0864                   21701643.4614
 -44480382.02047 -34627167.40345  22714341.0164                   22714338.0744
 -14313683.47347 -11121290.76446  22432734.7584                   22432736.1134
  -9100538.77047  -7027871.10545  22773157.3594                   22773157.1644
  26903496.38346  20979966.93243  24224002.0704                   24224001.3834
 11  8 26  2 52 30.0000000  0 10G26G21G15G12G29G05G02G25G30G18
   -911076.65247   -693755.68745  21834441.0234   21834440.3014   21709149.08246
  16929429.96943                  24455158.5704                   24455157.0514
   9270716.48847   7240236.33345  22434959.7584                   22434958.0784
 -24568241.96947 -19116905.23644  23410516.7274                   23410516.4924
  -9794736.64847  -7617077.93845  21028202.5394                   21028200.7814
 -28990212.14848 -22557530.84246  21697989.4064                   21697987.7854
 -44524872.06247 -34661834.96945  22705874.9304                   22705872.1254
 -14347004.71147 -11147255.36846  22426393.8134                   22426395.5354
  -9128924.28947  -7049989.65445  22767755.3524                   22767755.1914
  26727531.42646  20842851.55743  24190516.4144                   24190516.4964
 11  8 26  2 53  0.0000000  0 10G26G21G15G12G29G05G02G25G30G18
  -1062665.77747   -811877.04745  21805595.0004   21805593.3204   21559533.36346
  16812846.36543                  24426687.5554                   24426685.6884
   9090495.69147   7099804.60545  22400664.7664                   22400663.4884
 -24568281.45346 -19116936.05244  23410509.3284                   23410508.8524
  -9944865.54747  -7734061.45145  20999633.5554                   20999631.9884
 -29009183.50048 -22572313.70346  21694379.2194                   21694377.5474
 -44569253.92647 -34696418.23045  22697429.6024                   22697426.4024
 -14379972.42647 -11172944.49146  22420119.9694                   22420122.0124
  -9156992.76647  -7071861.18945  22762414.4224                   22762414.6994
  26551771.91046  20705896.28043  24157070.7504                   24157071.4734
 11  8 26  2 53 30.0000000  0 10G26G21G15G12G29G05G02G25G30G18
  -1213749.94947   -929604.93245  21776844.5704   21776843.0234   21409885.82847
  16696237.98843                  24398210.4774                   24398208.6914
   8910511.64547   6959557.33645  22366414.9384                   22366413.5944
 -24568247.99647 -19116909.98844  23410515.6564                   23410515.1024
 -10094647.94147  -7850774.98446  20971130.6254                   20971129.4454
 -29027916.35948 -22586910.73946  21690814.8054                   21690813.0004
 -44613525.97347 -34730915.96845  22689004.9304                   22689001.8324
 -14412588.32447 -11198359.47846  22413914.2974                   22413914.9064
  -9184746.11747  -7093487.17845  22757132.9064                   22757132.6254
  26376220.12546  20569102.84943  24123664.4694                   24123663.7464
 11  8 26  2 54  0.0000000  0 10G26G21G15G12G29G05G02G25G30G18
  -1364324.51247  -1046935.73345  21748190.9454   21748189.3484   21260207.18046
  16579605.39443                  24369727.2974                   24369726.5904
   8730768.85247   6819498.06745  22332210.8674                   22332209.7234
 -24568143.10246 -19116828.28644  23410536.1094                   23410535.0124
 -10244080.42647  -7967215.83046  20942694.4774                   20942693.3984
 -29046411.85248 -22601322.80346  21687295.1954                   21687293.4964
 -44657685.66047 -34765326.12445  22680601.5394                   22680598.1954
 -14444853.84047 -11223501.44046  22407773.9304                   22407775.8284
  -9212186.12147  -7114868.99645  22751911.5554                   22751911.6214
  26200878.58246  20432473.21343  24090298.1094                   24090296.9574
 11  8 26  2 54 30.0000000  0 10G26G21G15G12G29G05G02G25G30G18
  -1514385.74247  -1163866.52445  21719635.3834   21719633.7894   21110497.80546
  16462948.79743                  24341238.1174                   24341236.7544
   8551271.00047   6679629.65245  22298053.4224                   22298052.4304
 -24567969.33246 -19116692.90244  23410569.6484                   23410569.1804
 -10393159.94147  -8083381.64046  20914325.9844                   20914324.8874
 -29064671.65648 -22615551.23246  21683820.5474                   21683818.7894
 -44701731.94947 -34799647.93145  22672219.4844                   22672216.6054
 -14476771.14547 -11248372.07346  22401700.2424                   22401702.1214
  -9239315.10547  -7136008.46545  22746748.9064                   22746748.8054
  26025748.65647  20296008.50043  24056971.6724                   24056970.0744
 11  8 26  2 55  0.0000000  0 10G26G21G15G12G29G05G02G25G30G18
  -1663930.63347  -1280394.96045  21691178.2274   21691176.1724   20960757.16846
  16346267.85143                  24312743.4924                   24312742.8204
   8372021.24647   6539954.56345  22263943.5634                   22263943.2274
 -24567729.24246 -19116505.83544  23410614.9454                   23410614.7464
 -10541884.01647  -8199270.51246  20886024.6954                   20886023.3134
 -29082698.14848 -22629597.83846  21680390.0474                   21680388.7274
 -44745664.74247 -34833881.29045  22663859.8204                   22663856.6294
 -14508343.15647 -11272973.65246  22395692.1414                   22395693.6844
  -9266136.23847  -7156908.03945  22741645.1644                   22741644.6914
  25850831.59846  20159709.63443  24023686.0004                   24023684.6644
 11  8 26  2 55 30.0000000  0 10G26G21G15G12G29G05G02G25G30G18
  -1812959.74247  -1396521.51345  21662818.5634   21662816.9774   20810981.40246
  16229559.59843                  24284242.0164                   24284241.6804
   8193018.95747   6400472.31445  22229880.3594                   22229879.6994
 -24567429.66046 -19116272.42744  23410671.8364                   23410671.7624
 -10690254.00847  -8314883.46146  20857791.0554                   20857789.2774
 -29100497.47748 -22643467.44546  21677002.8284                   21677001.2384
 -44789487.45347 -34868028.90045  22655520.8364                   22655517.3874
 -14539576.37947 -11297311.21645  22389749.0084                   22389750.2074
  -9292656.17647  -7177572.91445  22736598.0704                   22736598.9844
  25676124.79346  20023574.62443  23990440.1644                   23990438.9924
 11  8 26  2 56  0.0000000  0 10G26G21G15G12G29G05G02G25G30G18
  -1961468.30947  -1512242.42545  21634558.4224   21634557.3094   20661171.95346
  16112824.98343                  24255734.5864                   24255733.2624
   8014269.08247   6261186.74146  22195865.1564                   22195864.8954
 -24567072.02046 -19115993.75944  23410740.1414                   23410740.1174
 -10838265.80947  -8430217.32146  20829625.2894                   20829623.2894
 -29118070.39148 -22657160.61846  21673658.9924                   21673657.1214
 -44833197.56247 -34902088.74845  22647202.9614                   22647200.1724
 -14570472.09847 -11321385.79545  22383869.4614                   22383871.5864
  -9318876.55547  -7198004.39745  22731609.1024                   22731609.1804
  25501630.63346  19887605.30943  23957235.1174                   23957234.5434
 11  8 26  2 56 30.0000000  0 10G26G21G15G12G29G05G02G25G30G18
  -2109454.40647  -1627556.23845  21606397.7194   21606395.8714   20511327.45346
  15996063.10543                  24227219.9534                   24227219.2154
   7835773.84047   6122099.58746  22161898.9844                   22161897.9804
 -24566659.91446 -19115672.66644  23410818.0394                   23410818.8594
 -10985918.07047  -8545271.00646  20801527.9844                   20801525.8204
 -29135420.05148 -22670679.83346  21670357.0394                   21670355.6374
 -44876795.46547 -34936061.16445  22638906.4924                   22638903.1454
 -14601034.08247 -11345200.34045  22378053.7584                   22378054.8714
  -9344801.28547  -7218205.49645  22726675.8984                   22726675.7304
  25327349.29347  19751801.79943  23924070.3674                   23924069.4104
 11  8 26  2 57  0.0000000  0 10G26G21G15G12G29G05G02G25G30G18
  -2256914.57048  -1742460.22745  21578336.9064   21578335.1054   20361448.03946
  15879274.05243                  24198698.7734                   24198697.5434
   7657536.59847   5983213.47945  22127981.5004                   22127980.4534
 -24566196.24246 -19115311.40145  23410906.6804                   23410906.6374
 -11133208.10547  -8660042.44946  20773499.1024                   20773497.6134
 -29152548.36748 -22684026.55946  21667097.7814                   21667096.0554
 -44920280.32447 -34969945.46745  22630631.5784                   22630628.4844
 -14631264.75447 -11368756.71845  22372301.2114                   22372302.2424
  -9370433.00047  -7238178.24545  22721798.2814                   22721797.4884
  25153282.43846  19616165.38643  23890946.6334                   23890945.1024
 11  8 26  2 57 30.0000000  0 10G26G21G15G12G29G05G02G25G30G18
  -2403850.02047  -1856955.35645  21550375.8204   21550374.7974   20211528.88746
  15762454.02143                  24170169.8984                   24170168.1454
   7479556.19547   5844527.50345  22094112.9774                   22094111.9384
 -24565688.27047 -19114915.59945  23411003.3674                   23411003.4804
 -11280137.91847  -8774533.18846  20745539.5784                   20745537.8914
 -29169462.29348 -22697206.23846  21663879.2814                   21663877.6604
 -44963656.12147 -35003744.80345  22622377.4924                   22622373.8554
 -14661171.38347 -11392060.55945  22366610.3284                   22366610.8284
  -9395779.21147  -7257928.54044  22716974.7424                   22716974.4184
  24979426.50447  19480693.34843  23857862.6254                   23857861.6294
 11  8 26  2 58  0.0000000  0 10G26G21G15G12G29G05G02G25G30G18
  -2550248.69148  -1971032.20945  21522517.1174   21522515.4264   20061578.80547
  15645609.89543                  24141635.2034                   24141634.5124
   7301844.92247   5706051.23345  22060295.4224                   22060294.3094
 -24565129.42647 -19114480.18844  23411110.3754                   23411109.6524
 -11426696.00447  -8888734.25246  20717650.4144                   20717649.2934
 -29186154.89548 -22710213.47646  21660702.7504                   21660701.1644
 -45006912.91447 -35037451.40645  22614146.0554                   22614142.5664
 -14690747.68047 -11415107.03645  22360981.8834                   22360982.8754
  -9420833.81647  -7277451.64645  22712207.3754                   22712207.4454
  24805791.74647  19345393.66943  23824821.5864                   23824819.9964
 11  8 26  2 58 30.0000000  0 10G26G21G15G12G29G05G02G25G30G18
  -2696111.37147  -2084691.41445  21494760.4774   21494759.0474   19911593.71546
  15528738.45643                  24113094.3444                   24113092.1454
   7124402.42247   5567784.41345  22026528.7974                   22026528.0904
 -24564526.52747 -19114010.40144  23411224.5784                   23411224.4104
 -11572883.58647  -9002646.61946  20689831.6174                   20689830.7734
 -29202632.35548 -22723053.05046  21657567.4924                   21657566.1024
 -45050054.00047 -35071067.85245  22605936.3444                   22605933.5664
 -14720000.23847 -11437901.24045  22355415.5704                   22355416.8754
  -9445603.65247  -7296752.80944  22707493.6334                   22707492.2544
  24632375.32847  19210264.09343  23791820.3754                   23791819.4844
 11  8 26  2 59  0.0000000  0 10G26G21G15G12G29G05G02G25G30G18
  -1266008.57447   -970325.57045  21766900.3284   21766898.6054   21337000.44946
  16639445.12543                  24384339.4614                   24384338.0984
   8522659.33647   6657335.29345  22292608.1644                   22292607.9104
 -22988460.80947 -17885907.33044  23711140.3204                   23711139.7384
 -10143271.54347  -7888663.18346  20961877.9224                   20961876.9844
 -27643474.72348 -21508125.02046  21954265.2664                   21954263.7734
 -43517655.75847 -33876991.31245  22897542.2734                   22897539.5124
 -13173509.35947 -10232843.40045  22649703.0864                   22649703.8204
  -7894669.28546  -6088232.53644  23002626.5474   23002626.0124   26034605.98447
  20302911.48043                  24058656.6804                   24058655.6214
 11  8 26  2 59 30.0000000  0 10G26G21G15G12G29G05G02G25G30G18
  -1410790.61747  -1083142.71246  21739348.7274   21739347.4924   21186944.96146
  16522518.86943                  24355785.4144                   24355783.3524
   8345763.10547   6519494.13545  22258945.9534                   22258945.0474
 -22987778.64147 -17885375.82545  23711270.2194                   23711269.5004
 -10288711.03947  -8001992.63746  20934202.1024                   20934201.1334
 -27659528.89148 -21520634.77346  21951210.0394                   21951208.7114
 -43560563.88347 -33910426.21645  22889376.9144                   22889374.2464
 -13202123.35247 -10255140.01245  22644257.5554                   22644259.1764
  -7918879.13747  -6107097.36544  22998019.2814   22998018.7154   25861629.33247
  20168124.58143                  24025739.9844                   24025738.8714
 11  8 26  3  0  0.0000000  0 10G26G21G15G12G29G05G02G25G30G18
  -1555026.72348  -1195534.45245  21711901.3204   21711900.1294   21036854.62546
  16405565.47443                  24327224.1564                   24327222.4344
   8169145.91847   6381870.39845  22225336.9844                   22225336.0514
 -22987060.05147 -17884815.91744  23711406.7504                   23711406.1054
 -10433772.23848  -8115027.32346  20906597.8444                   20906595.9884
 -27675373.71148 -21532981.38046  21948194.9454                   21948193.8914
 -43603353.77047 -33943769.02445  22881234.8594                   22881231.9184
 -13230421.38347 -10277190.44645  22638872.5234                   22638874.5434
  -7942812.57047  -6125746.79644  22993465.0394   22993464.9494   25688874.97347
  20033510.97443                  23992866.0234                   23992864.4804
 11  8 26  3  0 30.0000000  0 10G26G21G15G12G29G05G02G25G30G18
  -1698715.49648  -1307499.70146  21684558.4774   21684557.7034   20886727.99246
  16288583.79543                  24298655.2664                   24298653.9184
   7992809.46147   6244465.42145  22191781.4304                   22191780.5474
 -22986309.28947 -17884230.93944  23711549.7584                   23711548.8714
 -10578453.90248  -8227766.27046  20879065.8204                   20879063.5234
 -27691012.96148 -21545167.80846  21945218.8674                   21945217.1294
 -43646025.94547 -33977020.06445  22873114.7814                   22873111.6914
 -13258407.56647 -10298997.87245  22633547.0234                   22633548.9024
  -7966473.97347  -6144184.26244  22988962.7664   22988961.4694   25516342.83646
  19899070.39843                  23960034.0554                   23960032.7814
 11  8 26  3  1  0.0000000  0 10G26G21G15G12G29G05G02G25G30G18
  -1841854.29748  -1419036.40046  21657319.4534   21657318.6454   20736564.59047
  16171573.40343                  24270080.7584                   24270078.3134
   7816756.51647   6107281.34846  22158279.6254                   22158278.9734
 -22985529.35947 -17883623.22744  23711697.7504                   23711697.6024
 -10722753.96147  -8340207.85846  20851606.0784                   20851604.0124
 -27706449.37148 -21557196.19046  21942281.3284                   21942279.3594
 -43688580.36347 -34010179.36645  22865016.9454                   22865013.4064
 -13286085.28547 -10320564.91945  22628280.1644                   22628281.3444
  -7989866.79347  -6162412.41644  22984511.4454   22984509.9494   25344033.18446
  19764803.30343                  23927244.1254                   23927242.4614
 11  8 26  3  1 30.0000000  0 10G26G21G15G12G29G05G02G25G30G18
  -1984439.10248  -1530141.40746  21630187.1414   21630185.8404   20586365.29347
  16054535.12443                  24241498.3134                   24241496.9884
   7640991.49647   5970321.64645  22124832.4384                   22124831.7274
 -22984722.27747 -17882994.37844  23711851.2894                   23711850.8524
 -10866669.12547  -8452349.52346  20824219.7734                   20824217.6994
 -27721684.16848 -21569067.46146  21939382.3524                   21939380.6054
 -43731015.48047 -34043245.68145  22856941.5784                   22856937.9384
 -13313456.24647 -10341892.96745  22623071.4614                   22623072.9774
  -8012992.99247  -6180432.84244  22980109.8674   22980109.6724   25171948.17646
  19630711.27943                  23894497.4694                   23894495.6994
 11  8 26  3  2  0.0000000  0 10G26G21G15G12G29G05G02G25G30G18
  -2126467.43748  -1640812.80746  21603159.4144   21603158.9654   20436129.40647
  15937468.33844                  24212909.7894                   24212908.4104
   7465517.14147   5833588.42745  22091440.4774                   22091440.3954
 -22983891.05547 -17882346.69444  23712010.0704                   23712008.7274
 -11010197.29747  -8564189.63046  20796907.3204                   20796905.4304
 -27736719.40248 -21580783.22546  21936521.4614                   21936519.5164
 -43773330.91047 -34076218.76045  22848889.0864                   22848884.6644
 -13340523.64547 -10362984.45145  22617921.0784                   22617922.2624
  -8035855.93047  -6198248.11944  22975759.4694   22975758.6024   25000088.58646
  19496794.85143                  23861792.8364                   23861791.9694
 11  8 26  3  2 30.0000000  0 10G26G21G15G12G29G05G02G25G30G18
  -2267938.21547  -1751049.74046  21576238.6414   21576238.2114   20285855.39547
  15820371.82344                  24184313.0164                   24184311.2074
   7290334.95347   5697082.86545  22058104.5864                   22058103.9264
 -22983040.37947 -17881683.86344  23712171.9144                   23712171.3444
 -11153337.76647  -8675727.63846  20769668.3134                   20769666.6094
 -27751559.43748 -21592346.88246  21933697.5314                   21933695.1684
 -43815527.59047 -34109099.29744  22840859.3834                   22840855.1644
 -13367292.14547 -10383843.02045  22612827.0394                   22612828.5434
  -8058460.50047  -6215862.06444  22971458.0394   22971457.0204   24828453.68846
  19363053.47043                  23829132.2584                   23829130.3874
 11  8 26  3  3  0.0000000  0 10G26G21G15G12G29G05G02G25G30G18
  -2408849.97748  -1860851.07646  21549423.9064   21549423.4614   20135541.32847
  15703244.04344                  24155709.7034                   24155708.1844
   7115446.49647   5560806.17045  22024824.4144                   22024823.8484
 -22982174.44547 -17881009.14844  23712336.4774                   23712336.6414
 -11296089.73847  -8786962.91346  20742503.6334                   20742502.2734
 -27766207.93448 -21603761.30046  21930909.9304                   21930908.2154
 -43857606.58647 -34141888.08545  22832851.8134                   22832847.5824
 -13393766.26647 -10404472.18945  22607789.3834                   22607790.6914
  -8080811.37547  -6233278.33245  22967205.0164   22967204.9844   24657042.80546
  19229486.64043                  23796513.5234                   23796512.1454
 11  8 26  3  3 30.0000000  0 10G26G21G15G12G29G05G02G25G30G18
  -2549196.32448  -1970211.82446  21522716.6884   21522716.2154   19985190.50047
  15586087.67844                  24127098.4534                   24127097.0084
   6940858.56647   5424763.67945  21991601.5864                   21991599.8554
 -22981292.43447 -17880321.92144  23712504.7114                   23712504.1374
 -11438447.17647  -8897890.76946  20715414.3914                   20715412.5434
 -27780663.74248 -21615025.56346  21928158.8984                   21928157.5944
 -43899564.04347 -34174582.22044  22824867.3054                   22824863.8634
 -13419945.20747 -10424871.34945  22602807.2194                   22602809.0474
  -8102907.94947  -6250496.46645  22963000.2114   22962999.8594   24485860.52046
  19096097.95643                  23763938.4384                   23763937.6454
 11  8 26  3  4  0.0000000  0 10G26G21G15G12G29G05G02G25G30G18
  -2688978.09848  -2079132.64846  21496117.3754   21496116.1724   19834799.18447
  15468899.76844                  24098479.8284                   24098478.7464
   6766570.69947   5288954.98945  21958435.9144                   21958433.7734
 -22980400.78547 -17879627.17944  23712674.2194                   23712673.8714
 -11580411.32048  -9008512.16246  20688399.4144                   20688398.2934
 -27794932.62148 -21626144.16546  21925443.4384                   21925442.3404
 -43941402.44947 -34207183.57044  22816906.1414                   22816902.9104
 -13445835.29747 -10445045.44145  22597880.3444                   22597882.5084
  -8124756.68747  -6267521.46345  22958842.2974   22958842.7504   24314904.32046
  18962885.42643                  23731407.0704                   23731405.6334
 11  8 26  3  4 30.0000000  0 10G26G21G15G12G29G05G02G25G30G18
  -2828193.00047  -2187611.76845  21469625.5394   21469624.7424   19684366.40647
  15351679.55544                  24069853.9694                   24069852.5044
   6592585.24647   5153381.95245  21925327.2274                   21925325.6994
 -22979502.68747 -17878927.41144  23712845.5314                   23712844.6054
 -11721980.55148  -9118825.83446  20661459.7814                   20661458.0904
 -27809016.97348 -21637118.98246  21922763.4924                   21922761.8324
 -43983121.94547 -34239692.28044  22808966.3204                   22808963.9774
 -13471440.14547 -10464997.28145  22593008.9774                   22593010.2034
  -8146361.44547  -6284356.37345  22954731.1644   22954731.6094   24144174.44946
  18829849.27043                  23698918.2894                   23698917.0824
 11  8 26  3  5  0.0000000  0 10G26G21G15G12G29G05G02G25G30G18
  -2966840.82848  -2295649.01245  21443241.5864   21443240.6914   19533889.93047
  15234425.29443                  24041218.8284                   24041217.2734
   6418903.48047   5018045.57045  21892276.7114                   21892275.3874
 -22978603.43047 -17878226.75044  23713016.9534                   23713015.6954
 -11863155.05147  -9228831.92346  20634594.8284                   20634593.4964
 -27822921.69548 -21647953.83646  21920117.5944                   21920115.4574
 -44024724.22747 -34272109.65044  22801049.8524                   22801047.3674
 -13496765.21548 -10484731.08045  22588189.3834                   22588190.4224
  -8167727.76647  -6301005.44244  22950665.2814   22950665.0394   23973669.43446
  18696988.33244                  23666472.0554                   23666471.1644
 11  8 26  3  5 30.0000000  0 10G26G21G15G12G29G05G02G25G30G18
  -3104914.41848  -2403238.78645  21416967.1884   21416966.1804   19383374.16847
  15117140.40544                  24012576.8444                   24012574.6914
   6245532.44547   4882951.30945  21859285.3594                   21859283.7774
 -22977701.44547 -17877523.94844  23713188.0634                   23713187.2154
 -12003927.73847  -9338524.89346  20607806.9694                   20607804.8834
 -27836644.33248 -21658646.78446  21917506.2504                   21917504.4454
 -44066204.23847 -34304431.75944  22793157.0234                   22793154.1254
 -13521808.84047 -10504245.58345  22583423.8914                   22583425.0784
  -8188854.16847  -6317467.58145  22946645.5944   22946645.2704   23803394.76647
  18564306.86744                  23634070.0864                   23634069.1454
 11  8 26  3  6  0.0000000  0 10G26G21G15G12G29G05G02G25G30G18
  -3242408.14548  -2510376.72646  21390803.0084   21390802.1914   19232821.19946
  14999826.52344                  23983927.0394                   23983925.5084
   6072478.18447   4748103.88545  21826353.9454                   21826352.9844
 -22976796.71546 -17876819.00044  23713359.8524                   23713359.5784
 -12144293.81247  -9447901.03746  20581095.6174                   20581093.7464
 -27850184.93048 -21669197.89446  21914929.3834                   21914927.9104
 -44107558.86747 -34336656.13444  22785287.4454                   22785284.5314
 -13546571.27047 -10523540.99245  22578711.5864                   22578712.3954
  -8209741.18047  -6333743.18244  22942670.5554   22942670.0594   23633353.89847
  18431807.64744                  23601711.5864                   23601711.5984
 11  8 26  3  6 30.0000000  0 10G26G21G15G12G29G05G02G25G30G18
  -3379323.32048  -2617063.84946  21364748.9304   21364747.9144   19082227.10246
  14882480.55843                  23955269.2274                   23955267.9694
   5899739.95747   4613502.71346  21793483.0634                   21793481.4144
 -22975895.80147 -17876117.06744  23713531.8054                   23713531.2234
 -12284254.61747  -9556961.37745  20554461.8834                   20554460.4264
 -27863549.29748 -21679611.68846  21912386.3284                   21912384.7114
 -44148791.39147 -34368785.38244  22777440.7974                   22777438.3204
 -13571059.25447 -10542622.53245  22574051.6254                   22574052.5634
  -8230395.49647  -6349837.47745  22938739.9844   22938739.6294   23463544.11746
  18299488.37543                  23569398.1414                   23569396.6294
 11  8 26  3  7  0.0000000  0 10G26G21G15G12G29G05G02G25G30G18
  -3515656.68748  -2723297.59846  21338805.1024   21338804.6724   18931592.74646
  14765103.22643                  23926604.8204                   23926603.1954
   5727321.57447   4479150.74946  21760673.0704                   21760671.5784
 -22975000.98446 -17875419.86244  23713701.5314                   23713701.8204
 -12423807.28147  -9665703.68646  20527906.1024                   20527904.4344
 -27876738.96948 -21689889.34346  21909876.2194                   21909874.4534
 -44189900.44947 -34400818.42645  22769618.6254                   22769615.6334
 -13595275.15247 -10561492.04845  22569443.5004                   22569444.2074
  -8250819.74647  -6365752.49044  22934853.0704   22934852.9384   23293966.68446
  18167350.18843                  23537127.6024                   23537126.3364
 11  8 26  3  7 30.0000000  0 10G26G21G15G12G29G05G02G25G30G18
  -2075979.75048  -1601471.39346  21612766.9694   21612765.9774   20356343.87947
  15875298.96643                  24197725.8284                   24197723.6254
   7130652.95747   5572655.76546  22027717.7894                   22027716.9844
 -21398693.56646 -16647128.43044  24013663.0084                   24013662.6764
 -10987523.86748  -8546521.78746  20801221.7424                   20801220.3444
 -26314334.67248 -20472431.44846  22207192.0004                   22207190.1724
 -42655462.89147 -33205152.79045  23061612.2424                   23061609.1414
 -12043800.00447  -9352550.36845  22864678.8834                   22864680.2424
  -6695595.25446  -5153889.24044  23230802.3524   23230802.7154   24700049.44946
  19262999.21543                  23804697.1954                   23804695.2464
 11  8 26  3  8  0.0000000  0 10G26G21G15G12G29G05G02G25G30G18
  -2211140.44948  -1706791.38245  21587046.8204   21587046.1524   20205629.26647
  15757859.13943                  24169045.6094                   24169043.2384
   6958884.47348   5438810.22746  21995031.4694                   21995030.2704
 -21397817.79346 -16646446.05244  24013829.3914                   24013829.2734
 -11126252.52348  -8654622.00746  20774822.7274                   20774821.5904
 -26327180.19148 -20482440.92046  22204747.7424                   22204745.9734
 -42696322.05947 -33236991.11644  23053836.8674                   23053833.5124
 -12067479.44947  -9371001.91445  22860173.2194                   22860174.1374
  -6715567.53947  -5169452.03544  23227001.6094   23227001.3674   24530940.74246
  19131226.26043                  23772516.5864                   23772515.1094
 11  8 26  3  8 30.0000000  0 10G26G21G15G12G29G05G02G25G30G18
  -2345714.37148  -1811654.15646  21561438.0554   21561437.0864   20054871.03946
  15640385.25943                  24140357.0784                   24140354.6764
   6787442.25847   5305218.92846  21962407.1644                   21962406.1564
 -21396959.23047 -16645777.04444  24013993.3674                   24013992.7774
 -11264569.25448  -8762401.26546  20748502.1254                   20748500.7154
 -26339860.34847 -20492321.55846  22202334.7974                   22202332.9454
 -42737059.17247 -33268734.33444  23046085.0474                   23046081.5944
 -12090898.71147  -9389250.66845  22855716.8984                   22855717.8404
  -6735322.07846  -5184845.19344  23223242.5784   23223243.5204   24362063.93046
  18999634.02543                  23740380.4144                   23740378.5084
 11  8 26  3  9  0.0000000  0 10G26G21G15G12G29G05G02G25G30G18
  -2479694.41448  -1916054.16346  21535942.5554   21535941.3914   19904073.44147
  15522880.73444                  24111661.7274                   24111659.3834
   6616333.60547   5171887.54546  21929846.1414                   21929845.1994
 -21396116.05947 -16645120.11844  24014154.2734                   24014153.4454
 -11402466.96148  -8869853.99246  20722260.8284                   20722259.7234
 -26352373.07847 -20502071.73846  22199953.5634                   22199952.2194
 -42777668.81647 -33300378.23144  23038356.9774                   23038354.2074
 -12114056.07047  -9407295.36345  22851310.3444                   22851310.7774
  -6754857.37547  -5200067.53044  23219525.1954   23219525.5474   24193424.60946
  18868226.83644                  23708288.8524                   23708288.0594
 11  8 26  3  9 30.0000000  0 10G26G21G15G12G29G05G02G25G30G18
  -2613078.64848  -2019989.90046  21510560.2504   21510558.9184   19753235.41446
  15405344.73143                  24082958.1334                   24082956.1764
   6445561.31348   5038818.24846  21897349.0164                   21897347.8364
 -21395291.66847 -16644477.70944  24014310.7114                   24014310.5354
 -11539944.33647  -8976979.20645  20696099.5394                   20696098.2194
 -26364720.76647 -20511693.32146  22197603.6174                   22197602.4414
 -42818150.88347 -33331922.70644  23030653.5004                   23030650.7544
 -12136955.07447  -9425138.75345  22846952.6484                   22846954.4494
  -6774177.03547  -5215121.83044  23215849.0474   23215849.6454   24025023.23846
  18737005.08843                  23676243.5944                   23676242.4734
 11  8 26  3 10  0.0000000  0 10G26G21G15G12G29G05G02G25G30G18
  -2745866.39848  -2123460.84645  21485291.5634   21485290.1334   19602355.85246
  15287776.31644                  24054246.3674                   24054244.3204
   6275126.53947   4906011.95746  21864916.3984                   21864915.2584
 -21394490.44547 -16643853.43744  24014463.7424                   24014463.0044
 -11677000.55547  -9083776.23245  20670018.7034                   20670017.2704
 -26376907.47748 -20521189.45546  22195285.0234                   22195283.3094
 -42858506.49647 -33363368.66645  23022974.5784                   23022971.2664
 -12159600.50847  -9442784.56645  22842642.8524                   22842644.6174
  -6793285.97347  -5230011.90844  23212213.5784   23212212.3204   23856858.66447
  18605967.88344                  23644242.8984                   23644241.3094
 11  8 26  3 10 30.0000000  0 10G26G21G15G12G29G05G02G25G30G18
  -2878059.03548  -2226468.06746  21460136.3364   21460135.1334   19451430.00446
  15170171.84443                  24025526.5394                   24025524.6454
   6105028.19547   4773467.83746  21832547.9304                   21832546.6804
 -21393719.04347 -16643252.37144  24014610.5164                   24014609.7344
 -11813638.07047  -9190246.98545  20644017.1954                   20644016.1524
 -26388939.52748 -20530565.08646  22192994.6334                   22192993.2894
 -42898739.51647 -33394719.05044  23015318.2344                   23015314.8594
 -12181999.32047  -9460238.17445  22838380.6484                   22838382.5634
  -6812191.38747  -5244743.41244  23208615.4774   23208614.1174   23688927.48447
  18475112.48844                  23612287.2664                   23612285.5664
 11  8 26  3 11  0.0000000  0 10G26G21G15G12G29G05G02G25G30G18
  -3009651.57048  -2329007.67346  21435094.8054   21435093.5744   19300460.57846
  15052533.41144                  23996797.1254                   23996795.3634
   5935272.27048   4641190.54046  21800244.1024                   21800243.2304
 -21392977.41847 -16642674.54944  24014751.0004                   24014751.2854
 -11949851.44147  -9296387.23445  20618096.4844                   20618094.9104
 -26400816.16047 -20539819.60646  22190735.2114                   22190733.3134
 -42938846.48847 -33425971.24845  23007686.1484                   23007682.7934
 -12204151.85547  -9477499.89645  22834165.1954                   22834167.2304
  -6830893.54347  -5259316.48844  23205056.5704   23205055.2234   23521233.43047
  18344441.88544                  23580375.6024                   23580375.0004
 11  8 26  3 11 30.0000000  0 10G26G21G15G12G29G05G02G25G30G18
  -3140640.77048  -2431077.14946  21410168.3834   21410167.3954   19149448.50847
  14934861.78144                  23968061.0634                   23968058.7814
   5765862.35947   4509182.87046  21768006.8204                   21768005.7194
 -21392267.66446 -16642121.48144  24014886.3834                   24014885.7934
 -12085637.80947  -9402194.77645  20592257.4144                   20592254.9734
 -26412538.69947 -20548954.05946  22188504.4844                   22188502.6724
 -42978825.67247 -33457123.88545  23000077.9064                   23000075.6684
 -12226060.31647  -9494571.45145  22829995.8364                   22829998.2114
  -6849394.87947  -5273733.13044  23201535.7274   23201535.1914   23353778.09446
  18213957.32844                  23548509.3594                   23548508.0744
 11  8 26  3 12  0.0000000  0 10G26G21G15G12G29G05G02G25G30G18
  -3271021.54748  -2532672.54546  21385357.8524   21385357.0594   18998396.27346
  14817158.82643                  23939316.2504                   23939313.9414
   5596804.46947   4377449.49346  21735835.8134                   21735834.4614
 -21391589.64546 -16641593.24543  24015015.1724                   24015014.5354
 -12220992.24247  -9507665.74545  20566500.2344                   20566497.8524
 -26424106.72747 -20557968.10745  22186302.9924                   22186301.5354
 -43018673.69947 -33488174.29045  22992495.6644                   22992492.7934
 -12247724.91047  -9511452.95545  22825873.4144                   22825874.8984
  -6867695.82847  -5287993.61845  23198053.4694   23198053.5234   23186564.93847
  18083661.45044                  23516689.6644                   23516688.6294
 11  8 26  3 12 30.0000000  0 10G26G21G15G12G29G05G02G25G30G18
  -3400795.33248  -2633794.93946  21360662.8834   21360661.3794   18847300.13346
  14699421.59144                  23910564.0474                   23910561.3834
   5428097.77748   4245989.77845  21703732.1414                   21703730.8554
 -21390949.90246 -16641094.83344  24015137.1804                   24015136.4454
 -12355916.34847  -9612801.40645  20540825.2424                   20540822.0984
 -26435526.26247 -20566866.44945  22184129.7894                   22184128.3594
 -43058394.32447 -33519125.44745  22984937.5704                   22984934.2584
 -12269152.39848  -9528149.70845  22821796.3984                   22821796.9264
  -6885803.23447  -5302103.29645  23194607.5634   23194607.0904   23019591.06347
  17953552.02344                  23484915.4304                   23484914.6954
 11  8 26  3 13  0.0000000  0 10G26G21G15G12G29G05G02G25G30G18
  -3529959.59048  -2734442.38946  21336083.7814   21336082.3594   18696160.00846
  14581650.14144                  23881802.4534                   23881800.4264
   5259745.32847   4114806.08446  21671695.4144                   21671694.8834
 -21390351.09046 -16640628.25143  24015251.0394                   24015250.6374
 -12490407.75847  -9717599.89445  20515232.8134                   20515229.4344
 -26446799.24647 -20575650.57345  22181984.3284                   22181983.1454
 -43097986.63747 -33549976.59745  22977403.0314                   22977399.3984
 -12290345.70747  -9544663.96845  22817763.2894                   22817763.9694
  -6903720.04747  -5316064.46244  23191199.0704   23191198.0124   22852857.26247
  17823629.65544                  23453187.6724                   23453185.7504
